[[{"header":{"parameterUnit":"m.s-1","parameterCategory":1,"la1":30.6,"la2":29.2853,"lo1":-89.7004,"lo2":-87.6739,"dy":0.0162,"dx":0.0183,"nx":112,"ny":82,"refTime":"2023-03-22T18:00:00:Z","depth":0,"parameterNumber":2,"parameterNumberName":"U-component_of_WINDS"},"data":[0.0,0.0,0.0,0.0,0.0,0.0,0.0,0.0,0.0,0.0,0.0,0.0,0.0,0.0,0.0,0.0,0.0,0.0,0.0,0.0,0.0,0.0,0.0,0.0,0.0,0.0,0.0,0.0,0.0,0.0,0.0,0.0,0.0,0.0,0.0,0.0,0.0,0.0,0.0,0.0,0.0,0.0,0.0,0.0,0.0,0.0,0.0,0.0,0.0,0.0,0.0,0.0,0.0,0.0,0.0,0.0,0.0,0.0,0.0,0.0,0.0,0.0,0.0,0.0,0.0,0.0,0.0,0.0,0.0,0.0,0.0,0.0,0.0,0.0,0.0,0.0,0.0,0.0,0.0,0.0,0.0,0.0,0.0,0.0,0.0,0.0,0.0,0.0,0.0,0.0,0.0,4.5423,4.5423,4.5423,4.5423,4.5423,4.5423,4.5423,0.0,0.0,0.0,0.0,0.0,0.0,0.0,0.0,0.0,0.0,0.0,0.0,0.0,0.0,0.0,0.0,0.0,0.0,0.0,0.0,0.0,0.0,0.0,0.0,0.0,0.0,0.0,0.0,0.0,0.0,0.0,0.0,0.0,0.0,0.0,0.0,0.0,0.0,0.0,0.0,0.0,0.0,0.0,0.0,0.0,0.0,0.0,0.0,0.0,0.0,0.0,0.0,0.0,0.0,0.0,0.0,0.0,0.0,0.0,0.0,0.0,0.0,0.0,0.0,0.0,0.0,0.0,0.0,0.0,0.0,0.0,0.0,0.0,0.0,0.0,0.0,0.0,0.0,0.0,0.0,0.0,0.0,0.0,0.0,0.0,0.0,0.0,0.0,0.0,0.0,0.0,0.0,0.0,0.0,0.0,0.0,0.0,0.0,0.0,0.0,0.0,0.0,0.0,0.0,4.5423,4.5423,4.5423,4.5423,4.5423,4.5423,4.5423,4.5423,0.0,0.0,0.0,0.0,0.0,0.0,0.0,0.0,0.0,0.0,0.0,0.0,0.0,0.0,0.0,0.0,0.0,0.0,0.0,0.0,0.0,0.0,0.0,0.0,0.0,0.0,0.0,0.0,0.0,0.0,0.0,0.0,0.0,0.0,0.0,0.0,0.0,0.0,0.0,0.0,0.0,0.0,0.0,0.0,0.0,0.0,0.0,0.0,0.0,0.0,0.0,0.0,0.0,0.0,0.0,0.0,0.0,0.0,0.0,0.0,0.0,0.0,0.0,0.0,0.0,0.0,0.0,0.0,0.0,0.0,0.0,0.0,0.0,0.0,0.0,0.0,0.0,0.0,0.0,0.0,0.0,0.0,0.0,0.0,0.0,0.0,0.0,0.0,0.0,0.0,0.0,0.0,0.0,0.0,0.0,0.0,0.0,0.0,0.0,0.0,0.0,0.0,0.0,4.5752,4.5701,4.5423,4.5423,4.5423,4.5423,4.5423,4.5423,4.5423,4.5423,0.0,0.0,0.0,0.0,0.0,0.0,0.0,0.0,0.0,0.0,0.0,0.0,0.0,0.0,0.0,0.0,0.0,0.0,0.0,0.0,0.0,0.0,0.0,0.0,0.0,0.0,0.0,0.0,0.0,0.0,0.0,0.0,0.0,0.0,0.0,0.0,0.0,0.0,0.0,0.0,0.0,0.0,0.0,0.0,0.0,0.0,0.0,0.0,0.0,0.0,0.0,0.0,0.0,0.0,0.0,0.0,0.0,0.0,0.0,0.0,0.0,0.0,0.0,0.0,0.0,0.0,0.0,0.0,0.0,0.0,0.0,0.0,0.0,0.0,0.0,0.0,0.0,0.0,0.0,0.0,0.0,0.0,0.0,0.0,0.0,0.0,0.0,0.0,0.0,0.0,0.0,0.0,0.0,0.0,0.0,0.0,0.0,0.0,0.0,0.0,0.0,0.0,4.5887,4.5854,4.5423,4.5423,4.5423,4.5423,4.5423,4.5423,4.5423,4.5423,0.0,0.0,0.0,0.0,0.0,0.0,0.0,0.0,0.0,0.0,0.0,0.0,0.0,0.0,0.0,0.0,0.0,0.0,0.0,0.0,0.0,0.0,0.0,0.0,0.0,0.0,0.0,0.0,0.0,0.0,0.0,0.0,0.0,0.0,0.0,0.0,0.0,0.0,0.0,0.0,0.0,0.0,0.0,0.0,0.0,0.0,0.0,0.0,0.0,0.0,0.0,0.0,0.0,0.0,0.0,0.0,0.0,0.0,0.0,0.0,0.0,0.0,0.0,0.0,0.0,0.0,0.0,0.0,0.0,0.0,0.0,0.0,0.0,0.0,0.0,0.0,0.0,0.0,0.0,0.0,0.0,0.0,0.0,0.0,0.0,0.0,0.0,0.0,0.0,0.0,0.0,0.0,0.0,0.0,0.0,0.0,0.0,0.0,0.0,0.0,0.0,0.0,4.5406,4.5423,4.5423,4.5423,4.5423,4.5423,4.5423,4.5423,4.5423,4.5423,0.0,0.0,0.0,0.0,0.0,0.0,0.0,0.0,0.0,0.0,0.0,0.0,0.0,0.0,0.0,0.0,0.0,0.0,0.0,0.0,0.0,0.0,0.0,0.0,0.0,0.0,0.0,0.0,0.0,0.0,0.0,0.0,0.0,0.0,0.0,0.0,0.0,0.0,0.0,0.0,0.0,0.0,0.0,0.0,0.0,0.0,0.0,0.0,0.0,0.0,0.0,0.0,0.0,0.0,0.0,0.0,0.0,0.0,0.0,0.0,0.0,0.0,0.0,0.0,0.0,0.0,0.0,0.0,0.0,0.0,0.0,0.0,0.0,0.0,0.0,0.0,0.0,0.0,0.0,0.0,0.0,0.0,0.0,0.0,0.0,0.0,0.0,0.0,0.0,0.0,0.0,0.0,0.0,0.0,0.0,0.0,0.0,0.0,0.0,0.0,0.0,0.0,4.5988,4.5752,0.0,4.5423,4.5423,4.5423,4.5423,4.5423,4.5423,0.0,0.0,0.0,0.0,0.0,0.0,0.0,0.0,0.0,0.0,0.0,0.0,0.0,0.0,0.0,0.0,0.0,0.0,0.0,0.0,0.0,0.0,0.0,0.0,0.0,0.0,0.0,0.0,0.0,0.0,0.0,0.0,0.0,0.0,0.0,0.0,0.0,0.0,0.0,0.0,0.0,0.0,0.0,0.0,0.0,0.0,0.0,0.0,0.0,0.0,0.0,0.0,0.0,0.0,0.0,0.0,0.0,0.0,0.0,0.0,0.0,0.0,0.0,0.0,0.0,0.0,0.0,0.0,0.0,0.0,0.0,0.0,0.0,0.0,0.0,0.0,0.0,0.0,0.0,0.0,0.0,0.0,0.0,0.0,0.0,0.0,0.0,0.0,0.0,0.0,0.0,0.0,0.0,0.0,0.0,0.0,0.0,0.0,0.0,0.0,0.0,0.0,4.6376,4.6119,4.5803,0.0,4.5423,4.5423,4.5423,4.5423,4.5423,4.5423,0.0,0.0,0.0,0.0,0.0,0.0,0.0,0.0,0.0,0.0,0.0,0.0,0.0,0.0,0.0,0.0,0.0,0.0,0.0,0.0,0.0,0.0,0.0,0.0,0.0,0.0,0.0,0.0,0.0,0.0,0.0,0.0,0.0,0.0,0.0,0.0,0.0,0.0,0.0,0.0,0.0,0.0,0.0,0.0,0.0,0.0,0.0,0.0,0.0,0.0,0.0,0.0,0.0,0.0,0.0,0.0,0.0,0.0,0.0,0.0,0.0,0.0,0.0,0.0,0.0,0.0,0.0,0.0,0.0,0.0,0.0,0.0,0.0,0.0,0.0,0.0,0.0,0.0,0.0,0.0,0.0,0.0,0.0,0.0,0.0,0.0,0.0,0.0,0.0,0.0,0.0,0.0,0.0,0.0,0.0,0.0,0.0,0.0,0.0,0.0,0.0,0.0,4.6186,4.577,4.5423,4.5423,4.5423,4.5423,4.5423,4.5423,4.5423,0.0,0.0,0.0,0.0,0.0,0.0,0.0,0.0,0.0,0.0,0.0,0.0,0.0,0.0,0.0,0.0,0.0,0.0,0.0,0.0,0.0,0.0,0.0,0.0,0.0,0.0,0.0,0.0,0.0,0.0,0.0,0.0,0.0,0.0,0.0,0.0,0.0,0.0,0.0,0.0,0.0,0.0,0.0,0.0,0.0,0.0,0.0,0.0,0.0,0.0,0.0,0.0,0.0,0.0,0.0,0.0,0.0,0.0,0.0,0.0,0.0,0.0,0.0,0.0,0.0,0.0,0.0,0.0,0.0,0.0,0.0,0.0,0.0,0.0,0.0,0.0,0.0,0.0,0.0,0.0,0.0,0.0,0.0,0.0,0.0,0.0,0.0,0.0,0.0,0.0,0.0,0.0,0.0,0.0,0.0,0.0,0.0,0.0,0.0,0.0,0.0,0.0,0.0,4.6631,4.5938,4.5423,4.5423,4.5423,4.5423,4.5423,4.5423,4.5423,4.5423,0.0,0.0,0.0,0.0,0.0,0.0,0.0,0.0,0.0,0.0,0.0,0.0,0.0,0.0,0.0,0.0,0.0,0.0,0.0,0.0,0.0,0.0,0.0,0.0,0.0,0.0,0.0,0.0,0.0,0.0,0.0,0.0,0.0,0.0,0.0,0.0,0.0,0.0,0.0,0.0,0.0,0.0,0.0,0.0,0.0,0.0,0.0,0.0,0.0,0.0,0.0,0.0,0.0,0.0,0.0,0.0,0.0,0.0,0.0,0.0,0.0,0.0,0.0,0.0,0.0,0.0,0.0,0.0,0.0,0.0,0.0,0.0,0.0,0.0,0.0,0.0,0.0,0.0,0.0,0.0,0.0,0.0,0.0,0.0,0.0,0.0,0.0,0.0,0.0,0.0,0.0,0.0,0.0,0.0,0.0,0.0,0.0,0.0,0.0,0.0,0.0,0.0,4.6584,4.5887,4.5423,4.5423,4.5423,4.5423,4.5423,4.5423,4.5423,4.5423,0.0,0.0,0.0,0.0,0.0,0.0,0.0,0.0,0.0,0.0,0.0,0.0,0.0,0.0,0.0,0.0,0.0,0.0,0.0,0.0,0.0,0.0,0.0,0.0,0.0,0.0,0.0,0.0,0.0,0.0,0.0,0.0,0.0,0.0,0.0,0.0,0.0,0.0,0.0,0.0,0.0,0.0,0.0,0.0,0.0,0.0,0.0,0.0,0.0,0.0,0.0,0.0,0.0,0.0,0.0,0.0,0.0,0.0,0.0,0.0,0.0,0.0,0.0,0.0,0.0,0.0,0.0,0.0,0.0,0.0,0.0,0.0,0.0,0.0,0.0,0.0,0.0,0.0,0.0,0.0,0.0,0.0,0.0,0.0,0.0,0.0,0.0,0.0,0.0,0.0,0.0,0.0,0.0,0.0,0.0,0.0,0.0,0.0,0.0,0.0,0.0,0.0,4.6235,4.5752,4.5423,4.5423,4.5423,4.5423,4.5423,4.5423,4.5423,4.5423,0.0,0.0,0.0,0.0,0.0,0.0,0.0,0.0,0.0,0.0,0.0,0.0,0.0,0.0,0.0,0.0,0.0,0.0,0.0,0.0,0.0,0.0,0.0,0.0,0.0,0.0,0.0,0.0,0.0,0.0,0.0,0.0,0.0,0.0,0.0,0.0,0.0,0.0,0.0,0.0,0.0,0.0,0.0,0.0,0.0,0.0,0.0,0.0,0.0,0.0,0.0,0.0,0.0,0.0,0.0,0.0,0.0,0.0,0.0,0.0,4.6154,0.0,0.0,0.0,0.0,0.0,0.0,0.0,0.0,0.0,0.0,0.0,0.0,0.0,0.0,0.0,0.0,0.0,0.0,0.0,0.0,0.0,0.0,0.0,0.0,0.0,0.0,0.0,0.0,0.0,0.0,0.0,0.0,0.0,0.0,0.0,0.0,0.0,0.0,0.0,0.0,0.0,4.6424,4.5837,4.5423,4.5423,4.5423,4.5423,4.5423,4.5423,4.5423,4.5423,0.0,0.0,0.0,0.0,0.0,0.0,0.0,0.0,0.0,0.0,0.0,0.0,0.0,0.0,0.0,0.0,0.0,0.0,0.0,0.0,0.0,0.0,0.0,0.0,0.0,0.0,0.0,0.0,0.0,0.0,0.0,0.0,0.0,0.0,0.0,0.0,0.0,0.0,0.0,0.0,0.0,0.0,0.0,0.0,0.0,0.0,0.0,0.0,0.0,0.0,0.0,0.0,0.0,0.0,0.0,0.0,0.0,0.0,0.0,0.0,0.0,4.6695,0.0,0.0,0.0,0.0,0.0,0.0,0.0,0.0,0.0,0.0,0.0,0.0,0.0,0.0,0.0,0.0,0.0,0.0,0.0,0.0,0.0,0.0,0.0,0.0,0.0,0.0,0.0,0.0,0.0,0.0,0.0,0.0,0.0,0.0,0.0,0.0,0.0,0.0,0.0,0.0,4.6382,4.584,4.5423,4.5423,4.5423,4.5423,4.5423,4.5423,4.5423,4.5423,4.5423,0.0,0.0,0.0,0.0,0.0,0.0,0.0,0.0,0.0,0.0,0.0,0.0,0.0,0.0,0.0,0.0,0.0,0.0,0.0,0.0,0.0,0.0,0.0,0.0,0.0,0.0,0.0,0.0,0.0,0.0,0.0,0.0,0.0,0.0,0.0,0.0,0.0,0.0,0.0,0.0,0.0,0.0,0.0,0.0,0.0,0.0,0.0,0.0,0.0,0.0,0.0,0.0,0.0,0.0,4.7377,4.7412,4.805,4.8242,4.8015,4.7699,4.7403,4.7195,0.0,0.0,0.0,0.0,0.0,0.0,0.0,0.0,0.0,0.0,0.0,0.0,0.0,0.0,0.0,0.0,0.0,0.0,0.0,0.0,0.0,0.0,0.0,0.0,0.0,4.6802,4.6757,0.0,0.0,0.0,0.0,0.0,0.0,0.0,0.0,0.0,0.0,0.0,0.0,4.6203,4.5753,4.5423,4.5423,4.5423,4.5423,4.5423,4.5423,4.5423,4.5423,4.5423,4.5423,0.0,0.0,0.0,0.0,0.0,0.0,0.0,0.0,0.0,0.0,0.0,0.0,0.0,0.0,0.0,0.0,0.0,0.0,0.0,0.0,0.0,0.0,0.0,0.0,0.0,0.0,0.0,0.0,0.0,0.0,0.0,0.0,4.7949,4.7451,0.0,0.0,0.0,0.0,0.0,0.0,0.0,0.0,0.0,0.0,0.0,0.0,0.0,0.0,4.7212,4.7015,4.7234,4.7874,4.7715,4.7637,4.7637,4.7734,4.7803,4.7799,4.8385,0.0,4.7942,4.8032,0.0,0.0,0.0,0.0,0.0,0.0,0.0,0.0,0.0,0.0,0.0,0.0,0.0,0.0,0.0,0.0,0.0,0.0,0.0,0.0,0.0,0.0,4.6048,4.5996,4.6135,4.6204,0.0,4.6667,4.717,4.6888,0.0,0.0,0.0,0.0,0.0,0.0,0.0,0.0,4.5891,4.558,4.5423,4.5423,4.5423,4.5423,4.5423,4.5423,4.5423,4.5423,4.5423,4.5423,4.5423,4.5423,0.0,0.0,0.0,0.0,0.0,0.0,0.0,0.0,0.0,0.0,0.0,0.0,0.0,0.0,0.0,0.0,0.0,0.0,0.0,0.0,0.0,0.0,0.0,0.0,0.0,0.0,0.0,0.0,0.0,4.8273,4.7997,4.7548,4.7514,4.7386,0.0,0.0,0.0,0.0,0.0,0.0,0.0,0.0,0.0,4.7005,4.7336,4.765,4.7964,4.7869,4.8,4.8381,4.8676,4.8846,4.8864,4.9093,4.9232,4.9219,4.9407,4.9469,4.9371,4.8903,4.9134,4.9732,0.0,0.0,0.0,0.0,0.0,4.9925,4.966,0.0,0.0,0.0,0.0,0.0,0.0,0.0,0.0,0.0,0.0,0.0,0.0,0.0,0.0,4.6743,4.6221,4.5787,4.5995,4.6238,4.6482,0.0,4.6955,4.7178,4.7015,0.0,0.0,0.0,0.0,0.0,4.6063,4.5667,4.5423,4.5423,4.5423,4.5423,4.5423,4.5423,4.5423,4.5423,4.5423,4.5423,4.5423,4.5423,4.5423,0.0,0.0,0.0,0.0,0.0,0.0,0.0,0.0,0.0,0.0,0.0,0.0,0.0,0.0,0.0,0.0,0.0,0.0,0.0,0.0,0.0,0.0,0.0,0.0,0.0,0.0,0.0,0.0,4.7871,4.7761,4.7425,4.7362,4.7257,0.0,0.0,0.0,0.0,0.0,0.0,4.6903,4.7346,4.7643,4.7748,4.8055,4.8447,4.8785,4.8647,4.8735,4.9065,4.9642,4.9811,4.9809,5.0154,5.0272,5.0289,5.0092,5.0149,5.0345,4.9722,4.9918,5.0607,5.0259,5.0506,5.1035,5.0928,5.0928,5.0874,5.0509,5.0453,5.0509,5.0397,0.0,5.0727,5.1141,0.0,0.0,0.0,0.0,4.9743,4.9068,0.0,4.8037,4.7771,4.6969,4.6274,4.6447,4.6447,4.6492,0.0,4.6748,4.6933,4.6864,0.0,0.0,0.0,0.0,4.5735,4.603,4.57,4.5423,4.5423,4.5475,4.551,4.551,4.551,4.551,4.551,4.5458,4.5423,4.5423,4.5423,4.5423,4.5423,0.0,0.0,0.0,0.0,0.0,0.0,0.0,0.0,0.0,0.0,0.0,0.0,0.0,0.0,0.0,0.0,0.0,0.0,0.0,0.0,0.0,0.0,0.0,0.0,0.0,0.0,0.0,0.0,0.0,4.7071,4.7025,0.0,0.0,0.0,0.0,4.6649,4.7257,4.7654,4.7736,4.815,4.861,4.889,4.8107,4.8288,4.9617,4.9053,4.9292,5.0282,5.0335,5.0237,5.0017,4.9976,4.9993,4.9993,5.0011,5.0149,5.0415,5.0363,5.0694,5.1228,5.1245,5.1401,5.164,5.1384,5.1281,5.1176,5.062,5.0564,5.0766,5.0509,5.0799,5.1264,5.1316,5.144,0.0,0.0,5.0087,4.9877,4.8862,4.8584,4.8571,4.854,4.8483,4.8247,4.7509,4.7784,4.7777,0.0,4.6223,4.6259,4.6257,0.0,4.6495,4.5909,4.61,4.6047,4.5527,4.5441,4.5423,4.5423,4.5596,4.5769,4.5769,4.5769,4.5769,4.5769,4.5527,4.5423,4.5423,4.5423,4.5423,4.5423,4.5423,0.0,0.0,0.0,0.0,0.0,0.0,0.0,0.0,0.0,0.0,0.0,0.0,0.0,0.0,0.0,0.0,0.0,0.0,0.0,0.0,0.0,0.0,0.0,0.0,0.0,0.0,0.0,0.0,4.7025,4.6998,0.0,0.0,4.7459,4.7723,4.7652,4.8201,4.8364,4.7943,4.8385,4.8742,4.8837,4.9009,4.962,5.0707,4.9971,4.9916,5.0467,4.9971,4.9629,4.9546,4.9342,4.9299,4.9299,4.9453,4.9496,4.9462,5.0154,5.062,5.0999,5.0999,5.1035,5.1088,5.0982,5.0999,5.0928,5.0712,5.0712,5.0749,5.0712,5.0963,5.1299,5.1299,5.1491,5.1619,5.1265,5.1126,5.1055,5.0702,5.0072,4.9634,4.9796,4.9199,4.8569,4.8606,4.871,4.8659,4.8267,4.7409,4.6699,4.6495,4.6291,4.6131,4.6048,4.5839,4.596,4.6568,4.6533,4.6707,4.7404,4.7526,4.7612,4.7599,4.7386,4.7283,4.7282,4.7021,4.6899,4.6899,4.6899,4.6899,4.6899,4.6429,4.6255,0.0,0.0,0.0,0.0,0.0,0.0,0.0,0.0,0.0,0.0,0.0,0.0,0.0,0.0,0.0,0.0,0.0,0.0,0.0,0.0,0.0,0.0,0.0,0.0,0.0,0.0,4.7105,4.738,4.7415,4.7504,4.7747,4.8258,4.8443,4.8137,4.8889,4.9082,4.8432,4.9197,4.9709,4.9802,4.9838,5.022,5.1014,5.0155,4.9815,4.9993,4.958,4.9274,4.9093,4.8883,4.8776,4.8776,4.8855,4.8917,4.8944,4.9639,5.0119,5.0439,5.0694,5.0874,5.0982,5.0982,5.0982,5.0982,5.1088,5.1035,5.0982,5.1088,5.1263,5.1454,5.1438,5.1574,5.169,5.169,5.169,5.169,5.169,5.1144,5.0702,5.0845,5.0267,4.9672,4.9702,4.9626,4.946,4.9334,4.8458,4.7589,4.7275,4.6868,4.6655,4.6794,4.6533,4.6653,4.7648,4.7631,4.7788,4.8522,4.8696,4.8708,4.8746,4.8532,4.8378,4.8253,4.7989,4.7796,4.7726,4.7796,4.7813,4.7813,4.7349,4.7021,4.6858,0.0,0.0,0.0,0.0,0.0,0.0,0.0,0.0,0.0,0.0,0.0,0.0,0.0,0.0,0.0,0.0,0.0,0.0,0.0,0.0,0.0,0.0,0.0,4.7222,4.7114,4.7344,4.8128,4.8253,4.8532,4.9216,4.9305,4.8988,4.8146,4.9328,4.9895,4.9248,5.0495,5.1387,5.1628,5.0437,5.0022,5.0498,4.9436,4.8944,4.911,4.9265,4.9118,4.8639,4.8639,4.8576,4.8336,4.8416,4.8589,4.8883,4.8883,4.9188,4.9646,5.0439,5.0999,5.1281,5.1281,5.1298,5.135,5.1589,5.1538,5.135,5.1589,5.169,5.169,5.169,5.169,5.169,5.169,5.169,5.169,5.169,5.169,5.169,5.169,5.169,5.1462,5.072,5.0528,5.0282,4.9543,4.9156,4.8882,4.854,4.8282,4.8137,4.8137,4.8094,0.0,4.8627,4.8659,4.8685,4.8703,4.8947,4.9071,4.9071,4.9053,4.8907,4.8558,4.834,4.8036,4.7773,4.8019,4.8145,4.8077,4.811,4.7625,4.6593,0.0,0.0,0.0,0.0,0.0,0.0,0.0,0.0,0.0,0.0,0.0,0.0,0.0,0.0,0.0,0.0,0.0,0.0,0.0,0.0,0.0,0.0,4.9737,4.9499,4.8992,4.874,4.8984,4.8986,4.9065,4.9291,4.9834,5.0072,4.9837,5.071,5.101,5.0365,5.0288,5.0233,5.0316,4.9547,4.9428,5.0005,4.9127,4.8697,4.8742,4.8242,4.7968,4.7853,4.7853,4.7787,4.777,4.8129,4.8113,4.7951,4.8656,4.8934,4.8927,4.9646,5.0328,5.0928,5.0928,5.1211,5.1589,5.169,5.164,5.1589,5.169,5.169,5.169,5.169,5.169,5.169,5.169,5.169,5.169,5.169,5.169,5.169,5.169,5.169,5.1637,5.1408,5.1372,5.1301,5.1073,5.0852,5.0246,4.9061,4.8799,4.8752,4.8752,0.0,0.0,4.9847,4.9827,4.9965,5.0756,5.093,5.0862,5.0702,5.0439,5.0181,0.0,4.9604,4.9533,4.9677,4.9533,4.9037,4.8138,4.8297,4.7885,0.0,0.0,0.0,0.0,0.0,0.0,0.0,0.0,0.0,0.0,0.0,0.0,0.0,0.0,0.0,0.0,0.0,0.0,0.0,0.0,0.0,0.0,5.0762,5.0597,5.1103,5.0067,4.9424,4.9763,4.9795,4.9927,5.0246,5.0738,5.0901,5.0627,5.1307,5.1418,5.0803,5.0439,5.0237,5.0237,4.9368,4.9067,4.9274,4.8652,4.8306,4.8225,4.7902,4.7835,4.8048,4.8048,4.8144,0.0,4.8661,4.861,4.8439,4.9011,4.9192,0.0,0.0,0.0,0.0,0.0,5.0677,5.1297,5.1297,5.147,5.169,5.169,5.169,5.169,5.169,5.1505,5.1386,5.1658,5.1521,5.1367,5.164,5.169,5.169,5.169,5.169,5.169,5.169,5.169,5.169,5.169,0.0,0.0,5.0309,4.9953,4.9794,4.9953,4.9837,5.0069,0.0,5.0773,5.0862,5.1619,5.1601,5.1444,5.1319,5.1105,0.0,0.0,0.0,5.0436,5.0587,5.0402,0.0,0.0,0.0,4.846,0.0,0.0,0.0,0.0,4.4464,4.4102,0.0,0.0,0.0,0.0,0.0,0.0,0.0,0.0,0.0,0.0,0.0,0.0,0.0,0.0,0.0,0.0,5.1347,5.1034,5.199,5.0642,4.9826,5.0566,5.0637,5.0923,5.1619,5.169,5.147,5.0928,5.1349,5.1349,5.0803,0.0,0.0,0.0,0.0,4.8748,4.8644,4.8279,4.8101,4.7951,4.8167,4.8514,4.894,4.894,4.9217,4.967,4.967,4.967,4.967,4.9723,4.9931,5.009,4.951,4.9389,4.9598,4.9658,5.0247,0.0,0.0,0.0,0.0,5.194,5.1972,5.1955,5.1955,5.1563,5.1155,5.1685,5.1387,5.1017,5.1571,5.169,5.169,5.169,5.169,5.169,5.169,5.1654,5.1601,5.1601,5.1601,5.1601,5.1601,5.123,5.1002,5.1301,5.1355,0.0,5.1672,5.1462,5.1462,5.1663,0.0,0.0,5.1265,5.122,5.102,5.0362,5.0622,5.0815,5.0741,5.0742,5.0298,4.9508,4.9519,4.9028,4.8039,4.7766,4.7217,4.6429,4.5554,4.488,0.0,0.0,0.0,0.0,0.0,0.0,0.0,0.0,0.0,0.0,0.0,0.0,0.0,0.0,0.0,5.2656,5.2208,5.1856,5.1794,5.1476,5.1298,5.144,5.1458,5.153,5.1672,5.169,5.164,5.1521,5.1193,5.091,5.082,4.9855,0.0,4.9248,4.8576,4.8445,4.8995,4.8962,4.9193,4.9722,0.0,0.0,4.992,4.992,5.0003,5.0066,5.0066,5.0066,5.0119,5.0643,5.1244,5.1696,5.0956,5.0727,5.0837,5.1319,5.1963,5.2572,5.2572,5.2979,5.356,5.356,5.3573,5.3548,5.3548,5.3056,0.0,5.2634,5.2147,5.1521,5.169,5.169,5.169,5.169,5.169,5.169,5.169,5.1319,5.0984,5.0984,5.0984,5.0984,5.0984,5.1301,5.1565,5.1619,5.1619,5.1637,5.169,5.1654,5.1615,5.1724,5.1617,5.1426,5.0966,5.0885,5.0645,5.0097,5.0521,5.0695,5.0492,5.03,4.975,4.8668,4.9061,4.8806,4.7802,4.8521,4.8565,4.7902,4.6192,4.5195,0.0,0.0,0.0,0.0,0.0,0.0,0.0,0.0,0.0,0.0,0.0,5.3813,0.0,0.0,5.2962,5.2806,5.2333,5.1902,5.174,5.169,5.169,5.169,5.169,5.169,5.169,5.169,5.1571,5.1245,5.0982,5.0797,5.0867,4.9992,4.9627,4.9999,4.9392,4.946,5.0173,4.9842,5.0193,5.1214,5.0858,5.0861,5.1229,5.1594,5.173,5.1781,5.1781,5.1967,5.2283,5.2332,5.2332,5.2266,5.19,5.1678,5.1623,5.1214,5.1932,5.2993,5.2648,5.32,5.4008,5.3992,5.401,5.3974,5.4005,5.3524,5.3048,5.3389,5.2962,5.2467,5.274,5.2573,5.2291,5.2291,5.199,5.169,5.169,5.1444,5.1155,5.0863,5.083,5.0658,5.0376,5.0827,5.1355,5.1654,5.169,5.169,5.169,5.1601,5.1541,5.1687,5.1562,5.1372,5.1073,5.078,5.0541,5.0379,5.0665,5.0738,5.0581,5.0495,4.9797,4.8442,4.8694,4.8463,4.7708,4.8433,4.8506,4.8036,4.7306,4.65,0.0,0.0,0.0,0.0,0.0,0.0,0.0,0.0,5.3813,5.3813,5.3813,5.3813,5.3813,5.3258,5.2806,5.2806,5.2162,5.169,5.169,5.169,5.1744,5.1904,5.1797,5.169,5.169,5.1833,5.1752,5.1246,5.1226,5.1266,5.1326,5.0762,5.068,5.1291,5.0858,5.0925,5.1592,5.1076,5.1389,5.2606,5.205,5.2136,5.2731,5.329,5.3553,5.3583,5.3449,5.383,5.4516,5.3895,5.3315,5.2956,5.2817,5.2704,5.2485,5.1112,5.1766,5.3276,5.2736,5.3387,5.4491,5.4456,5.4455,5.449,5.4492,5.4011,5.3619,5.4128,5.3761,5.3373,5.3862,5.3548,5.3121,5.3121,5.2609,5.2165,5.2165,5.2044,5.1776,5.1158,5.093,5.0629,4.9936,5.0259,5.0788,5.1411,5.1619,5.169,5.169,5.1408,5.1337,5.1654,5.139,5.118,5.118,5.0727,5.0524,5.0789,5.0841,5.088,5.088,5.0882,5.0114,4.8528,4.8579,4.8249,4.7537,4.815,4.8132,4.7722,4.8124,4.7658,5.5981,5.5885,5.5766,5.5427,5.5134,5.4817,0.0,0.0,5.3813,5.3813,5.3813,5.3813,5.3813,5.3258,5.2806,5.2806,5.2162,5.169,5.169,5.169,5.1958,5.2671,5.2118,5.169,5.169,5.2332,5.2743,5.2692,5.2783,5.2839,5.287,5.2275,5.2011,5.208,5.2037,5.2303,5.3053,5.2991,5.3335,5.4132,5.4069,5.4121,5.4207,5.4253,5.4305,5.4264,5.3632,5.4136,5.5266,5.4579,5.4579,5.5026,5.4391,5.4161,5.4006,5.2635,5.3078,5.4229,5.4192,5.5026,5.6133,5.6133,5.6151,5.6114,5.6133,5.5578,5.5008,5.5025,5.4525,5.3939,5.4,5.3922,5.3868,5.3868,5.3814,5.376,5.376,5.3301,5.2738,5.2056,5.1415,5.0722,5.0062,4.991,5.0137,5.0785,5.1355,5.169,5.169,5.123,5.1073,5.1637,5.1162,5.0845,5.0845,5.0585,5.0524,5.0789,5.107,5.1265,5.1265,5.1255,5.0506,4.8901,4.9258,4.8636,4.6955,4.7939,4.8132,4.768,4.7734,4.7447,5.6017,5.5941,5.5847,0.0,5.5122,5.479,5.4378,5.4017,5.3813,5.3813,5.3813,5.3813,5.3813,5.3769,5.3787,0.0,5.3588,5.3383,5.3383,5.32,5.3171,5.351,5.3242,5.3046,5.3046,5.335,5.3423,5.3068,5.306,5.3129,5.3217,5.3013,5.3038,5.3487,5.3487,5.3827,5.4538,5.4156,5.4513,5.5578,5.5147,5.4948,5.5026,5.5402,5.5325,5.4948,5.4703,5.4454,5.4264,5.4328,5.4328,5.4264,5.4328,5.4391,5.4264,5.3315,5.3815,5.5,5.4953,5.5595,5.6401,5.6401,5.6401,5.6401,5.6401,5.615,5.5918,5.5918,5.5667,5.54,5.5401,5.5044,5.4705,5.4705,5.4349,5.4011,5.4011,5.3495,5.2856,5.2219,5.1569,5.0892,5.0225,5.0373,5.0629,5.0926,5.1085,5.1337,5.1744,5.1601,5.169,5.2362,5.1865,5.1507,5.172,5.1255,5.0989,5.1069,5.0854,5.0702,5.0581,5.0241,4.945,4.8258,4.837,4.7969,4.6876,4.7671,4.775,4.7255,4.7585,4.744,5.6031,5.5995,0.0,5.5389,5.5076,5.4771,5.4277,5.4131,5.4128,5.4128,5.4333,5.45,5.45,5.4667,5.4828,5.4828,5.4729,5.4603,5.4603,5.4251,5.4099,5.4313,5.4349,5.4438,5.4652,5.4474,5.4171,5.3682,5.3876,5.4077,5.4137,5.4172,5.4373,5.4931,5.4948,5.5207,5.5636,5.5207,5.5461,5.6383,5.5901,5.5711,5.5694,5.6199,5.6144,5.5653,5.5461,5.4948,5.4264,5.4579,5.4391,5.4008,5.4516,5.4579,5.4391,5.4072,5.4557,5.5391,5.5391,5.5852,5.6401,5.6401,5.6401,5.6401,5.6401,5.6401,5.6365,5.615,5.6276,5.6365,5.615,5.581,5.5506,5.5506,5.5095,5.4685,5.4685,5.4132,5.3485,5.2851,5.2031,5.1206,5.0592,5.0693,5.0861,5.0861,5.084,5.1224,5.2101,5.236,5.245,5.245,5.2272,5.2165,5.2456,5.1833,5.1473,5.164,5.093,5.038,5.0255,4.958,4.8785,4.7803,4.783,4.7505,4.6876,4.729,4.729,4.6892,4.729,4.7273,0.0,0.0,5.5747,5.5084,5.4905,5.4727,5.3981,5.4407,5.4964,5.4964,5.5652,5.6227,5.6227,5.5946,5.5656,5.5656,5.5093,5.4603,5.4603,5.4251,5.4313,5.508,5.5169,5.5473,0.0,5.5633,5.5169,5.5116,5.5883,5.6329,5.6292,5.6292,5.631,5.6328,5.6328,5.6328,5.6401,5.6328,5.6346,5.6401,5.6401,5.6401,5.6401,5.6401,5.6401,5.6328,5.5694,5.5769,5.6273,5.5636,5.5325,5.5325,5.5385,5.4948,5.4454,5.5087,5.5371,5.5391,5.5391,5.5852,5.6401,5.6401,5.6401,5.6401,5.6401,5.6401,5.6276,5.5632,5.5918,5.6276,5.5614,5.5918,5.6365,5.6365,5.6347,5.6329,5.6329,5.5792,5.5115,5.4482,5.3207,5.2054,5.1399,5.0692,5.0222,5.0222,5.073,5.1577,5.2818,5.3546,5.3194,5.1355,5.2027,5.2573,5.2562,5.1976,5.1869,5.2538,5.1479,5.0817,5.07,4.9992,4.9137,4.809,4.8086,4.772,4.6876,4.6892,4.6892,4.6876,4.6892,4.6892,0.0,0.0,5.5943,5.5893,5.5834,5.5795,5.5954,5.5921,5.5935,5.6164,5.6256,5.6302,5.6302,5.6629,5.6899,5.6899,5.674,5.6588,5.6588,5.5985,5.5687,5.5955,5.599,0.0,0.0,0.0,0.0,5.599,5.624,5.6401,5.6401,5.6401,5.6401,5.6401,5.6401,5.6401,5.6401,5.6401,5.6401,5.6401,5.6401,5.6401,5.6401,5.6401,5.6401,5.6328,5.5711,5.5519,5.5711,5.5519,5.5385,5.5443,5.5901,5.5957,5.5769,5.5957,5.6049,5.6046,5.6046,5.6197,5.6401,5.6401,5.6401,5.6401,5.6401,5.6401,5.6347,5.6114,5.622,5.6223,5.56,5.5918,5.6311,5.5827,5.6078,5.6401,5.6401,5.5506,5.4647,5.4428,5.3323,5.2307,5.207,5.1817,5.163,5.163,5.1801,5.2051,5.2408,5.3122,5.3347,5.2701,5.2413,5.2482,5.2942,5.2288,5.1931,5.2179,5.1481,5.0967,5.0806,4.9674,4.8833,4.8233,4.7753,4.729,4.6876,4.6876,4.6876,4.6876,4.6876,4.6876,0.0,5.6689,5.6946,5.6947,5.6907,5.69,5.7168,5.719,5.7153,5.7223,5.7286,5.7318,5.7197,5.7583,5.7936,5.7936,5.7855,5.7726,5.7601,5.7054,5.6546,5.6401,5.6401,5.6401,0.0,0.0,0.0,5.6401,5.6401,5.6401,5.6401,5.6401,5.6401,5.6401,5.6401,5.6401,5.6401,5.6401,5.6401,5.6401,5.6401,5.6401,5.6401,5.6401,5.6401,5.6401,5.5957,5.5769,5.5769,5.5769,5.5769,5.5826,5.6199,5.6401,5.6401,5.6401,5.6401,5.6401,5.6401,5.6401,5.6401,5.6401,5.6401,5.6401,5.6401,5.6401,5.6347,5.6096,5.6227,5.6235,5.5582,5.5729,5.5904,5.5482,5.5523,5.5703,5.5703,5.4809,5.4022,5.4056,5.3135,5.2373,5.2373,5.2373,5.2373,5.2373,5.2357,5.2282,5.2276,5.3129,5.3601,5.3063,5.2775,5.2815,5.3202,5.2561,5.223,5.2499,5.163,5.1057,5.0876,4.9697,4.8981,4.8676,4.8122,4.7688,4.729,4.729,4.714,4.6876,4.6876,4.6876,5.7385,5.7965,5.851,5.8168,5.8058,5.8007,5.7718,5.8166,5.8553,5.8261,5.8725,5.9121,0.0,0.0,5.8698,5.8656,5.8319,5.7941,5.7649,5.7239,5.6847,0.0,0.0,0.0,0.0,0.0,0.0,5.6401,0.0,5.6401,5.6401,5.6401,5.6401,5.6401,5.6401,5.6401,5.6401,5.6401,5.6401,5.6401,5.6401,5.6401,5.6401,5.6401,5.6401,5.6401,5.6401,5.6401,5.6401,5.6401,5.6401,5.6401,5.6401,5.6401,5.6401,5.6401,5.6401,5.6401,5.6401,5.6401,5.6401,5.6401,5.6401,5.6401,5.6401,5.6401,5.6294,5.5649,5.5936,5.6276,5.5596,5.5432,5.5417,5.5384,5.4912,5.4429,5.4394,5.3841,5.3404,5.3394,5.2848,5.2373,5.2373,5.2373,5.2373,5.2373,5.2373,5.2373,5.2373,5.3544,5.3833,5.2561,5.2931,5.3356,5.3356,5.2798,5.2644,5.3323,5.2087,5.1279,5.1076,5.0167,4.9608,4.9376,4.9189,4.8695,4.803,4.805,4.7688,4.6994,4.6994,4.6909,5.8275,5.843,5.8702,5.9081,5.9038,5.9076,5.9722,5.9684,5.9449,5.9384,5.9282,5.9121,0.0,0.0,0.0,5.8301,5.7941,0.0,5.7206,5.6794,0.0,5.6401,0.0,5.6401,5.6401,5.6401,0.0,0.0,5.6401,5.6401,5.6401,5.6401,5.6401,5.6401,5.6401,5.6401,5.6401,5.6401,5.6401,5.6401,5.6401,5.6401,5.6401,5.6401,5.6401,5.6401,5.6401,5.6401,5.6401,5.6401,5.6401,5.6401,5.6401,5.6401,5.6401,5.6401,5.6401,5.6401,5.6401,5.6401,5.6401,5.6401,5.6401,5.6401,5.6401,5.6401,5.6365,5.6167,5.6294,5.6276,5.5596,5.5794,5.5871,5.4915,5.4906,5.4991,5.4549,5.3855,5.3399,5.3415,5.2848,5.2373,5.2373,5.2373,5.2373,5.2373,5.2373,5.2373,5.2373,5.266,5.2798,5.2407,5.2561,5.2627,5.2627,5.2528,5.2495,5.2627,5.2324,5.2087,5.2054,5.1295,5.0697,5.0359,4.9775,4.919,4.8721,4.8763,4.84,4.772,4.772,4.7456,5.9165,5.9435,5.9784,6.0151,6.0164,6.0153,6.0715,6.0444,6.0015,5.9849,5.9484,0.0,5.8762,0.0,0.0,0.0,0.0,0.0,5.7338,5.7054,5.6794,0.0,5.6401,0.0,5.6401,5.6401,5.6401,0.0,5.6401,5.6401,5.6401,5.6401,5.6401,5.6401,5.6401,5.6401,5.6401,5.6401,5.6401,5.6401,5.6401,5.6401,5.6401,5.6401,5.6401,5.6401,0.0,5.6401,5.6401,5.6401,5.6401,5.6401,5.6401,5.6401,5.6401,5.6401,5.6401,5.6401,5.6401,5.6401,5.6401,5.6401,5.6401,5.6401,5.6401,5.6401,5.6401,5.6401,5.6401,5.6329,5.5954,5.5918,5.5762,5.504,5.4669,5.4427,5.4071,5.3406,5.2931,5.2931,5.2644,5.2373,5.2373,5.2373,5.2373,5.2373,5.2373,5.2373,5.2373,5.2373,5.2373,5.2373,5.2373,5.2373,5.2373,5.2373,5.2373,5.2373,5.2373,5.2373,5.2373,5.1834,5.1382,5.1182,5.0574,5.0016,4.948,4.9499,4.9141,4.8456,4.8404,4.8217,6.0054,6.0576,6.1099,6.1099,6.1099,6.108,6.1002,6.0689,6.0288,5.9885,0.0,5.9121,5.8762,5.8716,5.8656,5.8614,0.0,5.8381,5.7631,5.7504,5.7239,5.6492,5.6401,5.6401,5.6401,5.6401,5.6401,5.6401,5.6401,5.6401,5.6401,5.6401,5.6401,5.6401,5.6401,5.6401,5.6401,5.6401,5.6401,5.6401,5.6401,5.6401,5.6401,5.6401,5.6401,5.6401,0.0,0.0,5.6401,5.6401,5.6401,5.6401,5.6401,5.6401,5.6401,5.6401,5.6401,5.6401,5.6401,5.6401,5.6401,5.6401,5.6401,5.6401,5.6401,5.6401,5.6401,5.6401,5.6401,5.6401,5.6401,5.5989,5.5488,5.5417,5.4492,5.3629,5.3582,5.3036,5.2528,5.239,5.2373,5.2373,5.2373,5.2373,5.2373,5.2373,5.2373,5.2373,5.2373,5.2373,5.2373,5.2373,5.2373,5.2373,5.2373,5.2373,5.2373,5.2373,5.2373,5.2373,5.2373,5.2054,5.1867,5.1773,5.1401,5.0914,5.0236,5.0236,4.9904,4.9165,4.9125,4.9071,6.0886,6.0983,6.1099,6.1099,6.1061,6.1002,6.0999,6.0676,0.0,0.0,5.9484,5.9121,5.8762,5.8716,5.8596,5.8257,0.0,0.0,0.0,0.0,5.6951,0.0,0.0,0.0,0.0,0.0,0.0,0.0,0.0,0.0,5.6401,5.6401,5.6401,5.6401,5.6401,5.6401,5.6401,5.6401,5.6401,5.6401,5.6401,5.6401,5.6401,5.6401,5.6401,5.6401,0.0,0.0,5.6401,5.6401,5.6401,5.6401,5.6401,5.6401,5.6401,5.6401,5.6401,5.6401,5.6401,5.6401,5.6401,5.6401,5.6401,5.6401,5.6401,5.6401,5.6401,5.6401,5.6401,5.6401,5.6401,5.6329,5.6078,5.5506,5.5228,5.4912,5.4325,5.3678,5.3069,5.2528,5.2373,5.2373,5.2373,5.2373,5.2373,5.2373,5.2373,5.2373,5.2373,5.2373,5.2373,5.2373,5.2373,5.2373,5.2373,5.2373,5.2373,5.2373,5.2373,5.2373,5.2373,5.2137,5.2004,5.1818,5.1544,5.1323,5.0978,5.0978,5.0645,4.992,4.9908,4.9544,6.1099,6.1099,6.1099,6.1099,6.108,6.1041,6.1021,0.0,0.0,0.0,5.9465,5.9121,5.8762,5.8716,0.0,0.0,0.0,0.0,0.0,0.0,0.0,0.0,0.0,0.0,0.0,0.0,0.0,0.0,0.0,0.0,5.6401,5.6401,5.6401,5.6401,5.6401,5.6401,5.6401,5.6401,5.6401,5.6401,5.6401,5.6401,5.6401,5.6401,5.6401,5.6401,5.6401,0.0,5.6401,5.6401,5.6401,5.6401,5.6401,5.6401,5.6401,5.6401,5.6401,5.6401,5.6401,5.6401,5.6401,5.6401,5.6401,5.6401,5.6401,5.6401,5.6401,5.6401,5.6401,5.6401,5.6401,5.6401,5.6329,5.6007,5.5667,5.5139,5.4121,5.3636,5.3169,5.2544,5.2373,5.2373,5.2373,5.2373,5.2373,5.2373,5.2373,5.2373,5.2373,5.2373,5.2373,5.2373,5.2373,5.2373,5.2373,5.2373,5.2373,5.2373,5.2373,5.2373,5.2373,5.2103,5.1915,5.1815,5.1469,5.1323,5.1183,5.1183,5.0978,5.0677,5.0677,5.0473,6.1099,6.1099,6.1099,6.1099,6.1099,6.108,6.1022,6.0692,0.0,0.0,5.9515,5.9103,5.8762,0.0,5.8716,0.0,5.8716,0.0,0.0,0.0,0.0,0.0,0.0,0.0,0.0,0.0,0.0,0.0,0.0,0.0,5.6401,5.6401,5.6401,5.6401,5.6401,5.6401,5.6401,5.6401,5.6401,5.6401,5.6401,5.6401,5.6401,5.6401,5.6401,5.6401,5.6401,0.0,0.0,5.6401,5.6401,5.6401,5.6401,5.6401,5.6401,5.6401,5.6401,5.6401,5.6401,5.6401,5.6401,5.6401,5.6401,5.6401,5.6401,5.6401,5.6401,5.6401,5.6401,5.6401,5.6401,5.6401,5.6401,5.6401,5.6007,5.531,5.4097,5.384,5.3628,5.2931,5.2831,5.2798,5.2627,5.2611,5.2577,5.239,5.2373,5.2373,5.2373,5.2373,5.2373,5.2373,5.2373,5.2373,5.2373,5.2373,5.2373,5.2373,5.2373,5.2373,5.234,5.2021,5.176,5.1766,5.1388,5.1183,5.1183,5.1183,5.1183,5.1183,5.1183,5.1183,6.1099,6.1099,6.1099,6.1099,6.1099,6.108,6.1022,0.0,0.0,5.9897,5.953,5.9159,5.8762,5.8716,5.8716,5.8716,0.0,5.8553,0.0,0.0,0.0,0.0,0.0,0.0,0.0,0.0,0.0,0.0,0.0,0.0,0.0,5.6401,5.6401,5.6401,5.6401,5.6401,5.6401,5.6401,5.6401,5.6401,5.6401,5.6401,5.6401,5.6401,5.6401,5.6401,0.0,0.0,0.0,5.6401,5.6401,5.6401,5.6401,5.6401,5.6401,5.6401,5.6401,5.6401,5.6401,5.6401,5.6401,5.6401,5.6401,5.6401,5.6401,5.6401,5.6401,5.6401,5.6401,5.6401,5.6401,5.6401,5.6401,5.6401,5.6347,5.6096,5.5381,5.5242,5.5005,5.4376,5.4205,5.3983,5.339,5.3323,5.3102,5.2511,5.2373,5.2373,5.2373,5.2373,5.2373,5.2373,5.2373,5.2373,5.2373,5.2373,5.2373,5.2373,5.2373,5.2324,5.212,5.19,5.1711,5.1544,5.134,5.1183,5.1183,5.1183,5.1183,5.1183,5.1183,5.1183,6.1099,6.1099,6.1099,6.1099,6.1099,6.1099,6.108,0.0,6.0692,6.0296,6.0065,5.9766,5.9159,5.9006,5.8908,5.8739,5.8716,0.0,0.0,0.0,0.0,0.0,0.0,0.0,0.0,0.0,0.0,0.0,0.0,0.0,0.0,5.6401,5.6401,5.6401,5.6401,5.6401,5.6401,5.6401,5.6401,5.6401,5.6401,5.6401,5.6401,5.6401,5.6401,5.6401,0.0,0.0,0.0,5.6401,5.6401,5.6401,5.6401,5.6401,5.6401,5.6401,5.6401,5.6401,5.6401,5.6401,5.6401,5.6401,5.6401,5.6401,5.6401,5.6401,5.6401,5.6401,5.6401,5.6401,5.6401,5.6401,5.6401,5.6401,5.6401,5.624,5.5523,5.5379,5.5201,5.4556,5.4391,5.4321,5.4052,5.399,5.3899,5.3628,5.329,5.3036,5.3036,5.2627,5.2373,5.2373,5.2373,5.2373,5.2373,5.2373,5.2373,5.2373,5.2373,5.2357,5.2291,5.1957,5.1794,5.1658,5.1372,5.1183,5.1183,5.1183,5.1183,5.1183,5.1183,5.1183,6.1099,6.1099,6.1099,6.1099,6.1099,6.1099,0.0,0.0,6.0923,6.0561,6.0457,6.0189,5.9446,5.9251,5.9103,5.8781,5.8716,5.8716,5.8716,0.0,0.0,0.0,0.0,0.0,0.0,0.0,0.0,0.0,0.0,0.0,0.0,5.6401,5.6401,5.6401,5.6401,5.6401,5.6401,5.6401,5.6401,5.6401,5.6401,5.6401,5.6401,5.6401,5.6401,5.6401,0.0,0.0,0.0,5.6401,5.6401,5.6401,5.6401,5.6401,5.6401,5.6401,5.6401,5.6401,5.6401,5.6401,5.6401,5.6401,5.6401,5.6401,5.6401,5.6401,5.6401,5.6401,5.6401,5.6401,5.6401,5.6401,5.6401,5.6401,5.6401,5.6294,5.5792,5.5703,5.5578,5.5077,5.5006,5.4845,5.4471,5.4417,5.4292,5.3853,5.3381,5.3112,5.309,5.266,5.2373,5.2373,5.2373,5.2373,5.2373,5.2373,5.2373,5.2373,5.2373,5.2357,5.2324,5.2056,5.185,5.1815,5.1561,5.1388,5.1388,5.134,5.1323,5.1323,5.1199,5.1183,6.1099,6.1099,6.1099,6.1099,6.1099,6.1099,0.0,0.0,6.0983,6.0584,6.0493,6.025,5.9462,5.9323,5.9159,5.8781,5.8716,0.0,5.8716,0.0,0.0,0.0,0.0,0.0,0.0,0.0,0.0,0.0,0.0,0.0,0.0,5.6401,5.6401,5.6401,5.6401,5.6401,5.6401,5.6401,5.6401,5.6401,5.6401,5.6401,5.6401,5.6401,5.6401,0.0,0.0,0.0,0.0,5.6401,5.6401,5.6401,5.6401,5.6401,5.6401,5.6401,5.6401,5.6401,5.6401,5.6401,5.6401,5.6401,5.6401,5.6401,5.6401,5.6401,5.6401,5.6401,5.6401,5.6401,5.6401,5.6401,5.6401,5.6401,5.6401,5.6401,5.6383,5.6383,5.6383,5.6383,5.6383,5.5971,5.465,5.4418,5.3954,5.2602,5.2426,5.2421,5.2374,5.2373,5.2373,5.2373,5.2373,5.2373,5.2373,5.2373,5.2373,5.2373,5.2373,5.2324,5.2103,5.2103,5.1997,5.1815,5.1831,5.1815,5.1815,5.1609,5.1469,5.1453,5.1323,5.1183,6.1099,6.1099,6.1099,6.1099,6.1099,6.1099,6.1099,0.0,6.106,6.0943,6.0862,6.0692,6.0196,5.9957,5.9682,5.9196,5.8986,0.0,0.0,0.0,0.0,0.0,0.0,0.0,0.0,0.0,0.0,0.0,0.0,0.0,0.0,0.0,5.6951,5.6401,5.6653,5.6794,5.6794,5.6794,5.6811,5.6825,5.651,5.6401,5.6401,5.6401,0.0,0.0,0.0,0.0,0.0,5.649,5.6401,5.6401,5.6401,5.6401,5.6401,5.6401,5.6401,5.6401,5.6401,5.6401,5.6401,5.6401,5.6401,5.6401,5.6401,5.6401,5.6401,5.6401,5.6401,5.6401,5.6401,5.6401,5.6401,5.6401,5.6401,5.6401,5.6401,5.6401,5.6401,5.6401,5.6401,5.6294,5.5827,5.5785,5.5598,5.5206,5.4715,5.4482,5.4414,5.3644,5.3085,5.3085,5.2644,5.2373,5.2373,5.2373,5.2373,5.2373,5.2373,5.2357,5.2324,5.2137,5.2082,5.1997,5.1898,5.1776,5.1776,5.1556,5.1418,5.1323,5.1199,5.1183,0.0,6.1099,6.1099,6.1099,6.1099,0.0,0.0,6.1099,6.1099,6.1099,6.108,6.0923,6.0561,6.0367,6.0094,5.9611,0.0,0.0,0.0,0.0,0.0,0.0,0.0,0.0,0.0,0.0,0.0,0.0,0.0,0.0,0.0,0.0,5.7388,5.6847,5.7105,5.7257,5.7257,5.7051,5.7108,5.7221,5.6815,5.6705,5.683,5.683,0.0,0.0,0.0,0.0,0.0,5.6974,5.6759,5.6634,5.6634,5.6508,5.6401,5.6401,5.6401,5.6401,5.6401,5.6401,5.6401,5.6401,5.6401,5.6401,5.6401,5.6401,5.6401,5.6401,5.6401,5.6401,5.6401,5.6401,5.6401,5.6401,5.6401,5.6401,5.6401,5.6401,5.6401,5.6401,5.6401,5.6329,5.606,5.5994,5.5912,5.5706,5.5046,5.4655,5.4655,5.3724,5.301,5.3023,5.2627,5.2373,5.2373,5.2373,5.2373,5.2373,5.2373,5.2373,5.2373,5.2291,5.2241,5.2241,5.2037,5.1883,5.1883,5.1612,5.1435,5.1183,5.1183,5.0978,0.0,6.1099,0.0,0.0,0.0,0.0,0.0,0.0,0.0,6.1099,6.1099,6.0983,6.0608,6.0537,6.0399,0.0,0.0,0.0,0.0,0.0,0.0,0.0,0.0,0.0,0.0,0.0,0.0,0.0,0.0,0.0,0.0,0.0,5.7697,5.7649,5.7631,5.7631,5.7649,5.7279,5.7271,5.7621,5.7227,5.7263,5.7622,5.7622,0.0,0.0,0.0,0.0,0.0,5.755,5.7353,5.703,5.6993,5.6723,5.6401,5.6401,5.6401,5.6401,5.6401,5.6401,5.6401,5.6401,5.6401,5.6401,5.6401,5.6401,5.6401,5.6401,5.6401,5.6401,5.6401,5.6401,5.6401,5.6401,5.6401,5.6401,5.6401,5.6401,5.6401,5.6401,5.6401,5.6167,5.5596,5.5452,5.5274,5.4667,5.4026,5.3596,5.3626,5.3057,5.2631,5.259,5.2577,5.2544,5.2511,5.2495,5.2423,5.2373,5.2407,5.2423,5.2373,5.2373,5.2373,5.2373,5.2203,5.2082,5.2065,5.1712,5.1404,5.1183,5.1183,5.0742,6.1099,0.0,6.1099,6.1099,6.1099,6.1099,0.0,0.0,0.0,0.0,0.0,0.0,0.0,0.0,0.0,0.0,0.0,0.0,0.0,0.0,0.0,0.0,0.0,0.0,0.0,0.0,0.0,0.0,0.0,0.0,0.0,0.0,5.8275,5.7987,5.8275,5.8275,5.7987,5.7905,5.7872,5.7969,5.7611,5.754,5.76,5.76,0.0,0.0,0.0,0.0,5.7939,5.7379,5.7095,5.696,5.6667,5.6454,5.6401,5.6401,5.6401,5.6401,5.6401,5.6401,5.6401,5.6401,5.6401,5.6401,5.6401,5.6401,5.6401,5.6401,5.6401,5.6401,5.6401,5.6401,5.6401,5.6401,5.6401,5.6401,5.6401,5.6401,5.6401,5.6401,5.6401,5.6347,5.6167,5.615,5.6096,5.5971,5.5792,5.5671,5.5701,5.5127,5.4669,5.4703,5.4221,5.3695,5.3185,5.3152,5.2914,5.2407,5.2865,5.2898,5.239,5.2373,5.2373,5.2373,5.222,5.2006,5.1908,5.1636,5.1404,5.1183,5.1183,5.1102,6.1099,6.1099,6.1099,6.1099,6.1099,6.1099,6.1099,0.0,0.0,0.0,0.0,0.0,0.0,0.0,0.0,0.0,0.0,0.0,0.0,0.0,0.0,0.0,0.0,0.0,0.0,0.0,0.0,0.0,0.0,0.0,0.0,0.0,5.8614,5.8363,5.8614,5.8614,5.8363,5.8196,5.8183,5.8381,5.8005,5.7943,5.8076,5.8076,0.0,0.0,0.0,0.0,5.8341,5.7946,5.7678,5.7473,5.7244,5.6974,5.6687,5.6687,5.658,5.6401,5.6401,5.6401,5.6401,5.6401,5.6401,5.6401,5.6401,5.6401,5.6401,5.6401,5.6401,5.6401,5.6401,5.6401,5.6401,5.6401,5.6401,5.6401,5.6401,5.6401,5.6401,5.6401,5.6401,5.6401,5.6401,5.6401,5.6401,5.6401,5.6132,5.5954,5.5963,5.5334,5.4943,5.4943,5.462,5.4281,5.3862,5.3838,5.3463,5.2452,5.2756,5.2798,5.239,5.2373,5.2357,5.2274,5.2145,5.1983,5.1658,5.1577,5.1404,5.1183,5.1183,5.0962,6.1099,6.1099,6.1099,6.1099,6.1099,6.1099,6.1099,0.0,0.0,0.0,0.0,0.0,0.0,6.08,0.0,0.0,0.0,0.0,0.0,0.0,0.0,0.0,0.0,0.0,0.0,0.0,0.0,0.0,0.0,0.0,0.0,0.0,0.0,5.8716,5.8716,5.8716,5.8716,5.8359,5.8359,5.8716,5.8359,5.8359,5.8716,5.8716,0.0,0.0,0.0,0.0,5.8716,5.8642,5.841,5.8087,5.8033,5.7637,5.71,5.7101,5.6903,5.6598,5.6598,5.6508,5.6472,5.6472,5.6436,5.6401,5.6401,5.6401,5.6401,5.6401,5.6401,5.6401,5.6401,5.6401,5.6401,5.6401,5.6401,5.6401,5.6401,5.6401,5.6401,5.6401,5.6401,5.6401,5.6401,5.6401,5.6401,5.6401,5.5936,5.5523,5.5523,5.506,5.4721,5.4721,5.4721,5.4685,5.4542,5.4581,5.3983,5.2782,5.2587,5.2528,5.2373,5.2373,5.2324,5.2137,5.2103,5.1915,5.1554,5.1544,5.1421,5.1216,5.1216,5.0849,6.1099,6.1099,6.1099,6.1099,6.1099,6.1099,6.1099,0.0,0.0,0.0,0.0,0.0,0.0,6.1022,0.0,0.0,0.0,0.0,0.0,0.0,0.0,0.0,0.0,0.0,0.0,0.0,0.0,0.0,0.0,0.0,0.0,0.0,0.0,5.8716,5.8716,5.8716,5.8716,5.8661,5.8661,5.8716,5.8661,5.8661,5.8716,5.8716,5.8716,0.0,0.0,5.8716,5.8679,5.8341,5.8159,5.8079,5.7777,5.7629,5.7534,5.7508,5.7458,5.7423,5.7423,5.7171,5.6939,5.6939,5.6687,5.6401,5.6401,5.6401,5.6401,5.6401,5.6401,5.6401,5.6401,5.6401,5.6401,5.6401,5.6401,5.6401,5.6401,5.6401,5.6401,5.6401,5.6401,5.6401,5.6401,5.6401,5.6401,5.6401,5.6329,5.6276,5.6276,5.615,5.6078,5.6078,5.6078,5.5827,5.531,5.5263,5.4896,5.416,5.3536,5.3019,5.239,5.2373,5.2373,5.234,5.2153,5.2048,5.201,5.1843,5.1642,5.1437,5.1437,5.1323,6.1215,6.1215,6.1195,6.1118,6.1099,6.1099,6.1041,0.0,0.0,0.0,0.0,0.0,0.0,0.0,0.0,0.0,0.0,0.0,0.0,0.0,0.0,0.0,0.0,0.0,0.0,0.0,0.0,0.0,0.0,0.0,0.0,0.0,0.0,0.0,5.8716,5.8716,5.8716,5.8716,5.8716,5.8716,5.8716,5.8716,5.8716,5.8716,5.8716,5.8716,0.0,5.8716,5.8698,5.8489,5.8415,5.8396,5.8266,5.8039,5.7844,5.7694,5.7606,5.7606,5.7606,5.7467,5.7267,5.7083,5.6848,5.6687,5.6454,5.6401,5.6401,5.6401,5.6401,5.6401,5.6401,5.6401,5.6401,5.6401,5.6401,5.6401,5.6401,5.6401,5.6401,5.6401,5.6401,5.6401,5.6401,5.6401,5.6401,5.6401,5.6401,5.6401,5.6401,5.6401,5.6401,5.6401,5.6401,5.6294,5.5989,5.5632,5.4962,5.3908,5.3578,5.3102,5.2407,5.2373,5.2373,5.2373,5.2324,5.2241,5.2087,5.1997,5.1818,5.1475,5.1473,5.1388,6.1322,6.1308,6.1273,6.1137,6.1099,6.108,6.1022,6.1022,0.0,0.0,0.0,0.0,0.0,0.0,0.0,0.0,0.0,0.0,0.0,0.0,0.0,0.0,0.0,0.0,0.0,0.0,0.0,0.0,0.0,0.0,0.0,0.0,0.0,0.0,5.8716,5.8716,5.8716,5.8716,5.8716,5.8716,5.8716,5.8716,5.8716,5.8716,5.8716,5.8716,5.8716,5.8716,5.8716,5.8716,5.8716,5.8716,5.8716,5.8489,5.8229,5.7946,5.7872,5.7872,5.7872,5.7817,5.7685,5.7338,5.7226,5.7082,5.6759,5.6634,5.6508,5.6508,5.6454,5.6401,5.6401,5.6401,5.6401,5.6401,5.6401,5.6418,5.649,5.6454,5.6418,5.649,5.6454,5.6401,5.6401,5.6401,5.6401,5.6401,5.6401,5.6401,5.6401,5.6401,5.6401,5.6401,5.6401,5.6401,5.6401,5.5954,5.5145,5.3939,5.3576,5.3152,5.2644,5.2511,5.2373,5.2373,5.2373,5.2324,5.2137,5.2137,5.2021,5.163,5.1573,5.1437,6.1324,6.1291,6.1273,6.1137,6.1099,6.1099,6.1099,6.1099,0.0,6.1099,0.0,0.0,0.0,0.0,0.0,0.0,0.0,0.0,0.0,0.0,0.0,0.0,0.0,0.0,0.0,0.0,0.0,0.0,0.0,0.0,0.0,0.0,0.0,0.0,0.0,5.8716,5.8716,5.8716,5.8716,5.8716,5.8716,5.8716,5.8716,5.8716,5.8716,5.8716,5.8716,5.8716,5.8716,5.8716,5.8716,5.8716,5.8716,5.8698,5.8661,5.8642,5.8642,5.8642,5.8642,5.8378,5.8058,5.8029,5.7813,5.753,5.7494,5.728,5.6974,5.6974,5.6687,5.6401,5.6401,5.6401,5.6401,5.6401,5.6401,5.6472,5.6903,5.667,5.649,5.6903,5.667,5.6401,5.6401,5.6401,5.6401,5.6401,5.6401,5.6401,5.6401,5.6401,5.6401,5.6401,5.6401,5.6401,5.6401,5.6365,5.6023,5.5284,5.4068,5.3373,5.334,5.2765,5.2373,5.2373,5.2373,5.2373,5.2373,5.2373,5.2291,5.207,5.1843,5.1658,6.1393,6.1352,6.1311,6.1137,6.1099,6.108,6.1061,6.1041,6.1041,6.1041,6.1022,0.0,0.0,0.0,0.0,0.0,0.0,0.0,0.0,0.0,0.0,0.0,0.0,0.0,0.0,0.0,0.0,0.0,0.0,0.0,0.0,0.0,0.0,0.0,0.0,5.8716,5.8716,5.8716,5.8791,5.9037,5.8791,5.8716,5.8716,5.8716,5.8716,5.8716,5.8716,5.8716,5.8716,5.8716,5.8716,5.8716,5.8716,5.8716,5.8716,5.8716,5.8716,5.8716,5.8716,5.8624,5.8415,5.8192,5.8017,5.7886,5.7637,5.7491,5.7375,5.7388,5.728,5.7028,5.6508,5.6401,5.6454,5.6705,5.6759,5.6795,5.6974,5.6884,5.6758,5.6635,5.6472,5.6401,5.6401,5.6401,5.6401,5.6401,5.6401,5.6401,5.6401,5.6401,5.6472,5.6741,5.6759,5.6759,5.6759,5.6759,5.667,5.6401,5.5262,5.4458,5.4021,5.3816,5.3628,5.3628,5.3202,5.3036,5.3036,5.2594,5.2258,5.1883,5.1832,5.1598,6.145,6.1381,6.1331,6.1137,6.1099,6.108,6.1041,6.1022,6.1022,6.1022,6.1022,6.1022,0.0,0.0,0.0,0.0,0.0,0.0,0.0,0.0,0.0,0.0,0.0,0.0,0.0,0.0,0.0,0.0,0.0,0.0,0.0,0.0,0.0,0.0,0.0,0.0,5.9074,5.9074,5.9167,5.9413,5.9178,5.9065,5.9074,5.9074,5.9074,5.9093,5.9074,5.9074,5.9074,5.9074,5.9074,5.9093,5.8921,5.8884,5.8865,5.8754,5.8716,5.8716,5.8716,5.8716,5.8661,5.8378,5.8303,5.8266,5.8002,5.7872,5.7777,5.7741,5.7692,5.746,5.6939,5.6794,5.683,5.71,5.7189,5.7174,5.7174,5.7079,5.6908,5.6618,5.6472,5.6436,5.6598,5.6454,5.6472,5.6741,5.667,5.6652,5.6759,5.6777,5.6886,5.7141,5.7208,5.7171,5.7171,5.7169,5.7174,5.7174,5.6492,5.5666,5.473,5.4478,5.4393,5.4393,5.3919,5.3602,5.339,5.2914,5.2407,5.1883,5.1855,5.1639,6.1448,6.1342,6.1273,6.1137,0.0,0.0,6.1099,6.1099,6.1099,6.1099,6.1099,6.108,6.1022,0.0,0.0,0.0,0.0,0.0,0.0,0.0,0.0,0.0,0.0,0.0,0.0,0.0,0.0,0.0,0.0,0.0,0.0,0.0,0.0,0.0,0.0,0.0,5.9808,5.9808,5.9808,5.9789,5.9807,5.9786,5.9808,5.9808,5.9845,5.9901,5.9827,5.9808,5.9808,5.9808,5.9845,5.9864,5.945,5.932,5.926,5.8846,5.8716,5.8716,5.8716,5.8716,5.8716,5.8716,5.8716,5.8716,5.8716,5.8415,5.8095,5.8095,5.7872,5.7608,5.7608,5.7583,5.7603,5.7603,5.7613,5.7589,5.7589,5.7286,5.701,5.701,5.6687,5.6508,5.6957,5.667,5.667,5.7458,5.7262,5.7172,5.7549,5.7603,5.7593,5.7592,5.7588,5.7603,5.7603,5.7601,5.7589,5.7589,5.7611,5.6957,5.547,5.4774,5.4418,5.4418,5.4418,5.4087,5.3444,5.339,5.2931,5.2103,5.1933,5.1674,6.1375,6.1324,0.0,6.1137,0.0,0.0,0.0,6.1099,0.0,0.0,6.1099,6.1099,6.108,0.0,0.0,0.0,0.0,0.0,0.0,0.0,0.0,0.0,0.0,0.0,0.0,0.0,0.0,0.0,0.0,0.0,0.0,0.0,0.0,0.0,0.0,0.0,5.9779,5.9865,5.9998,6.0208,6.0233,6.0073,5.9808,5.981,5.9821,5.9903,5.9867,5.986,5.9865,5.9867,5.9869,5.9869,5.9754,5.9709,5.9673,5.926,5.913,5.9093,5.8791,5.8716,5.8716,5.8716,5.8716,5.8716,5.8716,5.8642,5.8508,5.8508,5.8433,5.8359,5.8359,5.8381,5.829,5.8033,5.795,5.7946,5.7946,5.7875,5.771,5.7458,5.7333,5.7297,5.7405,5.732,5.7321,5.7532,5.7515,5.7464,5.7602,5.7804,5.7847,5.7622,5.7807,5.7932,5.7932,5.7938,5.7946,5.7946,5.7936,5.7546,5.6545,5.6329,5.6096,5.5792,5.5346,5.503,5.4815,5.4347,5.3594,5.2594,5.2524,5.2085,6.1331,6.1253,0.0,6.1118,6.1099,6.1099,6.1099,0.0,0.0,0.0,0.0,0.0,0.0,0.0,0.0,0.0,0.0,0.0,0.0,0.0,0.0,0.0,0.0,0.0,0.0,0.0,0.0,0.0,0.0,0.0,0.0,0.0,0.0,0.0,0.0,0.0,6.028,6.0318,6.0434,6.0646,6.0635,6.0519,6.028,6.0268,6.0326,6.0376,6.0345,6.0345,6.0338,6.0345,6.0345,6.0364,6.021,6.0147,6.0075,5.9696,5.9513,5.939,5.9223,5.9037,5.8828,5.8902,5.8828,5.8716,5.8716,5.8716,5.8716,5.8716,5.8716,5.8716,5.8716,5.8716,5.8661,5.8396,5.8341,5.8303,5.8113,5.8098,5.8001,5.7678,5.7606,5.7642,5.7769,5.7684,5.771,5.7972,5.8023,5.8021,5.8021,5.8229,5.8266,5.8039,5.8229,5.8341,5.8341,5.8341,5.8341,5.8341,5.8341,5.8091,5.746,5.7333,5.7046,5.6652,5.6258,5.581,5.5399,5.4834,5.4093,5.3116,5.2992,5.2405,6.1292,0.0,0.0,6.1099,6.1099,0.0,6.1099,6.1099,0.0,0.0,0.0,0.0,0.0,0.0,0.0,0.0,0.0,0.0,0.0,0.0,0.0,0.0,0.0,0.0,0.0,0.0,0.0,0.0,0.0,0.0,0.0,0.0,0.0,0.0,0.0,0.0,6.1002,6.1021,6.1021,0.0,6.1012,6.1015,6.1002,6.1002,6.1041,6.1099,6.1041,6.1021,6.1021,6.1021,6.106,6.106,6.0693,6.0538,6.05,6.0094,5.9863,5.9694,5.9856,5.9539,5.9113,5.9287,5.9111,5.8791,5.8772,5.8754,5.8754,5.8735,5.8735,5.8735,5.8716,5.8735,5.8754,5.8754,5.8735,5.8624,5.8248,5.8174,5.8039,5.7779,5.7682,5.7817,5.8076,5.7909,5.7928,5.8624,5.8716,5.8716,5.8716,5.8716,5.8716,5.8716,5.8716,5.8716,5.8716,5.8716,5.8716,5.8716,5.8716,5.8526,5.8192,5.7819,5.746,5.7065,5.7029,5.658,5.5523,5.5184,5.4595,5.3679,5.3382,5.2811,6.1176,6.1118,0.0,0.0,6.1099,6.1099,6.1099,6.1099,0.0,0.0,0.0,0.0,0.0,0.0,0.0,0.0,0.0,0.0,0.0,0.0,0.0,0.0,0.0,0.0,0.0,0.0,0.0,0.0,0.0,0.0,0.0,0.0,0.0,0.0,0.0,6.0906,6.1002,6.106,6.106,0.0,6.1061,6.1061,6.1002,6.1002,6.1041,6.1099,6.1079,6.1079,6.1079,6.1079,6.1099,6.1099,6.1002,6.0983,6.0925,6.0519,6.0341,6.0277,5.9988,5.9805,5.9696,5.9553,5.958,5.958,5.926,5.9167,5.9148,5.8958,5.9037,5.9055,5.8772,5.8884,5.9111,5.9111,5.8884,5.8698,5.8605,5.8586,5.8526,5.8471,5.8452,5.8471,5.8545,5.8489,5.8508,5.8698,5.8716,5.8716,5.8716,5.8716,5.8716,5.8716,5.8716,5.8716,5.8716,5.8716,5.8716,5.8716,5.8716,5.8679,5.8586,5.8215,5.7855,5.7497,5.7467,5.7171,5.667,5.6329,5.5539,5.4391,5.4055,5.3411,6.1118,0.0,0.0,6.1099,0.0,6.1099,6.1099,0.0,0.0,0.0,0.0,0.0,0.0,0.0,0.0,0.0,0.0,0.0,0.0,0.0,0.0,0.0,0.0,0.0,0.0,0.0,0.0,0.0,0.0,0.0,0.0,0.0,0.0,0.0,6.0461,6.0461,6.0461,6.0905,6.1079,6.106,6.1079,6.1079,6.106,6.106,6.1079,6.1099,6.1099,6.1099,6.1099,6.1099,6.1099,6.1099,6.1099,6.1099,6.1079,6.0867,6.0731,6.0635,6.0517,6.0285,6.0035,6.0017,5.9961,5.9852,5.9633,5.9568,5.9572,5.9421,5.9409,5.9465,5.9273,5.9384,5.9506,5.9506,5.9093,5.8791,5.9148,5.8939,5.8791,5.9167,5.9093,5.8977,5.9185,5.9223,5.9223,5.9223,5.9223,5.9223,5.9223,5.9223,5.9223,5.9223,5.9223,5.9148,5.8939,5.8921,5.8865,5.8716,5.8716,5.8716,5.8716,5.8489,5.8229,5.7854,5.7822,5.7644,5.7267,5.6598,5.5945,5.5225,5.4581,5.392,6.1099,0.0,6.1099,6.1099,6.1099,0.0,0.0,0.0,0.0,0.0,0.0,0.0,0.0,0.0,0.0,0.0,0.0,0.0,0.0,0.0,0.0,0.0,0.0,0.0,0.0,0.0,0.0,0.0,0.0,0.0,0.0,0.0,5.9688,5.9668,5.9668,5.9688,5.9669,6.0345,6.075,6.0905,6.1041,6.1099,6.1099,6.1099,6.1099,6.1099,6.1099,6.1099,6.1099,6.1099,6.1099,6.1099,6.1099,6.1099,6.1099,6.1099,6.1002,6.0886,6.1041,6.077,6.0384,6.05,6.0349,6.0094,6.0031,6.0018,5.9988,5.9888,5.989,5.9888,5.9824,5.9817,5.9908,5.9908,5.9402,5.9061,5.9659,5.9337,5.908,5.9659,5.9524,5.942,5.972,5.9776,5.9776,5.9776,5.9776,5.9776,5.9776,5.9776,5.9776,5.9776,5.9776,5.9626,5.9213,5.9201,5.9074,5.8735,5.8716,5.8716,5.8716,5.8716,5.8526,5.8229,5.8211,5.8021,5.7664,5.6721,5.6177,5.5987,5.5087,5.4345,0.0,0.0,6.1099,0.0,6.1099,6.1099,0.0,0.0,0.0,0.0,0.0,0.0,0.0,0.0,0.0,0.0,0.0,0.0,0.0,0.0,0.0,0.0,0.0,0.0,0.0,0.0,0.0,0.0,0.0,0.0,0.0,5.8819,5.8779,5.8774,5.8774,5.8776,5.8761,5.8896,5.9302,6.0074,6.077,6.1099,6.1099,6.1099,6.1099,6.1099,6.1099,6.1099,6.1099,6.1099,6.1099,6.1099,6.1099,6.1099,6.1099,6.1099,6.1079,6.106,6.1099,6.106,6.0963,6.0809,6.0848,6.0865,6.0539,6.0423,6.0361,6.0123,6.0195,6.022,5.9883,6.0027,6.0233,6.0233,5.9946,5.9693,5.9792,5.9711,5.9684,5.979,5.9763,5.9728,5.9792,5.9811,5.9811,5.9811,5.9811,5.9811,5.9811,5.9811,5.9811,5.9811,5.9811,5.9632,5.923,5.9208,5.9074,5.8735,5.8716,5.8716,5.8716,5.8716,5.8679,5.8642,5.8642,5.8415,5.8021,5.7531,5.688,5.5987,5.5479,5.4937,6.1099,6.1099,6.1099,0.0,6.1099,0.0,0.0,0.0,0.0,0.0,0.0,0.0,0.0,0.0,0.0,0.0,0.0,0.0,0.0,0.0,0.0,0.0,0.0,0.0,0.0,0.0,0.0,0.0,0.0,0.0,5.8623,5.8139,5.7869,5.7865,5.7865,0.0,5.787,5.8352,5.8779,5.9186,5.9534,5.9958,6.0422,6.0422,6.0654,6.1099,6.1099,6.1099,6.1099,6.1099,6.1099,6.1099,6.1099,6.1099,6.1099,6.1099,6.1099,6.1099,6.1099,6.1099,6.1099,6.1002,6.1041,6.1079,6.0905,6.0847,6.0809,6.0635,6.0669,6.0685,6.0473,6.0512,6.0589,6.0589,6.0473,6.0372,6.0376,6.0062,5.9868,6.0042,6.0223,6.0377,6.0377,6.0377,6.0377,6.0377,6.0377,6.0377,6.0377,6.0377,6.0377,6.0377,6.0377,6.02,5.9854,5.982,5.9673,5.9334,5.9111,5.8958,5.8958,5.8791,5.8716,5.8716,5.8716,5.8624,5.8415,5.7817,5.7125,5.6331,5.5697,5.5087,0.0,0.0,6.1099,6.1099,6.1099,0.0,0.0,0.0,0.0,0.0,0.0,0.0,0.0,0.0,0.0,0.0,0.0,0.0,0.0,0.0,0.0,0.0,0.0,0.0,0.0,0.0,0.0,0.0,0.0,0.0,5.7942,5.7325,5.6977,5.6977,5.6977,5.6977,5.6977,5.7826,5.8273,5.8258,5.849,5.8934,5.9571,5.9571,6.0035,6.0809,6.1021,6.1099,6.1099,6.1099,6.1099,6.1099,6.1099,6.1099,6.1099,6.1099,6.1099,6.1099,6.1099,6.1099,6.1099,6.1099,6.1099,6.1099,6.1099,6.1099,6.1099,6.1021,6.1,6.0988,6.092,6.0858,6.0819,6.08,6.08,6.08,6.08,6.0416,6.0123,6.0396,6.0627,6.08,6.08,6.08,6.08,6.08,6.08,6.08,6.08,6.08,6.08,6.08,6.08,6.0666,6.0339,6.0285,6.0153,5.9816,5.9534,5.9364,5.9357,5.913,5.8921,5.8828,5.8828,5.8791,5.8716,5.8039,5.7359,5.6556,5.5923,5.5191,0.0,6.1099,0.0,6.1099,0.0,0.0,0.0,0.0,0.0,0.0,0.0,0.0,0.0,0.0,0.0,0.0,0.0,0.0,0.0,0.0,0.0,0.0,0.0,0.0,0.0,0.0,0.0,0.0,0.0,0.0,5.6186,5.6089,5.607,5.607,5.607,5.607,5.607,5.6938,5.7364,5.7383,5.8213,5.862,5.8658,5.8658,5.9144,5.9997,6.077,6.1099,6.1099,6.1099,6.1099,6.1099,6.1099,6.1099,6.1099,6.1099,6.1099,6.1099,6.1099,6.1099,6.1099,6.1099,6.1099,6.1099,6.1099,6.1099,6.1099,6.1021,6.0983,6.0983,6.0927,6.0896,6.0877,6.0819,6.08,6.08,6.08,6.0762,6.0742,6.0762,6.0781,6.08,6.08,6.08,6.08,6.08,6.08,6.08,6.08,6.08,6.08,6.08,6.08,6.0666,6.0339,6.0311,6.0167,5.9821,5.9783,5.9778,5.9775,5.9748,5.9562,5.9185,5.9167,5.9037,5.8716,5.8452,5.7771,5.6575,5.6334,5.5646,0.0,0.0,0.0,0.0,0.0,0.0,0.0,0.0,0.0,0.0,0.0,0.0,0.0,0.0,0.0,0.0,0.0,0.0,0.0,0.0,0.0,0.0,0.0,0.0,0.0,0.0,0.0,0.0,0.0,0.0,5.6031,5.6012,5.6012,5.6012,5.6012,5.6012,5.6012,5.6302,5.6457,5.6457,5.6783,5.7209,5.7768,5.7768,5.8235,5.9086,5.9358,6.0112,6.1099,6.1099,6.1099,6.1099,6.1099,6.1099,6.1099,6.1099,6.1099,6.1099,6.1099,6.1099,6.1099,6.1099,6.1099,6.1099,6.1099,6.1099,6.1099,6.1079,6.1041,6.0983,6.0963,6.0933,6.0877,6.0819,6.08,6.08,6.08,6.08,6.08,6.08,6.08,6.08,6.08,6.08,6.08,6.08,6.08,6.08,6.08,6.08,6.08,6.08,6.08,6.0742,6.0627,6.0627,6.0569,6.0454,6.0238,6.0131,6.0121,5.9919,5.9748,5.9585,5.9328,5.9055,5.8716,5.8526,5.8012,5.7161,5.6604,5.5917,6.1099,0.0,0.0,0.0,0.0,0.0,0.0,0.0,0.0,0.0,0.0,0.0,0.0,0.0,0.0,0.0,0.0,0.0,0.0,0.0,0.0,0.0,0.0,0.0,0.0,0.0,0.0,0.0,0.0,0.0,5.6012,5.6012,5.6012,5.6012,5.6012,5.6012,5.6012,5.6012,5.6012,5.6012,5.6012,5.6302,5.6861,5.6861,5.7345,5.8175,5.8176,5.9126,6.0712,6.0712,6.0867,6.1099,6.1099,6.1099,6.1099,6.1099,6.1099,6.1099,6.1099,6.1099,6.1099,6.1099,6.1099,6.1099,6.1099,6.1099,6.1099,6.1099,6.1079,6.1041,6.1021,6.0939,6.0877,6.0819,6.08,6.08,6.08,6.08,6.08,6.08,6.08,6.08,6.08,6.08,6.08,6.08,6.08,6.08,6.08,6.08,6.08,6.08,6.08,6.08,6.08,6.08,6.08,6.08,6.0589,6.0473,6.0473,6.0238,6.0065,5.9969,5.9709,5.9347,5.8865,5.8642,5.8153,5.749,5.6958,5.6234,0.0,0.0,0.0,0.0,0.0,0.0,0.0,0.0,0.0,0.0,0.0,0.0,0.0,0.0,0.0,0.0,0.0,0.0,0.0,0.0,0.0,0.0,0.0,0.0,0.0,0.0,0.0,0.0,0.0,5.6012,5.6012,5.6012,5.6012,5.6012,5.6012,5.6012,5.6012,5.6012,5.6012,5.6012,5.6012,5.6012,5.6012,5.6012,5.6457,5.7269,5.7269,5.8237,5.9842,5.9861,6.0344,6.106,6.106,6.1079,6.1099,6.1099,6.1099,6.1099,6.1099,6.1099,6.1099,6.1099,6.1099,6.1099,6.1099,6.1099,6.1099,6.1099,6.1099,6.1079,6.1021,6.0939,6.0877,6.0819,6.08,6.08,6.08,6.08,6.08,6.08,6.08,6.08,6.08,6.08,6.08,6.08,6.08,6.08,6.08,6.08,6.08,6.08,6.08,6.08,6.08,6.08,6.08,6.08,6.08,6.08,6.08,6.08,6.0646,6.0339,6.0319,5.994,5.9231,5.8735,5.8192,5.7534,5.7379,5.6631,6.1169,0.0,0.0,0.0,0.0,0.0,0.0,0.0,0.0,0.0,0.0,0.0,0.0,0.0,0.0,0.0,0.0,0.0,0.0,0.0,0.0,0.0,0.0,0.0,0.0,0.0,0.0,0.0,5.6012,5.6012,5.6012,5.6012,5.6012,5.6012,5.6012,5.6012,5.6012,5.6012,5.6012,5.6012,5.6012,5.6012,5.6012,5.6012,5.6128,5.636,5.636,5.6998,5.8062,5.87,5.9455,6.0228,6.0228,6.0596,6.1099,6.1099,6.1099,6.1099,6.1099,6.1099,6.1099,6.1099,6.1099,6.1099,6.1099,6.1099,6.1099,6.1099,6.1099,6.1079,6.1021,6.0939,6.0877,6.0819,6.08,6.08,6.08,6.08,6.08,6.08,6.0877,6.0896,6.0819,6.0877,6.0935,6.0935,6.0935,6.0973,6.1093,6.1093,6.1093,6.1093,6.1093,6.1093,6.1093,6.0993,6.0935,6.0935,6.0839,6.08,6.08,6.08,6.0762,6.0666,6.0435,6.0213,5.9989,5.9309,5.8716,5.8113,5.7471,5.6757,6.1259,6.1275,0.0,0.0,0.0,0.0,0.0,6.1118,0.0,0.0,0.0,0.0,0.0,0.0,0.0,0.0,0.0,0.0,0.0,0.0,0.0,0.0,0.0,0.0,0.0,0.0,0.0,0.0,5.6205,5.6012,5.6012,5.6012,5.6012,5.6012,5.6012,5.6012,5.6012,5.6012,5.6012,5.6012,5.6012,5.6012,5.6012,5.6012,5.6012,5.6012,5.6012,5.6283,5.6803,5.7308,5.8449,5.9899,5.9899,6.0402,6.1099,6.1099,6.1099,6.1099,6.1099,6.1099,6.1099,6.1099,6.1099,6.1099,6.1099,6.1099,6.1099,6.1099,6.1099,6.1079,6.1021,6.0959,6.0916,6.0819,6.08,6.08,6.08,6.0839,6.0858,6.08,6.0896,6.0974,6.0893,6.0983,6.1093,6.1093,6.108,6.1112,6.119,6.1209,6.1209,6.1209,6.1209,6.1209,6.1209,6.1093,6.0999,6.102,6.0858,6.08,6.08,6.08,6.08,6.08,6.0608,6.0454,6.0296,5.9547,5.8911,5.8381,5.7547,5.6998,6.1365,6.1403,6.1399,0.0,0.0,0.0,6.1233,6.1176,6.1137,0.0,0.0,0.0,0.0,0.0,0.0,0.0,0.0,0.0,0.0,0.0,0.0,0.0,0.0,0.0,0.0,0.0,5.8236,5.7366,5.6495,5.6012,5.6012,5.6012,5.6012,5.6012,5.6012,5.6012,5.6012,5.6012,5.6012,5.6012,5.6012,5.6012,5.6012,5.6012,5.6012,5.6012,5.6012,5.6012,5.6012,5.6012,5.7482,5.9745,5.9765,6.0306,6.1099,6.1118,6.1118,6.1099,6.1118,6.1118,6.1099,6.1099,6.1099,6.1099,6.1099,6.1099,6.1099,6.1099,6.1118,6.1099,6.1021,6.1017,6.0973,6.0858,6.0819,6.0819,6.0839,6.0935,6.1,6.0858,6.0946,6.1061,6.1029,6.1128,6.1248,6.1248,6.1219,6.1252,6.1252,6.1271,6.1271,6.1271,6.1271,6.1271,6.1271,6.1134,6.1052,6.1023,6.0896,6.0819,6.08,6.08,6.08,6.08,6.08,6.0646,6.0296,5.9547,5.8937,5.8465,5.774,5.7317,0.0,0.0,0.0,0.0,0.0,0.0,6.1365,6.135,6.1331,0.0,0.0,0.0,0.0,0.0,0.0,0.0,0.0,0.0,0.0,0.0,0.0,0.0,0.0,0.0,0.0,0.0,5.8237,5.7383,5.6495,5.6012,5.6012,5.6012,5.6012,5.6012,5.6012,5.6012,5.6012,5.6012,5.6012,5.6012,5.6012,5.6012,5.6012,5.6012,5.6012,5.6012,5.6012,5.6012,5.6012,5.6012,5.7132,5.8852,5.8854,5.9764,6.1118,6.1215,6.1195,6.1118,6.1215,6.1195,6.1099,6.1099,6.1099,6.1099,6.1099,6.1099,6.1099,6.1099,6.1176,6.1215,6.106,6.1036,6.105,6.1031,6.0993,6.0973,6.1112,6.1151,6.1156,6.1119,6.1278,6.1351,6.1185,6.1329,6.1439,6.1439,6.1433,6.1486,6.1583,6.1603,6.1603,6.1603,6.1603,6.1603,6.1603,6.1486,6.1325,6.1158,6.1031,6.0896,6.08,6.08,6.08,6.08,6.08,6.0646,6.0296,5.951,5.9088,5.8924,5.8307,5.7997,0.0,0.0,0.0,6.1559,0.0,0.0,0.0,6.1419,6.14,0.0,0.0,0.0,0.0,0.0,0.0,0.0,0.0,0.0,0.0,0.0,0.0,0.0,0.0,0.0,0.0,0.0,5.8721,5.7403,5.6476,5.6012,5.6012,5.6012,5.6012,5.6012,5.6012,5.6012,5.6012,5.6012,5.6012,5.6012,5.6012,5.6012,5.6012,5.6012,5.6012,5.6012,5.6012,5.6012,5.6012,5.6012,5.7054,5.8639,5.8662,5.9707,6.1253,6.1331,6.132,6.1255,6.1326,6.1311,6.1253,6.1253,6.1234,6.1195,6.1195,6.1195,6.1215,6.1234,6.1292,6.1324,6.1176,6.1167,6.1208,6.1193,6.1157,6.1167,6.1186,6.1283,6.1343,6.1342,6.149,6.155,6.1387,6.1486,6.1603,6.1603,6.1603,6.1622,6.1701,6.1701,6.1701,6.1701,6.1701,6.1701,6.1701,6.1583,6.1471,6.1356,6.1195,6.1031,6.0896,6.0896,6.0858,6.08,6.08,6.0723,6.055,5.9968,5.9491,5.9111,5.856,5.826,0.0,0.0,0.0,0.0,0.0,6.1529,0.0,0.0,0.0,0.0,0.0,0.0,0.0,0.0,0.0,0.0,0.0,0.0,0.0,0.0,0.0,0.0,0.0,0.0,0.0,0.0,5.8992,5.7422,5.6476,5.6012,5.6012,5.6012,5.6012,5.6012,5.6012,5.6012,5.6012,5.6012,5.6012,5.6012,5.6012,5.6012,5.6012,5.6012,5.6012,5.6012,5.6031,5.6051,5.6051,5.6051,5.7112,5.8753,5.8719,5.9813,6.1399,6.1419,6.1414,6.1392,6.143,6.1408,6.1406,6.1407,6.1358,6.1311,6.1311,6.1322,6.1322,6.138,6.1419,6.1415,6.1336,6.1327,6.133,6.1348,6.1348,6.133,6.131,6.1427,6.1544,6.1544,6.1622,6.1681,6.1564,6.1622,6.1701,6.1701,6.1701,6.1701,6.1701,6.1701,6.1701,6.1701,6.1701,6.1701,6.1701,6.1603,6.1525,6.1505,6.1308,6.1157,6.1002,6.0991,6.0896,6.08,6.08,6.08,6.08,6.0473,5.993,5.9223,5.8754,5.8425,0.0,0.0,0.0,0.0,6.1588,0.0,0.0,0.0,0.0,0.0,0.0,0.0,0.0,0.0,0.0,0.0,0.0,0.0,0.0,0.0,0.0,0.0,0.0,0.0,0.0,0.0,0.0,5.7364,5.6476,5.6012,5.6012,5.6012,5.6012,5.6012,5.6012,5.6012,5.6012,5.6012,5.6012,5.6012,5.6012,5.6012,5.6012,5.6012,5.6012,5.6012,5.6128,5.6186,5.6186,5.6244,5.7325,5.8939,5.876,5.9817,6.1418,6.1536,6.1498,6.1414,6.1546,6.1485,6.14,6.1406,6.1383,6.1389,6.1389,6.1401,6.1399,6.1399,6.1497,6.1557,6.1425,6.1423,6.1494,6.155,6.1518,6.1505,6.1622,6.1661,6.1681,6.1681,6.1701,6.1701,6.1681,6.1701,6.1701,6.1701,6.1701,6.1701,6.1701,6.1701,6.1701,6.1701,6.1701,6.1701,6.1701,6.1701,6.1622,6.1505,6.1303,6.1146,6.101,6.0881,6.0819,6.08,6.08,6.08,6.08,6.0473,6.0102,5.9711,5.9241,5.8801,0.0,0.0,0.0,0.0,0.0,0.0,6.1607,0.0,6.1607,0.0,0.0,0.0,0.0,0.0,0.0,0.0,0.0,0.0,0.0,0.0,0.0,0.0,0.0,0.0,0.0,0.0,0.0,0.0,0.0,5.6515,5.6031,5.6012,5.6012,5.6012,5.6012,5.6012,5.6012,5.6012,5.6012,5.6012,5.6012,5.6012,5.6012,5.6012,5.6012,5.6012,5.6147,5.6207,5.6215,5.6267,5.7364,5.8994,5.8909,5.998,6.1582,6.164,6.1621,6.1581,6.1634,6.1612,6.1576,6.1538,6.1522,6.1514,6.1514,6.1514,6.1523,6.1562,6.1601,6.164,6.1582,6.1582,6.1621,6.164,6.1631,6.1622,6.1701,6.1701,6.1701,6.1701,6.1701,6.1701,6.1701,6.1701,6.1701,6.1701,6.1701,6.1701,6.1701,6.1701,6.1701,6.1701,6.1701,6.1701,6.1701,6.1701,6.1681,6.1622,6.1456,6.1306,6.1132,6.1,6.0877,6.08,6.08,6.08,6.08,6.0666,6.0425,6.0083,5.9402,5.9102,6.1607,0.0,0.0,0.0,0.0,0.0,0.0,0.0,0.0,0.0,0.0,0.0,0.0,0.0,0.0,0.0,0.0,0.0,0.0,0.0,0.0,0.0,0.0,0.0,0.0,0.0,0.0,0.0,5.7925,0.0,5.6379,5.6128,5.6012,5.6012,5.6012,5.6012,5.6012,5.6012,5.6012,5.6012,5.6012,5.6012,5.6012,5.6012,5.6012,5.6012,5.6167,5.623,5.6249,5.6329,5.7288,5.8717,5.8964,5.998,6.1367,6.1601,6.1699,6.1699,6.1699,6.1699,6.1699,6.164,6.1621,6.1621,6.1621,6.1621,6.164,6.1699,6.1699,6.1699,6.1699,6.1699,6.1699,6.1699,6.1694,6.1694,6.1701,6.1701,6.1701,6.1701,6.1701,6.1701,6.1701,6.1701,6.1701,6.1701,6.1701,6.1701,6.1701,6.1701,6.1701,6.1701,6.1701,6.1701,6.1701,6.1701,6.1681,6.1642,6.1557,6.1406,6.1213,6.1073,6.0935,6.0858,6.0819,6.08,6.08,6.08,6.0666,6.0431,5.9734,5.9402,0.0,0.0,0.0,6.1594,0.0,0.0,0.0,0.0,6.1607,0.0,0.0,0.0,0.0,0.0,6.1315,6.0468,0.0,0.0,0.0,0.0,0.0,0.0,0.0,0.0,0.0,0.0,0.0,0.0,5.8275,0.0,5.7248,5.6457,5.6012,5.6012,5.6012,5.6012,5.6012,5.6012,5.6012,5.6012,5.6012,5.6012,5.6012,5.6012,5.6012,5.6012,5.6205,5.6289,5.6308,5.6504,5.7128,5.8027,5.8867,5.9707,6.0547,6.1387,6.1699,6.1699,6.1699,6.1699,6.1699,6.1699,6.1699,6.1699,6.1699,6.1699,6.1699,6.1699,6.1699,6.1699,6.1699,6.1699,6.1699,6.1699,6.1699,6.1698,6.1709,6.1701,6.1701,6.1701,6.1701,6.1701,6.1701,6.1701,6.1701,6.1701,6.1701,6.1701,6.1701,6.1701,6.1701,6.1701,6.1701,6.1701,6.1701,6.1701,6.1642,6.1505,6.1495,6.1417,6.1217,6.107,6.0993,6.0973,6.0858,6.08,6.08,6.08,6.0781,6.0781,6.0407,5.9764,0.0,0.0,6.1654,6.1612,0.0,0.0,0.0,0.0,0.0,0.0,0.0,0.0,0.0,0.0,6.149,6.1218,6.1412,0.0,0.0,0.0,0.0,0.0,0.0,0.0,0.0,0.0,0.0,5.9939,5.8837,5.7909,0.0,5.6457,5.6012,5.6012,5.6012,5.6012,5.6012,5.6012,5.6012,5.6012,5.6012,5.6012,5.6012,5.6012,5.6051,5.6147,5.6244,5.6347,5.6445,5.6543,5.7109,5.793,5.8223,5.918,6.0508,6.1387,6.1699,6.1699,6.1699,6.1699,6.1699,6.1699,6.1699,6.1699,6.1699,6.1699,6.1699,6.1699,6.1699,6.1699,6.1699,6.1699,6.1699,6.1699,6.1699,6.1699,6.1695,6.1694,6.169,6.1705,6.1701,6.1701,6.1701,6.1701,6.1701,6.1701,6.1701,6.1701,6.1701,6.1701,6.1701,6.1701,6.1701,6.1701,6.1701,6.1701,6.1681,6.1642,6.1622,6.1564,6.1408,6.1236,6.1085,6.0997,6.0858,6.08,6.08,6.08,6.08,6.08,6.0685,6.0316,6.1642,6.1679,0.0,6.1627,6.1602,0.0,6.1607,0.0,0.0,0.0,0.0,0.0,0.0,0.0,6.1607,6.1607,6.1607,6.1607,0.0,0.0,0.0,0.0,0.0,0.0,0.0,0.0,6.0944,6.0364,5.9534,5.8682,0.0,0.0,5.6321,5.6012,5.6012,5.6012,5.6012,5.6012,5.6012,5.6012,5.6012,5.6012,5.6012,5.6012,5.607,5.6203,5.6272,5.6374,5.6504,5.6562,5.6933,5.7461,5.7773,5.8555,5.9648,6.0801,6.1426,6.1699,6.1699,6.1699,6.1699,6.1699,6.1699,6.1699,6.1699,6.1699,6.1699,6.1699,6.1699,6.1699,6.1699,6.1699,6.1699,6.1699,6.1699,6.1699,6.1699,6.1699,6.1698,6.1707,6.169,6.1701,6.1701,6.1701,6.1701,6.1701,6.1701,6.1701,6.1701,6.1701,6.1701,6.1701,6.1701,6.1701,6.1701,6.1701,6.1701,6.1701,6.1701,6.1661,6.1564,6.133,6.1158,6.1054,6.0877,6.08,6.08,6.08,6.08,6.08,6.08,6.0608]},{"header":{"parameterUnit":"m.s-1","parameterCategory":1,"la1":30.6,"la2":29.2853,"lo1":-89.7004,"lo2":-87.6739,"dy":0.0162,"dx":0.0183,"nx":112,"ny":82,"refTime":"2023-03-22T18:00:00:Z","depth":0,"parameterNumber":3,"parameterNumberName":"V-component_of_WINDS"},"data":[0.0,0.0,0.0,0.0,0.0,0.0,0.0,0.0,0.0,0.0,0.0,0.0,0.0,0.0,0.0,0.0,0.0,0.0,0.0,0.0,0.0,0.0,0.0,0.0,0.0,0.0,0.0,0.0,0.0,0.0,0.0,0.0,0.0,0.0,0.0,0.0,0.0,0.0,0.0,0.0,0.0,0.0,0.0,0.0,0.0,0.0,0.0,0.0,0.0,0.0,0.0,0.0,0.0,0.0,0.0,0.0,0.0,0.0,0.0,0.0,0.0,0.0,0.0,0.0,0.0,0.0,0.0,0.0,0.0,0.0,0.0,0.0,0.0,0.0,0.0,0.0,0.0,0.0,0.0,0.0,0.0,0.0,0.0,0.0,0.0,0.0,0.0,0.0,0.0,0.0,0.0,-2.4152,-2.4152,-2.4152,-2.4152,-2.4152,-2.4152,-2.4152,0.0,0.0,0.0,0.0,0.0,0.0,0.0,0.0,0.0,0.0,0.0,0.0,0.0,0.0,0.0,0.0,0.0,0.0,0.0,0.0,0.0,0.0,0.0,0.0,0.0,0.0,0.0,0.0,0.0,0.0,0.0,0.0,0.0,0.0,0.0,0.0,0.0,0.0,0.0,0.0,0.0,0.0,0.0,0.0,0.0,0.0,0.0,0.0,0.0,0.0,0.0,0.0,0.0,0.0,0.0,0.0,0.0,0.0,0.0,0.0,0.0,0.0,0.0,0.0,0.0,0.0,0.0,0.0,0.0,0.0,0.0,0.0,0.0,0.0,0.0,0.0,0.0,0.0,0.0,0.0,0.0,0.0,0.0,0.0,0.0,0.0,0.0,0.0,0.0,0.0,0.0,0.0,0.0,0.0,0.0,0.0,0.0,0.0,0.0,0.0,0.0,0.0,0.0,0.0,-2.4152,-2.4152,-2.4152,-2.4152,-2.4152,-2.4152,-2.4152,-2.4152,0.0,0.0,0.0,0.0,0.0,0.0,0.0,0.0,0.0,0.0,0.0,0.0,0.0,0.0,0.0,0.0,0.0,0.0,0.0,0.0,0.0,0.0,0.0,0.0,0.0,0.0,0.0,0.0,0.0,0.0,0.0,0.0,0.0,0.0,0.0,0.0,0.0,0.0,0.0,0.0,0.0,0.0,0.0,0.0,0.0,0.0,0.0,0.0,0.0,0.0,0.0,0.0,0.0,0.0,0.0,0.0,0.0,0.0,0.0,0.0,0.0,0.0,0.0,0.0,0.0,0.0,0.0,0.0,0.0,0.0,0.0,0.0,0.0,0.0,0.0,0.0,0.0,0.0,0.0,0.0,0.0,0.0,0.0,0.0,0.0,0.0,0.0,0.0,0.0,0.0,0.0,0.0,0.0,0.0,0.0,0.0,0.0,0.0,0.0,0.0,0.0,0.0,0.0,-2.3438,-2.3538,-2.4152,-2.4152,-2.4152,-2.4152,-2.4152,-2.4152,-2.4152,-2.4152,0.0,0.0,0.0,0.0,0.0,0.0,0.0,0.0,0.0,0.0,0.0,0.0,0.0,0.0,0.0,0.0,0.0,0.0,0.0,0.0,0.0,0.0,0.0,0.0,0.0,0.0,0.0,0.0,0.0,0.0,0.0,0.0,0.0,0.0,0.0,0.0,0.0,0.0,0.0,0.0,0.0,0.0,0.0,0.0,0.0,0.0,0.0,0.0,0.0,0.0,0.0,0.0,0.0,0.0,0.0,0.0,0.0,0.0,0.0,0.0,0.0,0.0,0.0,0.0,0.0,0.0,0.0,0.0,0.0,0.0,0.0,0.0,0.0,0.0,0.0,0.0,0.0,0.0,0.0,0.0,0.0,0.0,0.0,0.0,0.0,0.0,0.0,0.0,0.0,0.0,0.0,0.0,0.0,0.0,0.0,0.0,0.0,0.0,0.0,0.0,0.0,0.0,-2.3129,-2.3238,-2.4152,-2.4152,-2.4152,-2.4152,-2.4152,-2.4152,-2.4152,-2.4152,0.0,0.0,0.0,0.0,0.0,0.0,0.0,0.0,0.0,0.0,0.0,0.0,0.0,0.0,0.0,0.0,0.0,0.0,0.0,0.0,0.0,0.0,0.0,0.0,0.0,0.0,0.0,0.0,0.0,0.0,0.0,0.0,0.0,0.0,0.0,0.0,0.0,0.0,0.0,0.0,0.0,0.0,0.0,0.0,0.0,0.0,0.0,0.0,0.0,0.0,0.0,0.0,0.0,0.0,0.0,0.0,0.0,0.0,0.0,0.0,0.0,0.0,0.0,0.0,0.0,0.0,0.0,0.0,0.0,0.0,0.0,0.0,0.0,0.0,0.0,0.0,0.0,0.0,0.0,0.0,0.0,0.0,0.0,0.0,0.0,0.0,0.0,0.0,0.0,0.0,0.0,0.0,0.0,0.0,0.0,0.0,0.0,0.0,0.0,0.0,0.0,0.0,-2.4143,-2.4152,-2.4152,-2.4152,-2.4152,-2.4152,-2.4152,-2.4152,-2.4152,-2.4152,0.0,0.0,0.0,0.0,0.0,0.0,0.0,0.0,0.0,0.0,0.0,0.0,0.0,0.0,0.0,0.0,0.0,0.0,0.0,0.0,0.0,0.0,0.0,0.0,0.0,0.0,0.0,0.0,0.0,0.0,0.0,0.0,0.0,0.0,0.0,0.0,0.0,0.0,0.0,0.0,0.0,0.0,0.0,0.0,0.0,0.0,0.0,0.0,0.0,0.0,0.0,0.0,0.0,0.0,0.0,0.0,0.0,0.0,0.0,0.0,0.0,0.0,0.0,0.0,0.0,0.0,0.0,0.0,0.0,0.0,0.0,0.0,0.0,0.0,0.0,0.0,0.0,0.0,0.0,0.0,0.0,0.0,0.0,0.0,0.0,0.0,0.0,0.0,0.0,0.0,0.0,0.0,0.0,0.0,0.0,0.0,0.0,0.0,0.0,0.0,0.0,0.0,-2.2929,-2.3438,0.0,-2.4152,-2.4152,-2.4152,-2.4152,-2.4152,-2.4152,0.0,0.0,0.0,0.0,0.0,0.0,0.0,0.0,0.0,0.0,0.0,0.0,0.0,0.0,0.0,0.0,0.0,0.0,0.0,0.0,0.0,0.0,0.0,0.0,0.0,0.0,0.0,0.0,0.0,0.0,0.0,0.0,0.0,0.0,0.0,0.0,0.0,0.0,0.0,0.0,0.0,0.0,0.0,0.0,0.0,0.0,0.0,0.0,0.0,0.0,0.0,0.0,0.0,0.0,0.0,0.0,0.0,0.0,0.0,0.0,0.0,0.0,0.0,0.0,0.0,0.0,0.0,0.0,0.0,0.0,0.0,0.0,0.0,0.0,0.0,0.0,0.0,0.0,0.0,0.0,0.0,0.0,0.0,0.0,0.0,0.0,0.0,0.0,0.0,0.0,0.0,0.0,0.0,0.0,0.0,0.0,0.0,0.0,0.0,0.0,0.0,0.0,-2.1996,-2.2619,-2.3338,0.0,-2.4152,-2.4152,-2.4152,-2.4152,-2.4152,-2.4152,0.0,0.0,0.0,0.0,0.0,0.0,0.0,0.0,0.0,0.0,0.0,0.0,0.0,0.0,0.0,0.0,0.0,0.0,0.0,0.0,0.0,0.0,0.0,0.0,0.0,0.0,0.0,0.0,0.0,0.0,0.0,0.0,0.0,0.0,0.0,0.0,0.0,0.0,0.0,0.0,0.0,0.0,0.0,0.0,0.0,0.0,0.0,0.0,0.0,0.0,0.0,0.0,0.0,0.0,0.0,0.0,0.0,0.0,0.0,0.0,0.0,0.0,0.0,0.0,0.0,0.0,0.0,0.0,0.0,0.0,0.0,0.0,0.0,0.0,0.0,0.0,0.0,0.0,0.0,0.0,0.0,0.0,0.0,0.0,0.0,0.0,0.0,0.0,0.0,0.0,0.0,0.0,0.0,0.0,0.0,0.0,0.0,0.0,0.0,0.0,0.0,0.0,-2.2526,-2.3447,-2.4152,-2.4152,-2.4152,-2.4152,-2.4152,-2.4152,-2.4152,0.0,0.0,0.0,0.0,0.0,0.0,0.0,0.0,0.0,0.0,0.0,0.0,0.0,0.0,0.0,0.0,0.0,0.0,0.0,0.0,0.0,0.0,0.0,0.0,0.0,0.0,0.0,0.0,0.0,0.0,0.0,0.0,0.0,0.0,0.0,0.0,0.0,0.0,0.0,0.0,0.0,0.0,0.0,0.0,0.0,0.0,0.0,0.0,0.0,0.0,0.0,0.0,0.0,0.0,0.0,0.0,0.0,0.0,0.0,0.0,0.0,0.0,0.0,0.0,0.0,0.0,0.0,0.0,0.0,0.0,0.0,0.0,0.0,0.0,0.0,0.0,0.0,0.0,0.0,0.0,0.0,0.0,0.0,0.0,0.0,0.0,0.0,0.0,0.0,0.0,0.0,0.0,0.0,0.0,0.0,0.0,0.0,0.0,0.0,0.0,0.0,0.0,0.0,-2.1497,-2.3029,-2.4152,-2.4152,-2.4152,-2.4152,-2.4152,-2.4152,-2.4152,-2.4152,0.0,0.0,0.0,0.0,0.0,0.0,0.0,0.0,0.0,0.0,0.0,0.0,0.0,0.0,0.0,0.0,0.0,0.0,0.0,0.0,0.0,0.0,0.0,0.0,0.0,0.0,0.0,0.0,0.0,0.0,0.0,0.0,0.0,0.0,0.0,0.0,0.0,0.0,0.0,0.0,0.0,0.0,0.0,0.0,0.0,0.0,0.0,0.0,0.0,0.0,0.0,0.0,0.0,0.0,0.0,0.0,0.0,0.0,0.0,0.0,0.0,0.0,0.0,0.0,0.0,0.0,0.0,0.0,0.0,0.0,0.0,0.0,0.0,0.0,0.0,0.0,0.0,0.0,0.0,0.0,0.0,0.0,0.0,0.0,0.0,0.0,0.0,0.0,0.0,0.0,0.0,0.0,0.0,0.0,0.0,0.0,0.0,0.0,0.0,0.0,0.0,0.0,-2.1599,-2.3129,-2.4152,-2.4152,-2.4152,-2.4152,-2.4152,-2.4152,-2.4152,-2.4152,0.0,0.0,0.0,0.0,0.0,0.0,0.0,0.0,0.0,0.0,0.0,0.0,0.0,0.0,0.0,0.0,0.0,0.0,0.0,0.0,0.0,0.0,0.0,0.0,0.0,0.0,0.0,0.0,0.0,0.0,0.0,0.0,0.0,0.0,0.0,0.0,0.0,0.0,0.0,0.0,0.0,0.0,0.0,0.0,0.0,0.0,0.0,0.0,0.0,0.0,0.0,0.0,0.0,0.0,0.0,0.0,0.0,0.0,0.0,0.0,0.0,0.0,0.0,0.0,0.0,0.0,0.0,0.0,0.0,0.0,0.0,0.0,0.0,0.0,0.0,0.0,0.0,0.0,0.0,0.0,0.0,0.0,0.0,0.0,0.0,0.0,0.0,0.0,0.0,0.0,0.0,0.0,0.0,0.0,0.0,0.0,0.0,0.0,0.0,0.0,0.0,0.0,-2.2426,-2.3438,-2.4152,-2.4152,-2.4152,-2.4152,-2.4152,-2.4152,-2.4152,-2.4152,0.0,0.0,0.0,0.0,0.0,0.0,0.0,0.0,0.0,0.0,0.0,0.0,0.0,0.0,0.0,0.0,0.0,0.0,0.0,0.0,0.0,0.0,0.0,0.0,0.0,0.0,0.0,0.0,0.0,0.0,0.0,0.0,0.0,0.0,0.0,0.0,0.0,0.0,0.0,0.0,0.0,0.0,0.0,0.0,0.0,0.0,0.0,0.0,0.0,0.0,0.0,0.0,0.0,0.0,0.0,0.0,0.0,0.0,0.0,0.0,-2.2636,0.0,0.0,0.0,0.0,0.0,0.0,0.0,0.0,0.0,0.0,0.0,0.0,0.0,0.0,0.0,0.0,0.0,0.0,0.0,0.0,0.0,0.0,0.0,0.0,0.0,0.0,0.0,0.0,0.0,0.0,0.0,0.0,0.0,0.0,0.0,0.0,0.0,0.0,0.0,0.0,0.0,-2.1895,-2.3229,-2.4152,-2.4152,-2.4152,-2.4152,-2.4152,-2.4152,-2.4152,-2.4152,0.0,0.0,0.0,0.0,0.0,0.0,0.0,0.0,0.0,0.0,0.0,0.0,0.0,0.0,0.0,0.0,0.0,0.0,0.0,0.0,0.0,0.0,0.0,0.0,0.0,0.0,0.0,0.0,0.0,0.0,0.0,0.0,0.0,0.0,0.0,0.0,0.0,0.0,0.0,0.0,0.0,0.0,0.0,0.0,0.0,0.0,0.0,0.0,0.0,0.0,0.0,0.0,0.0,0.0,0.0,0.0,0.0,0.0,0.0,0.0,0.0,-2.2775,0.0,0.0,0.0,0.0,0.0,0.0,0.0,0.0,0.0,0.0,0.0,0.0,0.0,0.0,0.0,0.0,0.0,0.0,0.0,0.0,0.0,0.0,0.0,0.0,0.0,0.0,0.0,0.0,0.0,0.0,0.0,0.0,0.0,0.0,0.0,0.0,0.0,0.0,0.0,0.0,-2.2748,-2.3609,-2.4152,-2.4152,-2.4152,-2.4152,-2.4152,-2.4152,-2.4152,-2.4152,-2.4152,0.0,0.0,0.0,0.0,0.0,0.0,0.0,0.0,0.0,0.0,0.0,0.0,0.0,0.0,0.0,0.0,0.0,0.0,0.0,0.0,0.0,0.0,0.0,0.0,0.0,0.0,0.0,0.0,0.0,0.0,0.0,0.0,0.0,0.0,0.0,0.0,0.0,0.0,0.0,0.0,0.0,0.0,0.0,0.0,0.0,0.0,0.0,0.0,0.0,0.0,0.0,0.0,0.0,0.0,-2.298,-2.2997,-2.3957,-2.4316,-2.4202,-2.3522,-2.3634,-2.4177,0.0,0.0,0.0,0.0,0.0,0.0,0.0,0.0,0.0,0.0,0.0,0.0,0.0,0.0,0.0,0.0,0.0,0.0,0.0,0.0,0.0,0.0,0.0,0.0,0.0,-2.1452,-2.0696,0.0,0.0,0.0,0.0,0.0,0.0,0.0,0.0,0.0,0.0,0.0,0.0,-2.3542,-2.4072,-2.4152,-2.4152,-2.4152,-2.4152,-2.4152,-2.4152,-2.4152,-2.4152,-2.4152,-2.4152,0.0,0.0,0.0,0.0,0.0,0.0,0.0,0.0,0.0,0.0,0.0,0.0,0.0,0.0,0.0,0.0,0.0,0.0,0.0,0.0,0.0,0.0,0.0,0.0,0.0,0.0,0.0,0.0,0.0,0.0,0.0,0.0,-1.5811,-1.5762,0.0,0.0,0.0,0.0,0.0,0.0,0.0,0.0,0.0,0.0,0.0,0.0,0.0,0.0,-2.102,-2.1923,-2.2783,-2.3609,-2.4575,-2.5063,-2.5063,-2.5917,-2.5955,-2.5549,-2.5862,0.0,-2.456,-2.421,0.0,0.0,0.0,0.0,0.0,0.0,0.0,0.0,0.0,0.0,0.0,0.0,0.0,0.0,0.0,0.0,0.0,0.0,0.0,0.0,0.0,0.0,-2.4099,-2.3817,-2.3761,-2.3669,0.0,-2.3141,-2.2373,-1.9903,0.0,0.0,0.0,0.0,0.0,0.0,0.0,0.0,-2.2507,-2.3601,-2.4152,-2.4152,-2.4152,-2.4152,-2.4152,-2.4152,-2.4152,-2.4152,-2.4152,-2.4152,-2.4152,-2.4152,0.0,0.0,0.0,0.0,0.0,0.0,0.0,0.0,0.0,0.0,0.0,0.0,0.0,0.0,0.0,0.0,0.0,0.0,0.0,0.0,0.0,0.0,0.0,0.0,0.0,0.0,0.0,0.0,0.0,-1.7095,-1.6997,-1.6025,-1.7529,-1.9265,0.0,0.0,0.0,0.0,0.0,0.0,0.0,0.0,0.0,-2.2673,-2.2705,-2.2728,-2.2749,-2.2449,-2.2766,-2.3728,-2.4668,-2.5023,-2.5032,-2.5693,-2.5765,-2.5622,-2.627,-2.6027,-2.5156,-2.4783,-2.4497,-2.4256,0.0,0.0,0.0,0.0,0.0,-2.4081,-2.4624,0.0,0.0,0.0,0.0,0.0,0.0,0.0,0.0,0.0,0.0,0.0,0.0,0.0,0.0,-2.3945,-2.4189,-2.4217,-2.4199,-2.4198,-2.3812,0.0,-2.1399,-2.0759,-2.155,0.0,0.0,0.0,0.0,0.0,-2.3344,-2.39,-2.4152,-2.4152,-2.4152,-2.4152,-2.4152,-2.4152,-2.4152,-2.4152,-2.4152,-2.4152,-2.4152,-2.4152,-2.4152,0.0,0.0,0.0,0.0,0.0,0.0,0.0,0.0,0.0,0.0,0.0,0.0,0.0,0.0,0.0,0.0,0.0,0.0,0.0,0.0,0.0,0.0,0.0,0.0,0.0,0.0,0.0,0.0,-1.8137,-1.8095,-1.7261,-1.9376,-2.0917,0.0,0.0,0.0,0.0,0.0,0.0,-2.1747,-2.1577,-2.247,-2.4724,-2.5149,-2.4818,-2.3926,-2.2814,-2.2855,-2.4063,-2.4616,-2.5107,-2.5242,-2.5555,-2.5753,-2.5762,-2.6354,-2.6245,-2.5652,-2.5198,-2.5025,-2.4956,-2.4377,-2.4226,-2.4342,-2.4565,-2.4565,-2.4676,-2.5459,-2.5569,-2.5459,-2.5679,0.0,-2.5154,-2.4393,0.0,0.0,0.0,0.0,-2.3328,-2.2881,0.0,-2.2273,-2.3817,-2.3932,-2.3833,-2.4179,-2.3794,-2.3054,0.0,-2.28,-2.3528,-2.4137,0.0,0.0,0.0,0.0,-2.419,-2.4217,-2.4172,-2.4152,-2.4152,-2.418,-2.4198,-2.4198,-2.4198,-2.4198,-2.4198,-2.417,-2.4152,-2.4152,-2.4152,-2.4152,-2.4152,0.0,0.0,0.0,0.0,0.0,0.0,0.0,0.0,0.0,0.0,0.0,0.0,0.0,0.0,0.0,0.0,0.0,0.0,0.0,0.0,0.0,0.0,0.0,0.0,0.0,0.0,0.0,0.0,0.0,-2.0467,-2.0814,0.0,0.0,0.0,0.0,-2.0891,-2.0917,-2.1843,-2.393,-2.3355,-2.3972,-2.6407,-2.7495,-2.6492,-2.3137,-2.3004,-2.3776,-2.5344,-2.5371,-2.5735,-2.6455,-2.6573,-2.6582,-2.6582,-2.6591,-2.6245,-2.5688,-2.5661,-2.5,-2.4024,-2.3896,-2.356,-2.3127,-2.3689,-2.3913,-2.4136,-2.5238,-2.5348,-2.4898,-2.5459,-2.5051,-2.4315,-2.4614,-2.3987,0.0,0.0,-2.2958,-2.2994,-2.3045,-2.3174,-2.3428,-2.4069,-2.3385,-2.2883,-2.3947,-2.2536,-2.0157,0.0,-1.891,-2.1694,-2.3824,0.0,-2.1558,-2.3518,-2.3998,-2.4226,-2.4207,-2.4161,-2.4152,-2.4152,-2.4244,-2.4208,-2.4208,-2.4208,-2.4208,-2.4208,-2.4207,-2.4152,-2.4152,-2.4152,-2.4152,-2.4152,-2.4152,0.0,0.0,0.0,0.0,0.0,0.0,0.0,0.0,0.0,0.0,0.0,0.0,0.0,0.0,0.0,0.0,0.0,0.0,0.0,0.0,0.0,0.0,0.0,0.0,0.0,0.0,0.0,0.0,-2.0814,-2.0925,0.0,0.0,-2.1753,-2.2253,-2.222,-2.2476,-2.3851,-2.6712,-2.5862,-2.4969,-2.4349,-2.4703,-2.501,-2.5282,-2.5051,-2.516,-2.5714,-2.6291,-2.6806,-2.7041,-2.7492,-2.7609,-2.7609,-2.7413,-2.7295,-2.7276,-2.6109,-2.5238,-2.4462,-2.4462,-2.4342,-2.4231,-2.4454,-2.4462,-2.4565,-2.5008,-2.5008,-2.4889,-2.5008,-2.4582,-2.4058,-2.4331,-2.3738,-2.2982,-2.2959,-2.3031,-2.2999,-2.2973,-2.3083,-2.3145,-2.3353,-2.3335,-2.3296,-2.3445,-2.207,-2.0529,-1.9379,-2.0124,-2.1159,-2.1928,-2.2578,-2.3252,-2.4099,-2.4245,-2.4181,-2.4242,-2.4224,-2.4185,-2.4154,-2.4216,-2.3609,-2.2196,-2.2097,-2.268,-2.4092,-2.4217,-2.4155,-2.4155,-2.4155,-2.4155,-2.4155,-2.417,-2.4207,0.0,0.0,0.0,0.0,0.0,0.0,0.0,0.0,0.0,0.0,0.0,0.0,0.0,0.0,0.0,0.0,0.0,0.0,0.0,0.0,0.0,0.0,0.0,0.0,0.0,0.0,-2.0972,-2.1219,-2.1235,-2.1275,-2.1258,-2.212,-2.3106,-2.4132,-2.3713,-2.4338,-2.6433,-2.5747,-2.4919,-2.4156,-2.4173,-2.4902,-2.6274,-2.6528,-2.6626,-2.6582,-2.706,-2.7454,-2.7776,-2.8223,-2.8445,-2.8445,-2.8349,-2.8242,-2.8116,-2.6952,-2.6091,-2.5423,-2.5,-2.4676,-2.4454,-2.4454,-2.4454,-2.4454,-2.4231,-2.4342,-2.4454,-2.4231,-2.3904,-2.3585,-2.3713,-2.3368,-2.3014,-2.3014,-2.3014,-2.3014,-2.3014,-2.3039,-2.2973,-2.3037,-2.3173,-2.3295,-2.3045,-2.2225,-2.1634,-2.1579,-2.1196,-2.094,-2.0925,-2.2732,-2.4158,-2.423,-2.3582,-2.3388,-2.4147,-2.4008,-2.3826,-2.3797,-2.3751,-2.3232,-2.1703,-2.1608,-2.2559,-2.4852,-2.4981,-2.5013,-2.4977,-2.5013,-2.5023,-2.5023,-2.4517,-2.3829,-2.3108,0.0,0.0,0.0,0.0,0.0,0.0,0.0,0.0,0.0,0.0,0.0,0.0,0.0,0.0,0.0,0.0,0.0,0.0,0.0,0.0,0.0,0.0,0.0,-2.0901,-2.0854,-2.1203,-2.1933,-2.199,-2.1989,-2.2041,-2.2081,-2.3235,-2.6141,-2.4326,-2.3002,-2.3096,-2.3145,-2.4099,-2.6448,-2.6536,-2.6318,-2.5869,-2.7403,-2.8116,-2.7785,-2.759,-2.7931,-2.8794,-2.8794,-2.89,-2.9187,-2.9092,-2.8764,-2.8223,-2.8223,-2.7688,-2.6816,-2.5423,-2.4462,-2.3913,-2.3913,-2.3921,-2.3809,-2.3239,-2.3352,-2.3809,-2.3239,-2.3014,-2.3014,-2.3014,-2.3014,-2.3014,-2.3014,-2.3014,-2.3014,-2.3014,-2.3014,-2.3014,-2.3014,-2.3014,-2.3047,-2.2981,-2.3027,-2.3047,-2.2971,-2.1886,-2.1002,-2.1106,-2.29,-2.4263,-2.4263,-2.2427,0.0,-2.3848,-2.347,-2.2961,-2.297,-2.2955,-2.3013,-2.3013,-2.3004,-2.3986,-2.6365,-2.652,-2.6627,-2.6617,-2.6617,-2.655,-2.6512,-2.5044,-2.3228,-2.1111,0.0,0.0,0.0,0.0,0.0,0.0,0.0,0.0,0.0,0.0,0.0,0.0,0.0,0.0,0.0,0.0,0.0,0.0,0.0,0.0,0.0,0.0,-1.9592,-1.9873,-2.0796,-2.1573,-2.1937,-2.2453,-2.2749,-2.2724,-2.2711,-2.3083,-2.3905,-2.3378,-2.3381,-2.4293,-2.5072,-2.5872,-2.6473,-2.7323,-2.7257,-2.6309,-2.7795,-2.8542,-2.8426,-2.9418,-2.9973,-3.0193,-3.0193,-3.0297,-3.0287,-2.9638,-2.9628,-2.9963,-2.8804,-2.8252,-2.8106,-2.6816,-2.5643,-2.4565,-2.4565,-2.4016,-2.3239,-2.3014,-2.3127,-2.3239,-2.3014,-2.3014,-2.3014,-2.3014,-2.3014,-2.3014,-2.3014,-2.3014,-2.3014,-2.3014,-2.3014,-2.3014,-2.3014,-2.3014,-2.299,-2.3023,-2.3007,-2.2975,-2.3007,-2.2641,-2.3031,-2.4729,-2.5539,-2.5922,-2.5922,0.0,0.0,-2.3244,-2.3102,-2.3034,-2.2997,-2.2942,-2.3045,-2.2973,-2.2986,-2.3267,0.0,-2.5685,-2.6615,-2.6553,-2.6615,-2.58,-2.4001,-2.5276,-2.5595,0.0,0.0,0.0,0.0,0.0,0.0,0.0,0.0,0.0,0.0,0.0,0.0,0.0,0.0,0.0,0.0,0.0,0.0,0.0,0.0,0.0,0.0,-1.9868,-2.07,-2.0907,-2.151,-2.2005,-2.2156,-2.2562,-2.2885,-2.3031,-2.2989,-2.3197,-2.3742,-2.3247,-2.3568,-2.4778,-2.5423,-2.5735,-2.5735,-2.7365,-2.7902,-2.7454,-2.8658,-2.9313,-2.9408,-3.0078,-3.0621,-3.0905,-3.0905,-3.1116,0.0,-3.0852,-3.0968,-3.1307,-3.0329,-2.9998,0.0,0.0,0.0,0.0,0.0,-2.4991,-2.3784,-2.3784,-2.3456,-2.3014,-2.3014,-2.3014,-2.3014,-2.3014,-2.3472,-2.3825,-2.3135,-2.3344,-2.368,-2.3127,-2.3014,-2.3014,-2.3014,-2.3014,-2.3014,-2.3014,-2.3014,-2.3014,-2.3014,0.0,0.0,-2.481,-2.5042,-2.5098,-2.5042,-2.3905,-2.295,0.0,-2.3005,-2.3045,-2.2982,-2.2974,-2.3039,-2.2983,-2.3966,0.0,0.0,0.0,-2.6116,-2.5084,-2.6098,0.0,0.0,0.0,-2.7978,0.0,0.0,0.0,0.0,-2.6453,-2.6108,0.0,0.0,0.0,0.0,0.0,0.0,0.0,0.0,0.0,0.0,0.0,0.0,0.0,0.0,0.0,0.0,-2.1137,-2.2855,-2.3012,-2.268,-2.2445,-2.2513,-2.2545,-2.2672,-2.2982,-2.3014,-2.3456,-2.4565,-2.3672,-2.3672,-2.4778,0.0,0.0,0.0,0.0,-2.8572,-2.894,-2.9731,-3.0203,-3.0548,-3.0244,-3.0462,-3.1178,-3.1178,-3.1506,-3.2102,-3.2102,-3.2102,-3.2102,-3.1983,-3.1657,-3.1148,-2.9164,-2.8085,-2.7634,-2.7526,-2.6436,0.0,0.0,0.0,0.0,-2.3125,-2.3004,-2.2996,-2.2996,-2.3907,-2.4812,-2.369,-2.3962,-2.4334,-2.3231,-2.3014,-2.3014,-2.3014,-2.3014,-2.3014,-2.3014,-2.2998,-2.2974,-2.2974,-2.2974,-2.2974,-2.2974,-2.2943,-2.2975,-2.2975,-2.2999,0.0,-2.3006,-2.3047,-2.3047,-2.3408,0.0,0.0,-2.2959,-2.5259,-2.656,-2.6637,-2.6352,-2.5197,-2.3124,-2.5299,-2.8024,-3.0936,-3.1395,-3.0191,-2.7179,-2.675,-2.8091,-3.1023,-2.9725,-2.9006,0.0,0.0,0.0,0.0,0.0,0.0,0.0,0.0,0.0,0.0,0.0,0.0,0.0,0.0,0.0,-1.995,-2.1094,-2.2145,-2.2925,-2.2919,-2.2839,-2.2903,-2.2911,-2.2942,-2.3006,-2.3014,-2.3127,-2.3344,-2.4008,-2.4556,-2.4787,-2.6509,0.0,-2.758,-2.89,-2.9833,-3.0319,-3.0446,-3.0739,-3.1221,0.0,0.0,-3.1345,-3.1345,-3.1397,-3.1589,-3.1589,-3.1589,-3.147,-3.0429,-2.9288,-2.8361,-2.9124,-2.9287,-2.9056,-2.8155,-2.6906,-2.5783,-2.5783,-2.4845,-2.3567,-2.3567,-2.3294,-2.3006,-2.3006,-2.3207,0.0,-2.5388,-2.4594,-2.3344,-2.3014,-2.3014,-2.3014,-2.3014,-2.3014,-2.3014,-2.3014,-2.2983,-2.2967,-2.2967,-2.2967,-2.2967,-2.2967,-2.2975,-2.2958,-2.2982,-2.2982,-2.299,-2.3014,-2.2998,-2.3795,-2.5648,-2.4207,-2.3031,-2.2958,-2.5232,-2.6645,-2.6637,-2.4777,-2.3505,-2.3011,-2.5353,-2.6871,-2.7535,-3.0212,-3.1243,-3.06,-2.7873,-2.692,-2.7656,-2.9998,-3.0198,0.0,0.0,0.0,0.0,0.0,0.0,0.0,0.0,0.0,0.0,0.0,-1.7485,0.0,0.0,-1.9802,-2.027,-2.141,-2.2433,-2.2901,-2.3014,-2.3014,-2.3014,-2.3014,-2.3014,-2.3014,-2.3014,-2.3231,-2.3896,-2.4454,-2.5188,-2.5918,-2.7569,-2.8652,-2.8867,-3.012,-3.0458,-2.9998,-3.0693,-3.0458,-2.942,-3.0107,-3.056,-3.0782,-3.0089,-3.032,-3.1113,-3.1113,-3.0764,-3.0185,-3.0062,-3.0062,-3.0176,-3.0877,-3.0138,-2.8615,-2.942,-2.805,-2.599,-2.6681,-2.5518,-2.3905,-2.4039,-2.4047,-2.4031,-2.3622,-2.3551,-2.3757,-2.4472,-2.4697,-2.4466,-2.3344,-2.2996,-2.3008,-2.3008,-2.3012,-2.3014,-2.3014,-2.3039,-2.3718,-2.6056,-2.646,-2.5812,-2.3357,-2.3029,-2.2999,-2.2998,-2.3014,-2.3014,-2.3014,-2.2974,-2.3488,-2.4653,-2.377,-2.3007,-2.3007,-2.518,-2.6591,-2.6646,-2.4302,-2.2989,-2.3051,-2.5313,-2.6617,-2.6576,-2.9839,-3.0726,-2.9093,-2.9102,-2.8288,-2.6627,-2.8284,-2.9482,0.0,0.0,0.0,0.0,0.0,0.0,0.0,0.0,-1.7485,-1.7485,-1.7485,-1.7485,-1.7485,-1.8991,-2.027,-2.027,-2.1873,-2.3014,-2.3014,-2.3014,-2.3038,-2.3109,-2.3062,-2.3014,-2.3014,-2.3077,-2.3448,-2.4443,-2.4846,-2.556,-2.6861,-2.7993,-2.8819,-2.9167,-3.0107,-3.0147,-2.9189,-3.0237,-2.9819,-2.7824,-2.8852,-2.9497,-2.9834,-2.8784,-2.9077,-3.047,-3.0704,-2.9992,-2.8683,-2.9874,-3.0937,-3.1662,-3.1893,-3.0276,-2.8054,-3.0711,-2.9437,-2.6563,-2.7746,-2.6472,-2.4261,-2.4531,-2.4817,-2.4976,-2.4404,-2.433,-2.4154,-2.3535,-2.4784,-2.5744,-2.356,-2.3006,-2.296,-2.296,-2.3012,-2.2953,-2.2953,-2.3035,-2.4144,-2.7921,-2.9404,-2.879,-2.5033,-2.4377,-2.4089,-2.3159,-2.2982,-2.3014,-2.3014,-2.3023,-2.2991,-2.2998,-2.3015,-2.3055,-2.3055,-2.5154,-2.6582,-2.658,-2.4386,-2.3054,-2.3054,-2.5369,-2.6646,-2.6623,-2.9915,-3.0296,-2.7584,-3.0234,-2.9931,-2.6589,-2.7227,-2.9062,-0.8616,-0.8976,-0.9457,-1.0774,-1.2097,-1.354,0.0,0.0,-1.7485,-1.7485,-1.7485,-1.7485,-1.7485,-1.8991,-2.027,-2.027,-2.1873,-2.3014,-2.3014,-2.3014,-2.3133,-2.3451,-2.3205,-2.3014,-2.3014,-2.33,-2.3483,-2.3598,-2.4894,-2.5771,-2.593,-2.7068,-2.7655,-2.7691,-2.7814,-2.8103,-2.8357,-2.8473,-2.8658,-2.8783,-2.8901,-2.8928,-2.8974,-2.8847,-2.8874,-2.9157,-3.0344,-2.9394,-2.7254,-2.8564,-2.8564,-2.7735,-2.892,-2.9102,-2.9018,-3.1626,-3.0799,-2.8683,-2.9577,-2.7735,-2.4992,-2.4992,-2.5,-2.513,-2.4992,-2.5036,-2.4924,-2.4932,-2.4992,-2.4866,-2.334,-2.3027,-2.3004,-2.3004,-2.2981,-2.2958,-2.2958,-2.3038,-2.3205,-2.3723,-2.7194,-2.9877,-2.9342,-2.9253,-2.7791,-2.3681,-2.2999,-2.3014,-2.3014,-2.2943,-2.3007,-2.299,-2.3047,-2.3037,-2.3037,-2.5221,-2.6582,-2.658,-2.4359,-2.2959,-2.2959,-2.5276,-2.6573,-2.6551,-2.989,-3.1434,-3.1079,-3.143,-2.9931,-2.6702,-2.9683,-3.1256,-0.8247,-0.836,-0.8845,0.0,-1.1968,-1.3407,-1.5208,-1.6644,-1.7485,-1.7485,-1.7485,-1.7485,-1.7485,-1.8777,-1.971,0.0,-2.1379,-2.2797,-2.2797,-2.327,-2.3673,-2.3824,-2.3705,-2.3618,-2.3618,-2.3753,-2.4066,-2.4746,-2.545,-2.62,-2.7115,-2.7597,-2.8053,-2.829,-2.829,-2.802,-2.7489,-2.8192,-2.7926,-2.6658,-2.7495,-2.7847,-2.7735,-2.7021,-2.7134,-2.7847,-2.8325,-2.8801,-2.9157,-2.9039,-2.9039,-2.9157,-2.9039,-2.892,-2.9157,-3.0937,-3.0138,-2.8175,-2.8607,-2.7116,-2.5111,-2.5111,-2.5111,-2.5111,-2.5111,-2.5146,-2.5043,-2.5043,-2.5076,-2.4956,-2.4377,-2.422,-2.4213,-2.4213,-2.4198,-2.4188,-2.4188,-2.4238,-2.4227,-2.4211,-2.8146,-3.1187,-3.0178,-2.9968,-2.9378,-2.7364,-2.4778,-2.2991,-2.3038,-2.2974,-2.3014,-2.304,-2.2956,-2.3609,-2.4947,-2.5975,-2.598,-2.4633,-2.3579,-2.2973,-2.3051,-2.3964,-2.452,-2.4456,-2.9207,-3.1599,-3.1618,-3.1553,-3.0862,-2.9528,-3.0902,-3.1549,-0.7875,-0.7994,0.0,-1.0767,-1.2084,-1.3402,-1.5564,-1.6938,-1.7587,-1.7587,-1.7654,-1.7708,-1.7708,-1.869,-1.9416,-1.9416,-2.1146,-2.2617,-2.2617,-2.3448,-2.4086,-2.4182,-2.4198,-2.4237,-2.4333,-2.4253,-2.4545,-2.5461,-2.5553,-2.6084,-2.7287,-2.7305,-2.7555,-2.7838,-2.7847,-2.7375,-2.6537,-2.7375,-2.69,-2.5103,-2.6067,-2.6424,-2.6415,-2.5464,-2.5586,-2.6545,-2.69,-2.7847,-2.9157,-2.8564,-2.892,-2.963,-2.8683,-2.8564,-2.892,-2.9512,-2.8856,-2.7617,-2.7617,-2.6491,-2.5111,-2.5111,-2.5111,-2.5111,-2.5111,-2.5111,-2.5095,-2.5146,-2.5056,-2.5095,-2.5146,-2.514,-2.5149,-2.5149,-2.5108,-2.5066,-2.5066,-2.5099,-2.5511,-2.6929,-3.0192,-3.2309,-3.1003,-3.0762,-3.0711,-3.0711,-2.7892,-2.4984,-2.3197,-2.4555,-2.5723,-2.5723,-2.4375,-2.4187,-2.5443,-2.5561,-2.4828,-2.3127,-2.2942,-2.3626,-2.4919,-2.5262,-2.5396,-2.5417,-2.9454,-3.1592,-3.1618,-3.1598,-3.1598,-3.1629,-3.1598,-3.1587,0.0,0.0,-0.9454,-1.196,-1.2928,-1.3899,-1.6762,-1.7678,-1.7859,-1.7859,-1.8082,-1.8269,-1.8269,-1.8991,-1.9709,-1.9709,-2.1286,-2.2617,-2.2617,-2.3448,-2.4182,-2.4523,-2.4563,-2.4698,0.0,-2.477,-2.4563,-2.4683,-2.4881,-2.5079,-2.521,-2.521,-2.5218,-2.5226,-2.5226,-2.5226,-2.5111,-2.5226,-2.5234,-2.5111,-2.5111,-2.5111,-2.5111,-2.5111,-2.5111,-2.5226,-2.6415,-2.6302,-2.5349,-2.6537,-2.7134,-2.7134,-2.7013,-2.7847,-2.8801,-2.7615,-2.7306,-2.7617,-2.7617,-2.6491,-2.5111,-2.5111,-2.5111,-2.5111,-2.5111,-2.5111,-2.5056,-2.506,-2.5043,-2.5056,-2.5052,-2.5043,-2.5095,-2.5095,-2.5087,-2.5079,-2.5079,-2.5132,-2.6584,-3.1455,-3.2605,-3.2685,-3.2588,-3.2606,-3.2614,-3.2614,-3.2475,-3.0079,-2.3793,-2.8471,-3.2438,-3.2402,-2.7955,-2.4515,-2.3265,-2.3141,-2.3093,-2.298,-2.3055,-2.506,-2.9567,-3.0785,-3.1304,-3.1379,-3.1527,-3.1585,-3.1618,-3.1629,-3.1629,-3.1618,-3.1629,-3.1629,0.0,0.0,-0.8861,-1.1626,-1.2634,-1.3653,-1.5518,-1.7097,-1.7905,-1.6903,-1.7602,-1.8294,-1.8294,-1.8674,-1.9038,-1.9038,-2.0792,-2.2291,-2.2291,-2.3764,-2.4793,-2.4913,-2.4928,0.0,0.0,0.0,0.0,-2.4928,-2.504,-2.5111,-2.5111,-2.5111,-2.5111,-2.5111,-2.5111,-2.5111,-2.5111,-2.5111,-2.5111,-2.5111,-2.5111,-2.5111,-2.5111,-2.5111,-2.5111,-2.5226,-2.6424,-2.6779,-2.6424,-2.6779,-2.7013,-2.6892,-2.6067,-2.5945,-2.6302,-2.5945,-2.5839,-2.5986,-2.5986,-2.561,-2.5111,-2.5111,-2.5111,-2.5111,-2.5111,-2.5111,-2.5087,-2.513,-2.7572,-2.9424,-2.5927,-2.5043,-2.5071,-2.5148,-2.5114,-2.5111,-2.5111,-2.5149,-2.6653,-3.1742,-3.2676,-3.2685,-3.2695,-3.2694,-3.2734,-3.2734,-3.2684,-3.066,-2.5138,-2.9295,-3.1424,-2.8022,-2.9203,-2.9996,-2.9498,-2.6355,-2.5892,-2.9222,-2.9424,-2.9574,-2.9927,-3.104,-3.1561,-3.1623,-3.1607,-3.1598,-3.1618,-3.1618,-3.1618,-3.1618,-3.1618,-3.1618,0.0,-0.7967,-0.8511,-1.094,-1.1837,-1.2614,-1.4121,-1.5592,-1.6659,-1.6273,-1.7105,-1.7935,-1.8446,-1.871,-1.8825,-1.8825,-2.0346,-2.1727,-2.2111,-2.3487,-2.4734,-2.5111,-2.5111,-2.5111,0.0,0.0,0.0,-2.5111,-2.5111,-2.5111,-2.5111,-2.5111,-2.5111,-2.5111,-2.5111,-2.5111,-2.5111,-2.5111,-2.5111,-2.5111,-2.5111,-2.5111,-2.5111,-2.5111,-2.5111,-2.5111,-2.5945,-2.6302,-2.6302,-2.6302,-2.6302,-2.6181,-2.5464,-2.5111,-2.5111,-2.5111,-2.5111,-2.5111,-2.5111,-2.5111,-2.5111,-2.5111,-2.5111,-2.5111,-2.5111,-2.5111,-2.5087,-2.5122,-2.7424,-2.9274,-2.5918,-2.6432,-2.7417,-2.5577,-2.5157,-2.5092,-2.5092,-2.5123,-2.6641,-3.1683,-3.2721,-3.2727,-3.2727,-3.2727,-3.2727,-3.2727,-3.2716,-3.157,-2.8236,-3.0674,-3.1416,-2.8214,-3.0777,-3.2683,-3.2762,-2.9738,-2.925,-3.2487,-3.2734,-3.2215,-3.1025,-3.1661,-3.1657,-3.101,-3.14,-3.1564,-3.1598,-3.1598,-3.1647,-3.1618,-3.1618,-3.1618,-0.8065,-0.8147,-0.8614,-1.0126,-1.063,-1.1013,-1.2532,-1.3562,-1.4463,-1.5747,-1.6562,-1.7372,0.0,0.0,-1.9072,-1.92,-2.0081,-2.1089,-2.1985,-2.2981,-2.3984,0.0,0.0,0.0,0.0,0.0,0.0,-2.5111,0.0,-2.5111,-2.5111,-2.5111,-2.5111,-2.5111,-2.5111,-2.5111,-2.5111,-2.5111,-2.5111,-2.5111,-2.5111,-2.5111,-2.5111,-2.5111,-2.5111,-2.5111,-2.5111,-2.5111,-2.5111,-2.5111,-2.5111,-2.5111,-2.5111,-2.5111,-2.5111,-2.5111,-2.5111,-2.5111,-2.5111,-2.5111,-2.5111,-2.5111,-2.5111,-2.5111,-2.5111,-2.5111,-2.5063,-2.5068,-2.5051,-2.5056,-2.5044,-2.8702,-3.1194,-2.6565,-2.546,-2.5525,-2.5509,-2.5537,-2.6918,-3.1766,-3.2703,-3.2727,-3.2727,-3.2727,-3.2727,-3.2727,-3.2727,-3.2727,-3.2727,-3.2652,-3.2666,-3.2684,-3.2755,-3.2697,-3.2697,-3.2672,-3.2736,-3.2676,-3.2706,-3.2668,-3.2696,-3.2735,-3.1909,-3.0258,-3.1186,-3.1774,-3.179,-3.1653,-3.1564,-3.1549,-3.1549,-3.164,-0.819,-0.8212,-0.8511,-0.9887,-1.0809,-1.1349,-1.1609,-1.3232,-1.4822,-1.5082,-1.6162,-1.7372,0.0,0.0,0.0,-2.0075,-2.1089,0.0,-2.3113,-2.4108,0.0,-2.5111,0.0,-2.5111,-2.5111,-2.5111,0.0,0.0,-2.5111,-2.5111,-2.5111,-2.5111,-2.5111,-2.5111,-2.5111,-2.5111,-2.5111,-2.5111,-2.5111,-2.5111,-2.5111,-2.5111,-2.5111,-2.5111,-2.5111,-2.5111,-2.5111,-2.5111,-2.5111,-2.5111,-2.5111,-2.5111,-2.5111,-2.5111,-2.5111,-2.5111,-2.5111,-2.5111,-2.5111,-2.5111,-2.5111,-2.5111,-2.5111,-2.5111,-2.5111,-2.5111,-2.5095,-2.5154,-2.5063,-2.5056,-2.5044,-2.6017,-2.7704,-3.0127,-3.0749,-3.0796,-3.0706,-3.0781,-3.1141,-3.2413,-3.2703,-3.2727,-3.2727,-3.2727,-3.2727,-3.2727,-3.2727,-3.2727,-3.2727,-3.2746,-3.2672,-3.2747,-3.2684,-3.2726,-3.2726,-3.2664,-3.2643,-3.2726,-3.2696,-3.2706,-3.2685,-3.2679,-3.2923,-3.3332,-3.3573,-3.3807,-3.3799,-3.2275,-3.1582,-3.1585,-3.1585,-3.156,-0.8315,-0.8353,-0.8535,-0.9258,-0.9798,-1.0336,-1.0296,-1.1886,-1.3718,-1.4507,-1.5939,0.0,-1.881,0.0,0.0,0.0,0.0,0.0,-2.2731,-2.3487,-2.4108,0.0,-2.5111,0.0,-2.5111,-2.5111,-2.5111,0.0,-2.5111,-2.5111,-2.5111,-2.5111,-2.5111,-2.5111,-2.5111,-2.5111,-2.5111,-2.5111,-2.5111,-2.5111,-2.5111,-2.5111,-2.5111,-2.5111,-2.5111,-2.5111,0.0,-2.5111,-2.5111,-2.5111,-2.5111,-2.5111,-2.5111,-2.5111,-2.5111,-2.5111,-2.5111,-2.5111,-2.5111,-2.5111,-2.5111,-2.5111,-2.5111,-2.5111,-2.5111,-2.5111,-2.5111,-2.5111,-2.5111,-2.5079,-2.5059,-2.5043,-2.5855,-2.8652,-3.1088,-3.2703,-3.265,-3.2728,-3.2755,-3.2755,-3.2736,-3.2727,-3.2727,-3.2727,-3.2727,-3.2727,-3.2727,-3.2727,-3.2727,-3.2727,-3.2727,-3.2727,-3.2727,-3.2727,-3.2727,-3.2727,-3.2727,-3.2727,-3.2727,-3.2727,-3.2727,-3.2705,-3.305,-3.3716,-3.4274,-3.4536,-3.4486,-3.3388,-3.2835,-3.2838,-3.2038,-3.1612,-0.844,-0.8513,-0.8587,-0.8587,-0.8587,-0.872,-0.9117,-1.0565,-1.2266,-1.4101,0.0,-1.7372,-1.881,-1.9078,-1.92,-1.9328,0.0,-1.996,-2.1978,-2.2362,-2.2981,-2.4857,-2.5111,-2.5111,-2.5111,-2.5111,-2.5111,-2.5111,-2.5111,-2.5111,-2.5111,-2.5111,-2.5111,-2.5111,-2.5111,-2.5111,-2.5111,-2.5111,-2.5111,-2.5111,-2.5111,-2.5111,-2.5111,-2.5111,-2.5111,-2.5111,0.0,0.0,-2.5111,-2.5111,-2.5111,-2.5111,-2.5111,-2.5111,-2.5111,-2.5111,-2.5111,-2.5111,-2.5111,-2.5111,-2.5111,-2.5111,-2.5111,-2.5111,-2.5111,-2.5111,-2.5111,-2.5111,-2.5111,-2.5111,-2.5111,-2.5074,-2.5141,-2.5109,-2.8518,-3.1906,-3.2514,-3.266,-3.2664,-3.2737,-3.2727,-3.2727,-3.2727,-3.2727,-3.2727,-3.2727,-3.2727,-3.2727,-3.2727,-3.2727,-3.2727,-3.2727,-3.2727,-3.2727,-3.2727,-3.2727,-3.2727,-3.2727,-3.2727,-3.2727,-3.2727,-3.2685,-3.2726,-3.2983,-3.4022,-3.4504,-3.4526,-3.4526,-3.4458,-3.4426,-3.2824,-3.202,-0.8557,-0.8571,-0.8587,-0.8587,-0.8853,-0.9117,-0.9525,-1.0972,0.0,0.0,-1.5939,-1.7372,-1.881,-1.9078,-1.9322,-2.0202,0.0,0.0,0.0,0.0,-2.3736,0.0,0.0,0.0,0.0,0.0,0.0,0.0,0.0,0.0,-2.5111,-2.5111,-2.5111,-2.5111,-2.5111,-2.5111,-2.5111,-2.5111,-2.5111,-2.5111,-2.5111,-2.5111,-2.5111,-2.5111,-2.5111,-2.5111,0.0,0.0,-2.5111,-2.5111,-2.5111,-2.5111,-2.5111,-2.5111,-2.5111,-2.5111,-2.5111,-2.5111,-2.5111,-2.5111,-2.5111,-2.5111,-2.5111,-2.5111,-2.5111,-2.5111,-2.5111,-2.5111,-2.5111,-2.5111,-2.5111,-2.5079,-2.5114,-2.5149,-2.5753,-2.7528,-3.1841,-3.2733,-3.268,-3.2664,-3.2727,-3.2727,-3.2727,-3.2727,-3.2727,-3.2727,-3.2727,-3.2727,-3.2727,-3.2727,-3.2727,-3.2727,-3.2727,-3.2727,-3.2727,-3.2727,-3.2727,-3.2727,-3.2727,-3.2727,-3.2727,-3.2737,-3.313,-3.4135,-3.4441,-3.4455,-3.4547,-3.4547,-3.4483,-3.4469,-3.4141,-3.4051,-0.8587,-0.8587,-0.8587,-0.8587,-0.872,-0.8987,-0.9256,0.0,0.0,0.0,-1.5934,-1.7372,-1.881,-1.9078,0.0,0.0,0.0,0.0,0.0,0.0,0.0,0.0,0.0,0.0,0.0,0.0,0.0,0.0,0.0,0.0,-2.5111,-2.5111,-2.5111,-2.5111,-2.5111,-2.5111,-2.5111,-2.5111,-2.5111,-2.5111,-2.5111,-2.5111,-2.5111,-2.5111,-2.5111,-2.5111,-2.5111,0.0,-2.5111,-2.5111,-2.5111,-2.5111,-2.5111,-2.5111,-2.5111,-2.5111,-2.5111,-2.5111,-2.5111,-2.5111,-2.5111,-2.5111,-2.5111,-2.5111,-2.5111,-2.5111,-2.5111,-2.5111,-2.5111,-2.5111,-2.5111,-2.5111,-2.5079,-2.5082,-2.5076,-2.5712,-2.8174,-3.0811,-3.2742,-3.2674,-3.2727,-3.2727,-3.2727,-3.2727,-3.2727,-3.2727,-3.2727,-3.2727,-3.2727,-3.2727,-3.2727,-3.2727,-3.2727,-3.2727,-3.2727,-3.2727,-3.2727,-3.2727,-3.2727,-3.2727,-3.2727,-3.2716,-3.3233,-3.4458,-3.4553,-3.4455,-3.4524,-3.4524,-3.4547,-3.4505,-3.4505,-3.4527,-0.8587,-0.8587,-0.8587,-0.8587,-0.8587,-0.872,-0.8984,-1.0429,0.0,0.0,-1.5669,-1.7367,-1.881,0.0,-1.9078,0.0,-1.9078,0.0,0.0,0.0,0.0,0.0,0.0,0.0,0.0,0.0,0.0,0.0,0.0,0.0,-2.5111,-2.5111,-2.5111,-2.5111,-2.5111,-2.5111,-2.5111,-2.5111,-2.5111,-2.5111,-2.5111,-2.5111,-2.5111,-2.5111,-2.5111,-2.5111,-2.5111,0.0,0.0,-2.5111,-2.5111,-2.5111,-2.5111,-2.5111,-2.5111,-2.5111,-2.5111,-2.5111,-2.5111,-2.5111,-2.5111,-2.5111,-2.5111,-2.5111,-2.5111,-2.5111,-2.5111,-2.5111,-2.5111,-2.5111,-2.5111,-2.5111,-2.5111,-2.5111,-2.5082,-2.5061,-2.5082,-2.9081,-3.2702,-3.2755,-3.2693,-3.2672,-3.2726,-3.2715,-3.2695,-3.2737,-3.2727,-3.2727,-3.2727,-3.2727,-3.2727,-3.2727,-3.2727,-3.2727,-3.2727,-3.2727,-3.2727,-3.2727,-3.2727,-3.2727,-3.2706,-3.2664,-3.3293,-3.4426,-3.4499,-3.4524,-3.4524,-3.4524,-3.4524,-3.4524,-3.4524,-3.4524,-0.8587,-0.8587,-0.8587,-0.8587,-0.8587,-0.872,-0.8984,0.0,0.0,-1.3966,-1.5534,-1.7103,-1.881,-1.9078,-1.9078,-1.9078,0.0,-1.945,0.0,0.0,0.0,0.0,0.0,0.0,0.0,0.0,0.0,0.0,0.0,0.0,0.0,-2.5111,-2.5111,-2.5111,-2.5111,-2.5111,-2.5111,-2.5111,-2.5111,-2.5111,-2.5111,-2.5111,-2.5111,-2.5111,-2.5111,-2.5111,0.0,0.0,0.0,-2.5111,-2.5111,-2.5111,-2.5111,-2.5111,-2.5111,-2.5111,-2.5111,-2.5111,-2.5111,-2.5111,-2.5111,-2.5111,-2.5111,-2.5111,-2.5111,-2.5111,-2.5111,-2.5111,-2.5111,-2.5111,-2.5111,-2.5111,-2.5111,-2.5111,-2.5087,-2.5122,-2.5093,-2.9064,-3.2725,-3.2673,-3.2731,-3.2758,-3.2717,-3.2676,-3.2701,-3.2653,-3.2727,-3.2727,-3.2727,-3.2727,-3.2727,-3.2727,-3.2727,-3.2727,-3.2727,-3.2727,-3.2727,-3.2727,-3.2727,-3.2696,-3.2727,-3.2746,-3.3261,-3.4441,-3.4466,-3.4524,-3.4524,-3.4524,-3.4524,-3.4524,-3.4524,-3.4524,-0.8587,-0.8587,-0.8587,-0.8587,-0.8587,-0.8587,-0.872,0.0,-1.0429,-1.213,-1.3316,-1.4763,-1.7103,-1.7759,-1.815,-1.8944,-1.9078,0.0,0.0,0.0,0.0,0.0,0.0,0.0,0.0,0.0,0.0,0.0,0.0,0.0,0.0,-2.5111,-2.5111,-2.5111,-2.5111,-2.5111,-2.5111,-2.5111,-2.5111,-2.5111,-2.5111,-2.5111,-2.5111,-2.5111,-2.5111,-2.5111,0.0,0.0,0.0,-2.5111,-2.5111,-2.5111,-2.5111,-2.5111,-2.5111,-2.5111,-2.5111,-2.5111,-2.5111,-2.5111,-2.5111,-2.5111,-2.5111,-2.5111,-2.5111,-2.5111,-2.5111,-2.5111,-2.5111,-2.5111,-2.5111,-2.5111,-2.5111,-2.5111,-2.5111,-2.504,-2.5157,-2.6712,-2.8126,-2.8098,-2.8163,-2.8128,-2.8138,-3.0702,-3.2707,-3.2702,-3.2656,-3.266,-3.266,-3.2726,-3.2727,-3.2727,-3.2727,-3.2727,-3.2727,-3.2727,-3.2727,-3.2727,-3.2727,-3.2716,-3.2675,-3.342,-3.3958,-3.4517,-3.4488,-3.4524,-3.4524,-3.4524,-3.4524,-3.4524,-3.4524,-3.4524,-0.8587,-0.8587,-0.8587,-0.8587,-0.8587,-0.8587,0.0,0.0,-0.9377,-1.0951,-1.1615,-1.2931,-1.5928,-1.6711,-1.7367,-1.8816,-1.9078,-1.9078,-1.9078,0.0,0.0,0.0,0.0,0.0,0.0,0.0,0.0,0.0,0.0,0.0,0.0,-2.5111,-2.5111,-2.5111,-2.5111,-2.5111,-2.5111,-2.5111,-2.5111,-2.5111,-2.5111,-2.5111,-2.5111,-2.5111,-2.5111,-2.5111,0.0,0.0,0.0,-2.5111,-2.5111,-2.5111,-2.5111,-2.5111,-2.5111,-2.5111,-2.5111,-2.5111,-2.5111,-2.5111,-2.5111,-2.5111,-2.5111,-2.5111,-2.5111,-2.5111,-2.5111,-2.5111,-2.5111,-2.5111,-2.5111,-2.5111,-2.5111,-2.5111,-2.5111,-2.5063,-2.5132,-2.5092,-2.5036,-2.51,-2.5068,-2.5139,-2.5111,-2.8027,-3.0405,-3.0469,-3.0509,-3.0974,-3.2534,-3.2746,-3.2727,-3.2727,-3.2727,-3.2727,-3.2727,-3.2727,-3.2727,-3.2727,-3.2727,-3.2716,-3.2696,-3.3483,-3.4157,-3.4458,-3.4452,-3.4499,-3.4499,-3.4466,-3.4455,-3.4455,-3.4534,-3.4524,-0.8587,-0.8587,-0.8587,-0.8587,-0.8587,-0.8587,0.0,0.0,-0.9114,-1.0819,-1.1212,-1.2258,-1.5794,-1.6452,-1.7103,-1.8816,-1.9078,0.0,-1.9078,0.0,0.0,0.0,0.0,0.0,0.0,0.0,0.0,0.0,0.0,0.0,0.0,-2.5111,-2.5111,-2.5111,-2.5111,-2.5111,-2.5111,-2.5111,-2.5111,-2.5111,-2.5111,-2.5111,-2.5111,-2.5111,-2.5111,0.0,0.0,0.0,0.0,-2.5111,-2.5111,-2.5111,-2.5111,-2.5111,-2.5111,-2.5111,-2.5111,-2.5111,-2.5111,-2.5111,-2.5111,-2.5111,-2.5111,-2.5111,-2.5111,-2.5111,-2.5111,-2.5111,-2.5111,-2.5111,-2.5111,-2.5111,-2.5111,-2.5111,-2.5111,-2.5111,-2.5103,-2.5103,-2.5103,-2.5103,-2.5103,-2.5067,-2.5049,-2.5087,-2.5159,-2.5231,-2.5146,-2.6998,-3.2095,-3.2727,-3.2727,-3.2727,-3.2727,-3.2727,-3.2727,-3.2727,-3.2727,-3.2727,-3.2727,-3.2696,-3.2716,-3.2716,-3.3285,-3.4458,-3.4469,-3.4458,-3.4458,-3.4484,-3.4553,-3.4542,-3.4455,-3.4524,-0.8587,-0.8587,-0.8587,-0.8587,-0.8587,-0.8587,-0.8587,0.0,-0.8717,-0.9244,-0.964,-1.0429,-1.2521,-1.3705,-1.5019,-1.6974,-1.7893,0.0,0.0,0.0,0.0,0.0,0.0,0.0,0.0,0.0,0.0,0.0,0.0,0.0,0.0,0.0,-2.3736,-2.5111,-2.4487,-2.4108,-2.4108,-2.4108,-2.3969,-2.3683,-2.4718,-2.5111,-2.5111,-2.5111,0.0,0.0,0.0,0.0,0.0,-2.5151,-2.5111,-2.5111,-2.5111,-2.5111,-2.5111,-2.5111,-2.5111,-2.5111,-2.5111,-2.5111,-2.5111,-2.5111,-2.5111,-2.5111,-2.5111,-2.5111,-2.5111,-2.5111,-2.5111,-2.5111,-2.5111,-2.5111,-2.5111,-2.5111,-2.5111,-2.5111,-2.5111,-2.5111,-2.5111,-2.5111,-2.5111,-2.5063,-2.5148,-2.7965,-3.0344,-3.0287,-3.0329,-3.0824,-3.2534,-3.2713,-3.269,-3.269,-3.2736,-3.2727,-3.2727,-3.2727,-3.2727,-3.2727,-3.2727,-3.2716,-3.2696,-3.2737,-3.2861,-3.3285,-3.3222,-3.3304,-3.3304,-3.3321,-3.3711,-3.4455,-3.4534,-3.4524,0.0,-0.8587,-0.8587,-0.8587,-0.8587,0.0,0.0,-0.8587,-0.8587,-0.8587,-0.872,-0.9377,-1.0951,-1.1871,-1.3185,-1.5139,0.0,0.0,0.0,0.0,0.0,0.0,0.0,0.0,0.0,0.0,0.0,0.0,0.0,0.0,0.0,0.0,-2.2606,-2.3984,-2.3362,-2.2988,-2.2988,-2.334,-2.3509,-2.3848,-2.4704,-2.5099,-2.5154,-2.5154,0.0,0.0,0.0,0.0,0.0,-2.5069,-2.5122,-2.5067,-2.5067,-2.5159,-2.5111,-2.5111,-2.5111,-2.5111,-2.5111,-2.5111,-2.5111,-2.5111,-2.5111,-2.5111,-2.5111,-2.5111,-2.5111,-2.5111,-2.5111,-2.5111,-2.5111,-2.5111,-2.5111,-2.5111,-2.5111,-2.5111,-2.5111,-2.5111,-2.5111,-2.5111,-2.5111,-2.5079,-2.5106,-2.7765,-2.9886,-2.9775,-2.9888,-2.983,-2.983,-2.978,-3.0605,-3.2493,-3.2726,-3.2727,-3.2727,-3.2727,-3.2727,-3.2727,-3.2727,-3.2727,-3.2727,-3.2675,-3.2644,-3.2644,-3.2675,-3.2736,-3.2736,-3.3198,-3.3722,-3.4524,-3.4524,-3.4547,0.0,-0.8587,0.0,0.0,0.0,0.0,0.0,0.0,0.0,-0.8587,-0.8587,-0.9114,-1.0687,-1.1083,-1.1604,0.0,0.0,0.0,0.0,0.0,0.0,0.0,0.0,0.0,0.0,0.0,0.0,0.0,0.0,0.0,0.0,0.0,-2.1859,-2.1985,-2.1978,-2.1978,-2.1985,-2.2563,-2.3576,-2.4905,-2.4883,-2.475,-2.4607,-2.4607,0.0,0.0,0.0,0.0,0.0,-2.4725,-2.4641,-2.4649,-2.4929,-2.5107,-2.5111,-2.5111,-2.5111,-2.5111,-2.5111,-2.5111,-2.5111,-2.5111,-2.5111,-2.5111,-2.5111,-2.5111,-2.5111,-2.5111,-2.5111,-2.5111,-2.5111,-2.5111,-2.5111,-2.5111,-2.5111,-2.5111,-2.5111,-2.5111,-2.5111,-2.5111,-2.5111,-2.5154,-2.5044,-2.5125,-2.5044,-2.5058,-2.5049,-2.5277,-2.5578,-2.5591,-2.7398,-3.2227,-3.2695,-3.2674,-3.2653,-3.2643,-3.2758,-3.2727,-3.2747,-3.2758,-3.2727,-3.2727,-3.2727,-3.2727,-3.2778,-3.2861,-3.2851,-3.3904,-3.451,-3.4524,-3.4524,-3.4549,-0.8587,0.0,-0.8587,-0.8587,-0.8587,-0.8587,0.0,0.0,0.0,0.0,0.0,0.0,0.0,0.0,0.0,0.0,0.0,0.0,0.0,0.0,0.0,0.0,0.0,0.0,0.0,0.0,0.0,0.0,0.0,0.0,0.0,0.0,-2.0208,-2.0963,-2.0208,-2.0208,-2.0963,-2.1076,-2.1782,-2.2835,-2.2839,-2.1943,-2.0539,-2.0539,0.0,0.0,0.0,0.0,-2.0517,-2.046,-2.0499,-2.0873,-2.3908,-2.5135,-2.5111,-2.5111,-2.5111,-2.5111,-2.5111,-2.5111,-2.5111,-2.5111,-2.5111,-2.5111,-2.5111,-2.5111,-2.5111,-2.5111,-2.5111,-2.5111,-2.5111,-2.5111,-2.5111,-2.5111,-2.5111,-2.5111,-2.5111,-2.5111,-2.5111,-2.5111,-2.5111,-2.5087,-2.5154,-2.5146,-2.5122,-2.5067,-2.5132,-2.6554,-3.0401,-3.0873,-3.1404,-3.2545,-3.2741,-3.2743,-3.2752,-3.2731,-3.2744,-3.2747,-3.2714,-3.2734,-3.2737,-3.2727,-3.2727,-3.2727,-3.3589,-3.4097,-3.4033,-3.4339,-3.451,-3.4524,-3.4524,-3.4469,-0.8587,-0.8587,-0.8587,-0.8587,-0.8587,-0.8587,-0.8587,0.0,0.0,0.0,0.0,0.0,0.0,0.0,0.0,0.0,0.0,0.0,0.0,0.0,0.0,0.0,0.0,0.0,0.0,0.0,0.0,0.0,0.0,0.0,0.0,0.0,-1.9328,-1.9954,-1.9328,-1.9328,-1.9954,-1.9897,-2.0176,-2.0674,-2.0683,-2.0093,-1.9151,-1.9151,0.0,0.0,0.0,0.0,-1.9097,-1.9108,-2.0142,-2.2062,-2.4299,-2.5069,-2.5091,-2.5091,-2.5043,-2.5111,-2.5111,-2.5111,-2.5111,-2.5111,-2.5111,-2.5111,-2.5111,-2.5111,-2.5111,-2.5111,-2.5111,-2.5111,-2.5111,-2.5111,-2.5111,-2.5111,-2.5111,-2.5111,-2.5111,-2.5111,-2.5111,-2.5111,-2.5111,-2.5111,-2.5111,-2.5111,-2.5111,-2.5111,-2.5138,-2.6092,-2.8823,-2.9267,-2.9214,-2.9214,-2.9195,-2.9166,-2.9245,-3.1397,-3.1649,-2.9374,-3.1387,-3.2672,-3.2737,-3.2727,-3.2716,-3.2664,-3.338,-3.3919,-3.4517,-3.4463,-3.451,-3.4524,-3.4524,-3.4536,-0.8587,-0.8587,-0.8587,-0.8587,-0.8587,-0.8587,-0.8587,0.0,0.0,0.0,0.0,0.0,0.0,-0.9902,0.0,0.0,0.0,0.0,0.0,0.0,0.0,0.0,0.0,0.0,0.0,0.0,0.0,0.0,0.0,0.0,0.0,0.0,0.0,-1.9078,-1.9078,-1.9078,-1.9078,-1.9103,-1.9103,-1.9078,-1.9103,-1.9103,-1.9078,-1.9078,0.0,0.0,0.0,0.0,-1.9078,-1.9054,-2.1115,-2.4209,-2.4186,-2.4169,-2.4237,-2.4828,-2.5038,-2.5051,-2.5051,-2.5159,-2.5143,-2.5143,-2.5127,-2.5111,-2.5111,-2.5111,-2.5111,-2.5111,-2.5111,-2.5111,-2.5111,-2.5111,-2.5111,-2.5111,-2.5111,-2.5111,-2.5111,-2.5111,-2.5111,-2.5111,-2.5111,-2.5111,-2.5111,-2.5111,-2.5111,-2.5111,-2.5051,-2.5157,-2.5157,-2.5092,-2.5082,-2.5082,-2.5082,-2.5066,-2.5144,-2.9021,-3.0077,-2.646,-3.0361,-3.2664,-3.2727,-3.2727,-3.2696,-3.2737,-3.2716,-3.3233,-3.4285,-3.4441,-3.4521,-3.4545,-3.4545,-3.446,-0.8587,-0.8587,-0.8587,-0.8587,-0.8587,-0.8587,-0.8587,0.0,0.0,0.0,0.0,0.0,0.0,-0.8984,0.0,0.0,0.0,0.0,0.0,0.0,0.0,0.0,0.0,0.0,0.0,0.0,0.0,0.0,0.0,0.0,0.0,0.0,0.0,-1.9078,-1.9078,-1.9078,-1.9078,-1.906,-1.906,-1.9078,-1.906,-1.906,-1.9078,-1.9078,-1.9078,0.0,0.0,-1.9078,-1.9066,-1.9097,-1.946,-1.9998,-2.0035,-1.9984,-2.0374,-2.382,-2.5133,-2.5117,-2.5117,-2.5156,-2.5054,-2.5054,-2.5091,-2.5111,-2.5111,-2.5111,-2.5111,-2.5111,-2.5111,-2.5111,-2.5111,-2.5111,-2.5111,-2.5111,-2.5111,-2.5111,-2.5111,-2.5111,-2.5111,-2.5111,-2.5111,-2.5111,-2.5111,-2.5111,-2.5111,-2.5111,-2.5079,-2.5056,-2.5056,-2.5146,-2.5114,-2.5114,-2.5114,-2.5148,-2.5061,-2.577,-2.782,-3.1269,-3.2327,-3.2649,-3.2737,-3.2727,-3.2727,-3.2706,-3.2747,-3.284,-3.2975,-3.399,-3.4506,-3.4532,-3.4532,-3.4455,-0.8603,-0.8603,-0.86,-0.859,-0.8587,-0.8587,-0.8851,0.0,0.0,0.0,0.0,0.0,0.0,0.0,0.0,0.0,0.0,0.0,0.0,0.0,0.0,0.0,0.0,0.0,0.0,0.0,0.0,0.0,0.0,0.0,0.0,0.0,0.0,0.0,-1.9078,-1.9078,-1.9078,-1.9078,-1.9078,-1.9078,-1.9078,-1.9078,-1.9078,-1.9078,-1.9078,-1.9078,0.0,-1.9078,-1.9072,-1.9145,-1.9121,-1.9115,-1.9073,-1.9138,-1.9354,-2.1141,-2.1825,-2.1825,-2.1825,-2.1916,-2.227,-2.4377,-2.5162,-2.5091,-2.5135,-2.5111,-2.5111,-2.5111,-2.5111,-2.5111,-2.5111,-2.5111,-2.5111,-2.5111,-2.5111,-2.5111,-2.5111,-2.5111,-2.5111,-2.5111,-2.5111,-2.5111,-2.5111,-2.5111,-2.5111,-2.5111,-2.5111,-2.5111,-2.5111,-2.5111,-2.5111,-2.5111,-2.5111,-2.5063,-2.5074,-2.506,-2.7253,-3.2391,-3.2672,-3.2701,-3.2747,-3.2727,-3.2727,-3.2727,-3.2696,-3.2644,-3.2706,-3.3285,-3.3491,-3.3588,-3.4231,-3.4499,-0.7801,-0.8208,-0.8611,-0.8592,-0.8587,-0.872,-0.8984,-0.8984,0.0,0.0,0.0,0.0,0.0,0.0,0.0,0.0,0.0,0.0,0.0,0.0,0.0,0.0,0.0,0.0,0.0,0.0,0.0,0.0,0.0,0.0,0.0,0.0,0.0,0.0,-1.9078,-1.9078,-1.9078,-1.9078,-1.9078,-1.9078,-1.9078,-1.9078,-1.9078,-1.9078,-1.9078,-1.9078,-1.9078,-1.9078,-1.9078,-1.9078,-1.9078,-1.9078,-1.9078,-1.9145,-1.906,-1.9108,-1.9083,-1.9083,-1.9083,-1.9065,-1.9581,-2.2731,-2.4291,-2.5117,-2.5122,-2.5067,-2.5159,-2.5159,-2.5135,-2.5111,-2.5111,-2.5111,-2.5111,-2.5111,-2.5111,-2.5119,-2.5151,-2.5135,-2.5119,-2.5151,-2.5135,-2.5111,-2.5111,-2.5111,-2.5111,-2.5111,-2.5111,-2.5111,-2.5111,-2.5111,-2.5111,-2.5111,-2.5111,-2.5111,-2.5111,-2.5059,-2.6747,-3.0673,-3.2033,-3.2731,-3.2736,-3.2653,-3.2727,-3.2727,-3.2727,-3.2696,-3.2737,-3.2737,-3.2664,-3.2734,-3.3974,-3.4532,-0.5635,-0.7254,-0.8611,-0.8592,-0.8587,-0.8587,-0.8587,-0.8587,0.0,-0.8587,0.0,0.0,0.0,0.0,0.0,0.0,0.0,0.0,0.0,0.0,0.0,0.0,0.0,0.0,0.0,0.0,0.0,0.0,0.0,0.0,0.0,0.0,0.0,0.0,0.0,-1.9078,-1.9078,-1.9078,-1.9078,-1.9078,-1.9078,-1.9078,-1.9078,-1.9078,-1.9078,-1.9078,-1.9078,-1.9078,-1.9078,-1.9078,-1.9078,-1.9078,-1.9078,-1.9072,-1.906,-1.9054,-1.9054,-1.9054,-1.9054,-1.9109,-1.9145,-1.9416,-2.2048,-2.5164,-2.5148,-2.5055,-2.5069,-2.5069,-2.5091,-2.5111,-2.5111,-2.5111,-2.5111,-2.5111,-2.5111,-2.5143,-2.5038,-2.5083,-2.5151,-2.5038,-2.5083,-2.5111,-2.5111,-2.5111,-2.5111,-2.5111,-2.5111,-2.5111,-2.5111,-2.5111,-2.5111,-2.5111,-2.5111,-2.5111,-2.5111,-2.5095,-2.5237,-2.5633,-3.0125,-3.2707,-3.2687,-3.2652,-3.2727,-3.2727,-3.2727,-3.2727,-3.2727,-3.2727,-3.2675,-3.2695,-3.399,-3.4517,-0.4293,-0.6719,-0.8617,-0.8592,-0.8587,-0.872,-0.8853,-0.8851,-0.8851,-0.8851,-0.8984,0.0,0.0,0.0,0.0,0.0,0.0,0.0,0.0,0.0,0.0,0.0,0.0,0.0,0.0,0.0,0.0,0.0,0.0,0.0,0.0,0.0,0.0,0.0,0.0,-1.9078,-1.9078,-1.9078,-1.9102,-1.904,-1.9102,-1.9078,-1.9078,-1.9078,-1.9078,-1.9078,-1.9078,-1.9078,-1.9078,-1.9078,-1.9078,-1.9078,-1.9078,-1.9078,-1.9078,-1.9078,-1.9078,-1.9078,-1.9078,-1.9048,-1.9121,-1.9048,-2.0118,-2.1355,-2.1407,-2.1352,-2.1881,-2.436,-2.5055,-2.5093,-2.5159,-2.5111,-2.5135,-2.5099,-2.5122,-2.5138,-2.5069,-2.3127,-2.2072,-2.4626,-2.5143,-2.5111,-2.5111,-2.5111,-2.5111,-2.5111,-2.5111,-2.5111,-2.5111,-2.5111,-2.5143,-2.5115,-2.5122,-2.5122,-2.5122,-2.5122,-2.5083,-2.5111,-2.6953,-2.9415,-3.262,-3.2656,-3.2702,-3.2702,-3.2762,-3.266,-3.266,-3.2705,-3.2654,-3.2736,-3.318,-3.3829,-0.4028,-0.6451,-0.8619,-0.8592,-0.8587,-0.872,-0.8851,-0.8984,-0.8984,-0.8984,-0.8984,-0.8984,0.0,0.0,0.0,0.0,0.0,0.0,0.0,0.0,0.0,0.0,0.0,0.0,0.0,0.0,0.0,0.0,0.0,0.0,0.0,0.0,0.0,0.0,0.0,0.0,-1.9052,-1.9052,-1.9082,-1.9018,-1.7249,-1.7356,-1.9052,-1.9052,-1.9052,-1.9058,-1.9052,-1.9052,-1.9052,-1.9052,-1.9052,-1.9058,-1.9145,-1.9132,-1.9126,-1.909,-1.9078,-1.9078,-1.9078,-1.9078,-1.906,-1.9109,-1.9085,-1.9073,-1.9126,-1.9083,-1.9613,-2.2454,-2.3163,-2.3215,-2.3149,-2.4108,-2.5154,-2.5124,-2.4128,-2.3245,-2.3245,-2.2054,-2.1845,-2.4618,-2.5143,-2.5127,-2.5051,-2.5135,-2.5143,-2.5115,-2.5083,-2.5075,-2.5122,-2.513,-2.4587,-2.3377,-2.4283,-2.5156,-2.5156,-2.3973,-2.3245,-2.3245,-2.4417,-2.67,-3.0181,-3.0353,-3.0306,-3.0306,-3.0351,-3.1103,-3.2717,-3.2744,-3.2747,-3.2736,-3.3035,-3.3695,-0.5106,-0.6447,-0.8611,-0.8592,0.0,0.0,-0.8587,-0.8587,-0.8587,-0.8587,-0.8587,-0.872,-0.8984,0.0,0.0,0.0,0.0,0.0,0.0,0.0,0.0,0.0,0.0,0.0,0.0,0.0,0.0,0.0,0.0,0.0,0.0,0.0,0.0,0.0,0.0,0.0,-1.9001,-1.9001,-1.9001,-1.8995,-1.3396,-1.3665,-1.9001,-1.9001,-1.9013,-1.9031,-1.9007,-1.9001,-1.9001,-1.9001,-1.9013,-1.9019,-1.903,-1.8988,-1.9112,-1.912,-1.9078,-1.9078,-1.9078,-1.9078,-1.9078,-1.9078,-1.9078,-1.9078,-1.9078,-1.9121,-1.9157,-1.9157,-1.9083,-1.9136,-1.9136,-2.2104,-2.5046,-2.5046,-2.1971,-1.913,-1.913,-2.2277,-2.5085,-2.5085,-2.5091,-2.5159,-2.5061,-2.5083,-2.5083,-2.5133,-2.5047,-2.5008,-2.5023,-2.5046,-2.3562,-1.955,-2.2684,-2.5046,-2.5046,-2.1393,-1.913,-1.913,-2.2839,-2.5061,-2.5133,-2.5106,-2.5087,-2.5087,-2.5087,-2.7559,-3.2591,-3.2717,-3.2755,-3.2716,-3.3887,-3.4528,-0.7536,-0.7937,0.0,-0.8592,0.0,0.0,0.0,-0.8587,0.0,0.0,-0.8587,-0.8587,-0.872,0.0,0.0,0.0,0.0,0.0,0.0,0.0,0.0,0.0,0.0,0.0,0.0,0.0,0.0,0.0,0.0,0.0,0.0,0.0,0.0,0.0,0.0,0.0,-1.3253,-1.3135,-1.3164,-1.321,-1.1436,-1.1541,-1.3122,-1.2168,-1.2307,-1.3143,-1.218,-1.2315,-1.3135,-1.218,-1.1773,-1.1773,-1.175,-1.4749,-1.9102,-1.9112,-1.907,-1.9058,-1.9102,-1.9078,-1.9078,-1.9078,-1.9078,-1.9078,-1.9078,-1.9054,-1.9152,-1.9152,-1.9127,-1.9103,-1.9103,-1.996,-2.0928,-2.0836,-1.9954,-1.9108,-1.9108,-2.2216,-2.5093,-2.5133,-2.5078,-2.5062,-2.5109,-2.2724,-2.186,-2.4718,-2.2656,-2.0915,-2.0823,-2.0896,-2.0485,-1.928,-2.0187,-2.0943,-2.0943,-1.9808,-1.9108,-1.9108,-2.0232,-2.209,-2.5028,-2.5079,-2.5122,-2.5132,-2.5077,-2.5807,-2.733,-3.0905,-3.2682,-3.2705,-3.3947,-3.4474,-0.8619,-0.8609,0.0,-0.859,-0.8587,-0.8587,-0.8587,0.0,0.0,0.0,0.0,0.0,0.0,0.0,0.0,0.0,0.0,0.0,0.0,0.0,0.0,0.0,0.0,0.0,0.0,0.0,0.0,0.0,0.0,0.0,0.0,0.0,0.0,0.0,0.0,0.0,-0.9817,-0.9823,-0.9842,-0.9877,-1.0419,-1.0399,-0.9817,-0.9007,-0.9016,-0.9833,-0.9019,-0.9019,-0.9827,-0.8884,-0.8615,-0.8618,-0.8596,-1.1148,-1.4978,-1.4884,-1.6644,-1.9154,-1.91,-1.904,-1.9114,-1.9138,-1.9114,-1.9078,-1.9078,-1.9078,-1.9078,-1.9078,-1.9078,-1.9078,-1.9078,-1.9078,-1.906,-1.9115,-1.9097,-1.9085,-1.9163,-2.1002,-2.2701,-2.272,-2.2692,-2.2706,-2.2756,-2.0711,-1.9871,-2.2398,-2.069,-1.9132,-1.9132,-1.906,-1.9073,-1.9138,-1.906,-1.9097,-1.9097,-1.9097,-1.9097,-1.9097,-1.9097,-2.0144,-2.2634,-2.4189,-2.5101,-2.5075,-2.5048,-2.514,-2.5101,-2.8241,-2.9677,-2.9747,-3.2953,-3.4522,-0.8614,0.0,0.0,-0.8587,-0.8587,0.0,-0.8587,-0.8587,0.0,0.0,0.0,0.0,0.0,0.0,0.0,0.0,0.0,0.0,0.0,0.0,0.0,0.0,0.0,0.0,0.0,0.0,0.0,0.0,0.0,0.0,0.0,0.0,0.0,0.0,0.0,0.0,-0.8573,-0.8576,-0.8576,0.0,-0.9937,-0.98,-0.8573,-0.8573,-0.8579,-0.8587,-0.8579,-0.8576,-0.8576,-0.8576,-0.8581,-0.8581,-0.8665,-0.8643,-0.8637,-0.8579,-1.2588,-1.825,-1.8586,-1.8487,-1.8214,-1.8835,-1.9064,-1.9102,-1.9096,-1.909,-1.909,-1.9084,-1.9084,-1.9084,-1.9078,-1.9084,-1.909,-1.909,-1.9084,-1.9048,-1.9066,-1.9042,-1.9138,-1.9053,-1.916,-1.9065,-1.9151,-1.9096,-1.9102,-1.9048,-1.9078,-1.9078,-1.9078,-1.9078,-1.9078,-1.9078,-1.9078,-1.9078,-1.9078,-1.9078,-1.9078,-1.9078,-1.9078,-1.9158,-1.9048,-2.263,-2.4538,-2.4517,-2.4945,-2.5043,-2.5157,-2.5149,-2.5169,-2.5604,-3.1287,-3.3969,-0.8598,-0.859,0.0,0.0,-0.8587,-0.8587,-0.8587,-0.8587,0.0,0.0,0.0,0.0,0.0,0.0,0.0,0.0,0.0,0.0,0.0,0.0,0.0,0.0,0.0,0.0,0.0,0.0,0.0,0.0,0.0,0.0,0.0,0.0,0.0,0.0,0.0,-0.8967,-0.8573,-0.8581,-0.8581,0.0,-0.8853,-0.8853,-0.8573,-0.8573,-0.8579,-0.8587,-0.8584,-0.8584,-0.8584,-0.8584,-0.8587,-0.8587,-0.8573,-0.8571,-0.8562,-0.864,-0.9557,-1.1308,-1.4679,-1.367,-1.1739,-1.7358,-1.9072,-1.9072,-1.9112,-1.9082,-1.9076,-1.9157,-1.904,-1.9046,-1.9096,-1.9132,-1.9064,-1.9064,-1.9132,-1.9072,-1.9042,-1.9036,-1.9158,-1.9139,-1.9133,-1.9139,-1.9164,-1.9145,-1.9152,-1.9072,-1.9078,-1.9078,-1.9078,-1.9078,-1.9078,-1.9078,-1.9078,-1.9078,-1.9078,-1.9078,-1.9078,-1.9078,-1.9078,-1.9066,-1.9036,-1.9903,-2.0346,-2.0361,-2.351,-2.5156,-2.5083,-2.5079,-2.6194,-2.8163,-2.9502,-3.0219,-0.859,0.0,0.0,-0.8587,0.0,-0.8587,-0.8587,0.0,0.0,0.0,0.0,0.0,0.0,0.0,0.0,0.0,0.0,0.0,0.0,0.0,0.0,0.0,0.0,0.0,0.0,0.0,0.0,0.0,0.0,0.0,0.0,0.0,0.0,0.0,-0.8632,-0.8632,-0.8632,-0.856,-0.8584,-0.8581,-0.8584,-0.8584,-0.8581,-0.8581,-0.8584,-0.8587,-0.8587,-0.8587,-0.8587,-0.8587,-0.8587,-0.8587,-0.8587,-0.8587,-0.8584,-0.8554,-0.8535,-0.8927,-1.108,-1.0494,-0.924,-1.2894,-1.5507,-1.6739,-1.473,-1.5544,-1.7364,-1.8735,-1.916,-1.8464,-1.5744,-1.7028,-1.9048,-1.9048,-1.9058,-1.9102,-1.9076,-1.9151,-1.9102,-1.9082,-1.9058,-1.9163,-1.9088,-1.91,-1.91,-1.91,-1.91,-1.91,-1.91,-1.91,-1.91,-1.91,-1.91,-1.9076,-1.9151,-1.9145,-1.9126,-1.9078,-1.9078,-1.9078,-1.9078,-1.9145,-1.906,-1.9077,-2.1188,-2.2272,-2.227,-2.417,-2.6386,-2.9055,-2.9021,-2.8972,-0.8587,0.0,-0.8587,-0.8587,-0.8587,0.0,0.0,0.0,0.0,0.0,0.0,0.0,0.0,0.0,0.0,0.0,0.0,0.0,0.0,0.0,0.0,0.0,0.0,0.0,0.0,0.0,0.0,0.0,0.0,0.0,0.0,0.0,-0.8521,-0.8519,-0.8519,-0.8521,-0.8652,-0.8615,-0.8538,-0.856,-0.8579,-0.8587,-0.8587,-0.8587,-0.8587,-0.8587,-0.8587,-0.8587,-0.8587,-0.8587,-0.8587,-0.8587,-0.8587,-0.8587,-0.8587,-0.8587,-0.8573,-0.8557,-0.8579,-0.8541,-0.8621,-0.8637,-1.0913,-1.3185,-0.9642,-1.0988,-1.4263,-1.6608,-1.7456,-1.6608,-1.19,-1.4223,-1.7604,-1.7604,-1.7596,-1.7916,-1.8954,-1.8283,-1.7922,-1.8954,-1.834,-1.7601,-1.769,-1.7707,-1.7707,-1.7707,-1.7707,-1.7707,-1.7707,-1.7707,-1.7707,-1.7707,-1.7707,-1.7662,-1.768,-1.8524,-1.9052,-1.9084,-1.9078,-1.9078,-1.9078,-1.9078,-1.9158,-1.906,-1.9054,-1.9132,-1.9154,-2.2486,-2.5749,-2.899,-2.8983,-2.9048,0.0,0.0,-0.8587,0.0,-0.8587,-0.8587,0.0,0.0,0.0,0.0,0.0,0.0,0.0,0.0,0.0,0.0,0.0,0.0,0.0,0.0,0.0,0.0,0.0,0.0,0.0,0.0,0.0,0.0,0.0,0.0,0.0,-0.8659,-0.8392,-0.7999,-0.7999,-0.813,-0.8651,-0.8539,-0.8598,-0.8577,-0.8541,-0.8587,-0.8587,-0.8587,-0.8587,-0.8587,-0.8587,-0.8587,-0.8587,-0.8587,-0.8587,-0.8587,-0.8587,-0.8587,-0.8587,-0.8587,-0.8584,-0.8581,-0.8587,-0.8581,-0.8568,-0.8546,-0.8958,-0.9368,-0.8778,-0.903,-0.956,-0.9926,-1.0885,-1.1706,-1.0964,-1.1261,-1.1845,-1.1845,-1.1788,-1.3097,-1.7995,-1.5303,-1.3232,-1.8137,-1.5178,-1.1881,-1.1758,-1.1762,-1.1762,-1.1762,-1.1762,-1.1762,-1.1762,-1.1762,-1.1762,-1.1762,-1.1762,-1.1862,-1.1782,-1.6281,-1.9052,-1.9084,-1.9078,-1.9078,-1.9078,-1.9078,-1.9066,-1.9054,-1.9054,-1.9121,-1.9132,-1.9669,-2.2981,-2.899,-2.9034,-2.9057,-0.8587,-0.8587,-0.8587,0.0,-0.8587,0.0,0.0,0.0,0.0,0.0,0.0,0.0,0.0,0.0,0.0,0.0,0.0,0.0,0.0,0.0,0.0,0.0,0.0,0.0,0.0,0.0,0.0,0.0,0.0,0.0,-0.8239,-0.8171,-0.8133,-0.7875,-0.7875,0.0,-0.8262,-0.8201,-0.8392,-0.8582,-0.8632,-0.856,-0.8626,-0.8626,-0.8659,-0.8587,-0.8587,-0.8587,-0.8587,-0.8587,-0.8587,-0.8587,-0.8587,-0.8587,-0.8587,-0.8587,-0.8587,-0.8587,-0.8587,-0.8587,-0.8587,-0.8573,-0.8579,-0.8584,-0.856,-0.8552,-0.8546,-0.8657,-0.9609,-1.07,-1.0663,-1.067,-1.0683,-1.0683,-1.0663,-1.1326,-1.38,-1.2493,-1.1366,-1.3862,-1.2389,-1.0646,-1.0646,-1.0646,-1.0646,-1.0646,-1.0646,-1.0646,-1.0646,-1.0646,-1.0646,-1.0646,-1.0646,-1.075,-1.0689,-1.5889,-1.9102,-1.9136,-1.9064,-1.9157,-1.9157,-1.9102,-1.9078,-1.9078,-1.9078,-1.9048,-1.9121,-1.9065,-2.0933,-2.464,-2.7618,-2.8983,0.0,0.0,-0.8587,-0.8587,-0.8587,0.0,0.0,0.0,0.0,0.0,0.0,0.0,0.0,0.0,0.0,0.0,0.0,0.0,0.0,0.0,0.0,0.0,0.0,0.0,0.0,0.0,0.0,0.0,0.0,0.0,-0.7886,-0.7929,-0.7881,-0.7881,-0.7881,-0.7881,-0.7881,-0.787,-0.806,-0.8447,-0.8481,-0.8414,-0.8372,-0.8372,-0.8437,-0.8546,-0.8576,-0.8587,-0.8587,-0.8587,-0.8587,-0.8587,-0.8587,-0.8587,-0.8587,-0.8587,-0.8587,-0.8587,-0.8587,-0.8587,-0.8587,-0.8587,-0.8587,-0.8587,-0.8587,-0.8587,-0.8587,-0.8576,-0.9389,-1.0206,-1.0605,-1.0731,-1.0724,-1.0721,-1.0721,-1.0721,-1.0721,-1.0653,-1.0737,-1.0649,-1.069,-1.0721,-1.0721,-1.0721,-1.0721,-1.0721,-1.0721,-1.0721,-1.0721,-1.0721,-1.0721,-1.0721,-1.0721,-1.0697,-1.0639,-1.4612,-1.6965,-1.7011,-1.6931,-1.7585,-1.9,-1.907,-1.9145,-1.9114,-1.9114,-1.9102,-1.9078,-1.9138,-1.975,-2.1286,-2.6524,-2.9037,0.0,-0.8587,0.0,-0.8587,0.0,0.0,0.0,0.0,0.0,0.0,0.0,0.0,0.0,0.0,0.0,0.0,0.0,0.0,0.0,0.0,0.0,0.0,0.0,0.0,0.0,0.0,0.0,0.0,0.0,0.0,-0.7896,-0.7883,-0.788,-0.788,-0.788,-0.788,-0.788,-0.7876,-0.7934,-0.7937,-0.7922,-0.7978,-0.7983,-0.7983,-0.8181,-0.8566,-0.8541,-0.8587,-0.8587,-0.8587,-0.8587,-0.8587,-0.8587,-0.8587,-0.8587,-0.8587,-0.8587,-0.8587,-0.8587,-0.8587,-0.8587,-0.8587,-0.8587,-0.8587,-0.8587,-0.8587,-0.8587,-0.8576,-0.8706,-0.8978,-1.0332,-1.0738,-1.0734,-1.0724,-1.0721,-1.0721,-1.0721,-1.0714,-1.0711,-1.0714,-1.0717,-1.0721,-1.0721,-1.0721,-1.0721,-1.0721,-1.0721,-1.0721,-1.0721,-1.0721,-1.0721,-1.0721,-1.0721,-1.0697,-1.0639,-1.0906,-1.1151,-1.1087,-1.108,-1.3526,-1.8847,-1.9125,-1.9066,-1.9088,-1.9082,-1.904,-1.9078,-1.9133,-1.9751,-2.1293,-2.6569,-2.8967,0.0,0.0,0.0,0.0,0.0,0.0,0.0,0.0,0.0,0.0,0.0,0.0,0.0,0.0,0.0,0.0,0.0,0.0,0.0,0.0,0.0,0.0,0.0,0.0,0.0,0.0,0.0,0.0,0.0,0.0,-0.7875,-0.7872,-0.7872,-0.7872,-0.7872,-0.7872,-0.7872,-0.7913,-0.7934,-0.7934,-0.7854,-0.7913,-0.7862,-0.7862,-0.8055,-0.8173,-0.8342,-0.8448,-0.8587,-0.8587,-0.8587,-0.8587,-0.8587,-0.8587,-0.8587,-0.8587,-0.8587,-0.8587,-0.8587,-0.8587,-0.8587,-0.8587,-0.8587,-0.8587,-0.8587,-0.8587,-0.8587,-0.8584,-0.8579,-0.8706,-0.9247,-1.006,-1.0734,-1.0724,-1.0721,-1.0721,-1.0721,-1.0721,-1.0721,-1.0721,-1.0721,-1.0721,-1.0721,-1.0721,-1.0721,-1.0721,-1.0721,-1.0721,-1.0721,-1.0721,-1.0721,-1.0721,-1.0721,-1.0711,-1.069,-1.069,-1.068,-1.066,-1.0757,-1.1552,-1.3604,-1.3696,-1.3657,-1.3756,-1.7293,-1.9046,-1.9078,-1.9158,-1.9834,-2.123,-2.6545,-2.8954,-0.8587,0.0,0.0,0.0,0.0,0.0,0.0,0.0,0.0,0.0,0.0,0.0,0.0,0.0,0.0,0.0,0.0,0.0,0.0,0.0,0.0,0.0,0.0,0.0,0.0,0.0,0.0,0.0,0.0,0.0,-0.7872,-0.7872,-0.7872,-0.7872,-0.7872,-0.7872,-0.7872,-0.7872,-0.7872,-0.7872,-0.7872,-0.7913,-0.7865,-0.7865,-0.7932,-0.7917,-0.8047,-0.831,-0.8532,-0.8532,-0.8554,-0.8587,-0.8587,-0.8587,-0.8587,-0.8587,-0.8587,-0.8587,-0.8587,-0.8587,-0.8587,-0.8587,-0.8587,-0.8587,-0.8587,-0.8587,-0.8587,-0.8587,-0.8584,-0.8579,-0.8576,-0.9652,-1.0734,-1.0724,-1.0721,-1.0721,-1.0721,-1.0721,-1.0721,-1.0721,-1.0721,-1.0721,-1.0721,-1.0721,-1.0721,-1.0721,-1.0721,-1.0721,-1.0721,-1.0721,-1.0721,-1.0721,-1.0721,-1.0721,-1.0721,-1.0721,-1.0721,-1.0721,-1.0683,-1.0663,-1.0663,-1.0757,-1.0726,-1.0709,-1.4335,-1.7158,-1.9126,-1.9054,-1.9599,-2.0499,-2.4471,-2.7276,0.0,0.0,0.0,0.0,0.0,0.0,0.0,0.0,0.0,0.0,0.0,0.0,0.0,0.0,0.0,0.0,0.0,0.0,0.0,0.0,0.0,0.0,0.0,0.0,0.0,0.0,0.0,0.0,0.0,-0.7872,-0.7872,-0.7872,-0.7872,-0.7872,-0.7872,-0.7872,-0.7872,-0.7872,-0.7872,-0.7872,-0.7872,-0.7872,-0.7872,-0.7872,-0.7934,-0.8049,-0.8049,-0.8314,-0.8543,-0.8413,-0.8481,-0.8581,-0.8581,-0.8584,-0.8587,-0.8587,-0.8587,-0.8587,-0.8587,-0.8587,-0.8587,-0.8587,-0.8587,-0.8587,-0.8587,-0.8587,-0.8587,-0.8587,-0.8587,-0.8584,-0.8576,-0.9652,-1.0734,-1.0724,-1.0721,-1.0721,-1.0721,-1.0721,-1.0721,-1.0721,-1.0721,-1.0721,-1.0721,-1.0721,-1.0721,-1.0721,-1.0721,-1.0721,-1.0721,-1.0721,-1.0721,-1.0721,-1.0721,-1.0721,-1.0721,-1.0721,-1.0721,-1.0721,-1.0721,-1.0721,-1.0721,-1.0721,-1.0694,-1.0639,-1.0636,-1.3426,-1.8818,-1.9084,-1.9048,-1.9111,-2.046,-2.3893,-0.7917,0.0,0.0,0.0,0.0,0.0,0.0,0.0,0.0,0.0,0.0,0.0,0.0,0.0,0.0,0.0,0.0,0.0,0.0,0.0,0.0,0.0,0.0,0.0,0.0,0.0,0.0,0.0,-0.7872,-0.7872,-0.7872,-0.7872,-0.7872,-0.7872,-0.7872,-0.7872,-0.7872,-0.7872,-0.7872,-0.7872,-0.7872,-0.7872,-0.7872,-0.7872,-0.7888,-0.7921,-0.7921,-0.8011,-0.816,-0.825,-0.8356,-0.8465,-0.8465,-0.8516,-0.8587,-0.8587,-0.8587,-0.8587,-0.8587,-0.8587,-0.8587,-0.8587,-0.8587,-0.8587,-0.8587,-0.8587,-0.8587,-0.8587,-0.8587,-0.8584,-0.8576,-0.9652,-1.0734,-1.0724,-1.0721,-1.0721,-1.0721,-1.0721,-1.0721,-1.0721,-1.0734,-1.0738,-1.0724,-1.0734,-1.0744,-1.0744,-1.0744,-1.0751,-1.0635,-1.0635,-1.0635,-1.0635,-1.0635,-1.0635,-1.0635,-1.0755,-1.0744,-1.0744,-1.0727,-1.0721,-1.0721,-1.0721,-1.0714,-1.0697,-1.0656,-1.1432,-1.3025,-1.7147,-1.9078,-1.9163,-2.0493,-2.3946,-0.7522,-0.7388,0.0,0.0,0.0,0.0,0.0,-0.859,0.0,0.0,0.0,0.0,0.0,0.0,0.0,0.0,0.0,0.0,0.0,0.0,0.0,0.0,0.0,0.0,0.0,0.0,0.0,0.0,-0.7899,-0.7872,-0.7872,-0.7872,-0.7872,-0.7872,-0.7872,-0.7872,-0.7872,-0.7872,-0.7872,-0.7872,-0.7872,-0.7872,-0.7872,-0.7872,-0.7872,-0.7872,-0.7872,-0.791,-0.7857,-0.8054,-0.8214,-0.8418,-0.8418,-0.8489,-0.8587,-0.8587,-0.8587,-0.8587,-0.8587,-0.8587,-0.8587,-0.8587,-0.8587,-0.8587,-0.8587,-0.8587,-0.8587,-0.8587,-0.8587,-0.8584,-0.8576,-0.9655,-1.0741,-1.0724,-1.0721,-1.0721,-1.0721,-1.0727,-1.0731,-1.0721,-1.0738,-0.993,-0.7612,-0.9114,-1.0635,-1.0635,-0.872,-0.7098,-0.7107,-0.7109,-0.7109,-0.7109,-0.7109,-0.7109,-0.7109,-0.7096,-0.8166,-1.0485,-1.0731,-1.0721,-1.0721,-1.0721,-1.0721,-1.0721,-1.0687,-1.066,-1.0767,-1.6374,-1.9426,-1.996,-2.0803,-2.274,-0.7127,-0.7132,-0.6996,0.0,0.0,0.0,-0.847,-0.8598,-0.8592,0.0,0.0,0.0,0.0,0.0,0.0,0.0,0.0,0.0,0.0,0.0,0.0,0.0,0.0,0.0,0.0,0.0,-0.8185,-0.8062,-0.794,-0.7872,-0.7872,-0.7872,-0.7872,-0.7872,-0.7872,-0.7872,-0.7872,-0.7872,-0.7872,-0.7872,-0.7872,-0.7872,-0.7872,-0.7872,-0.7872,-0.7872,-0.7872,-0.7872,-0.7872,-0.7872,-0.8079,-0.8397,-0.8532,-0.861,-0.8587,-0.859,-0.859,-0.8587,-0.859,-0.859,-0.8587,-0.8587,-0.8587,-0.8587,-0.8587,-0.8587,-0.8587,-0.8587,-0.859,-0.8587,-0.8576,-0.9664,-1.0751,-1.0731,-1.0724,-1.0724,-1.0727,-1.0744,-1.0482,-0.9911,-1.0336,-0.8853,-0.3198,-0.6425,-0.9701,-0.9701,-0.5491,-0.2139,-0.2139,-0.214,-0.214,-0.214,-0.214,-0.214,-0.214,-0.2135,-0.4671,-1.0349,-1.0738,-1.0724,-1.0721,-1.0721,-1.0721,-1.0721,-1.0721,-1.0694,-1.0767,-1.6374,-1.972,-2.0847,-2.1015,-2.1146,0.0,0.0,0.0,0.0,0.0,0.0,-0.8079,-0.8622,-0.8619,0.0,0.0,0.0,0.0,0.0,0.0,0.0,0.0,0.0,0.0,0.0,0.0,0.0,0.0,0.0,0.0,0.0,-0.8314,-0.7937,-0.794,-0.7872,-0.7872,-0.7872,-0.7872,-0.7872,-0.7872,-0.7872,-0.7872,-0.7872,-0.7872,-0.7872,-0.7872,-0.7872,-0.7872,-0.7872,-0.7872,-0.7872,-0.7872,-0.7872,-0.7872,-0.7872,-0.7902,-0.8009,-0.814,-0.8399,-0.859,-0.8603,-0.86,-0.859,-0.8603,-0.86,-0.8587,-0.8587,-0.8587,-0.8587,-0.8587,-0.8587,-0.8587,-0.8587,-0.8598,-0.8603,-0.8581,-0.9667,-1.0765,-1.0761,-1.0755,-1.0751,-1.0638,-1.0645,-0.9276,-0.481,-0.7524,-0.8895,-0.3207,-0.308,-0.3892,-0.3892,-0.2951,-0.2147,-0.2151,-0.2151,-0.2151,-0.2151,-0.2151,-0.2151,-0.2151,-0.2147,-0.4692,-1.0372,-1.0761,-1.0738,-1.0721,-1.0721,-1.0721,-1.0721,-1.0721,-1.0694,-1.0767,-1.6364,-1.9199,-1.9573,-2.0648,-2.1109,0.0,0.0,0.0,-0.444,0.0,0.0,0.0,-0.6455,-0.6453,0.0,0.0,0.0,0.0,0.0,0.0,0.0,0.0,0.0,0.0,0.0,0.0,0.0,0.0,0.0,0.0,0.0,-0.8383,-0.794,-0.7937,-0.7872,-0.7872,-0.7872,-0.7872,-0.7872,-0.7872,-0.7872,-0.7872,-0.7872,-0.7872,-0.7872,-0.7872,-0.7872,-0.7872,-0.7872,-0.7872,-0.7872,-0.7872,-0.7872,-0.7872,-0.7872,-0.7892,-0.798,-0.8244,-0.8524,-0.8609,-0.8619,-0.7665,-0.6708,-0.8074,-0.8617,-0.8609,-0.8609,-0.8606,-0.86,-0.86,-0.86,-0.8603,-0.8606,-0.8614,-0.7937,-0.5083,-0.6969,-0.9831,-1.0515,-0.8595,-0.6429,-0.6431,-0.6441,-0.5637,-0.2812,-0.457,-0.552,-0.268,-0.2147,-0.2151,-0.2151,-0.2151,-0.2152,-0.2155,-0.2155,-0.2155,-0.2155,-0.2155,-0.2155,-0.2155,-0.2151,-0.3356,-0.6313,-0.9146,-1.0761,-1.0738,-1.0738,-1.0731,-1.0721,-1.0721,-1.0707,-1.0677,-1.3569,-1.6359,-1.9064,-1.9736,-2.0488,0.0,0.0,0.0,0.0,0.0,-0.4303,0.0,0.0,0.0,0.0,0.0,0.0,0.0,0.0,0.0,0.0,0.0,0.0,0.0,0.0,0.0,0.0,0.0,0.0,0.0,0.0,-0.8422,-0.7942,-0.7937,-0.7872,-0.7872,-0.7872,-0.7872,-0.7872,-0.7872,-0.7872,-0.7872,-0.7872,-0.7872,-0.7872,-0.7872,-0.7872,-0.7872,-0.7872,-0.7872,-0.7872,-0.7875,-0.7877,-0.7877,-0.7877,-0.79,-0.7865,-0.721,-0.6947,-0.6996,-0.6998,-0.5508,-0.4024,-0.7407,-0.863,-0.8357,-0.7268,-0.767,-0.8617,-0.8617,-0.7801,-0.6987,-0.6993,-0.6998,-0.5914,-0.1204,-0.3482,-0.7259,-0.8349,-0.5367,-0.2142,-0.2141,-0.2145,-0.2149,-0.2149,-0.2152,-0.2154,-0.215,-0.2152,-0.2155,-0.2155,-0.2155,-0.2155,-0.2155,-0.2155,-0.2155,-0.2155,-0.2155,-0.2155,-0.2155,-0.2151,-0.2148,-0.2148,-0.6579,-0.9004,-0.9117,-1.007,-1.0738,-1.0721,-1.0721,-1.0721,-1.0721,-1.0663,-1.3561,-1.91,-1.909,-1.9833,0.0,0.0,0.0,0.0,-0.4307,0.0,0.0,0.0,0.0,0.0,0.0,0.0,0.0,0.0,0.0,0.0,0.0,0.0,0.0,0.0,0.0,0.0,0.0,0.0,0.0,0.0,0.0,-0.7934,-0.7937,-0.7872,-0.7872,-0.7872,-0.7872,-0.7872,-0.7872,-0.7872,-0.7872,-0.7872,-0.7872,-0.7872,-0.7872,-0.7872,-0.7872,-0.7872,-0.7872,-0.7872,-0.7888,-0.7896,-0.7896,-0.7905,-0.7929,-0.7498,-0.2822,-0.0914,-0.0938,-0.094,-0.0805,-0.1206,-0.674,-0.8641,-0.7811,-0.2681,-0.4427,-0.8628,-0.8628,-0.4967,-0.0938,-0.0938,-0.0939,-0.0806,-0.0134,-0.0536,-0.1073,-0.1209,-0.1745,-0.2148,-0.2152,-0.2153,-0.2154,-0.2154,-0.2155,-0.2155,-0.2154,-0.2155,-0.2155,-0.2155,-0.2155,-0.2155,-0.2155,-0.2155,-0.2155,-0.2155,-0.2155,-0.2155,-0.2155,-0.2155,-0.2152,-0.2148,-0.2811,-0.3205,-0.3197,-0.8015,-1.0724,-1.0721,-1.0721,-1.0721,-1.0721,-1.0663,-1.36,-1.9114,-1.9106,-1.9817,0.0,0.0,0.0,0.0,0.0,0.0,-0.4308,0.0,-0.4308,0.0,0.0,0.0,0.0,0.0,0.0,0.0,0.0,0.0,0.0,0.0,0.0,0.0,0.0,0.0,0.0,0.0,0.0,0.0,0.0,-0.7943,-0.7875,-0.7872,-0.7872,-0.7872,-0.7872,-0.7872,-0.7872,-0.7872,-0.7872,-0.7872,-0.7872,-0.7872,-0.7872,-0.7872,-0.7872,-0.7872,-0.7891,-0.6156,-0.3561,-0.666,-0.7934,-0.7374,-0.2057,0.0,0.0,0.0,0.0,-0.0403,-0.2826,-0.3633,-0.3227,-0.0806,-0.1611,-0.3628,-0.3628,-0.1879,0.0,0.0,0.0,0.0,0.0,0.0,0.0,0.0,-0.1076,-0.2152,-0.2155,-0.2155,-0.2155,-0.2155,-0.2155,-0.2155,-0.2155,-0.2155,-0.2155,-0.2155,-0.2155,-0.2155,-0.2155,-0.2155,-0.2155,-0.2155,-0.2155,-0.2155,-0.2155,-0.2155,-0.2154,-0.2152,-0.5242,-0.7121,-0.71,-0.9389,-1.0734,-1.0721,-1.0721,-1.0721,-1.0721,-1.0697,-1.1882,-1.4286,-1.7596,-1.9346,-0.4308,0.0,0.0,0.0,0.0,0.0,0.0,0.0,0.0,0.0,0.0,0.0,0.0,0.0,0.0,0.0,0.0,0.0,0.0,0.0,0.0,0.0,0.0,0.0,0.0,0.0,0.0,0.0,-0.8012,0.0,-0.7924,-0.7888,-0.7872,-0.7872,-0.7872,-0.7872,-0.7872,-0.7872,-0.7872,-0.7872,-0.7872,-0.7872,-0.7872,-0.7872,-0.7872,-0.7872,-0.7894,-0.492,-0.0245,-0.4186,-0.5769,-0.5395,-0.1544,0.0,0.0,0.0,0.0,0.0,0.0,0.0,0.0,0.0,0.0,0.0,0.0,0.0,0.0,0.0,0.0,0.0,0.0,0.0,0.0,0.0,-0.0808,-0.175,-0.2155,-0.2155,-0.2155,-0.2155,-0.2155,-0.2155,-0.2155,-0.2155,-0.2155,-0.2155,-0.2155,-0.2155,-0.2155,-0.2155,-0.2155,-0.2155,-0.2155,-0.2155,-0.2155,-0.2155,-0.2154,-0.2153,-0.6063,-0.8357,-0.8331,-0.981,-1.0744,-1.0731,-1.0724,-1.0721,-1.0721,-1.0721,-1.0697,-1.0792,-1.4893,-1.7596,0.0,0.0,0.0,0.0941,0.0,0.0,0.0,0.0,-0.4308,0.0,0.0,0.0,0.0,0.0,-0.4288,-0.4361,0.0,0.0,0.0,0.0,0.0,0.0,0.0,0.0,0.0,0.0,0.0,0.0,-0.819,0.0,-0.7918,-0.7934,-0.7872,-0.7872,-0.7872,-0.7872,-0.7872,-0.7872,-0.7872,-0.7872,-0.7872,-0.7872,-0.7872,-0.7872,-0.7872,-0.7872,-0.7899,-0.4925,-0.0,-0.0123,-0.0249,-0.0253,-0.0128,0.0,0.0,0.0,0.0,0.0,0.0,0.0,0.0,0.0,0.0,0.0,0.0,0.0,0.0,0.0,0.0,0.0,0.0,0.0,0.0,0.0,-0.0,-0.0404,-0.1885,-0.2155,-0.2155,-0.2155,-0.2155,-0.2155,-0.2155,-0.2155,-0.2155,-0.2155,-0.2155,-0.2155,-0.2155,-0.2155,-0.2155,-0.2155,-0.2155,-0.2155,-0.2155,-0.2155,-0.2153,-0.2148,-0.2416,-0.2413,-0.2539,-0.7769,-1.0755,-1.0751,-1.0731,-1.0721,-1.0721,-1.0721,-1.0717,-1.0717,-1.0923,-1.3935,0.0,0.0,-0.3906,-0.2421,0.0,0.0,0.0,0.0,0.0,0.0,0.0,0.0,0.0,0.0,-0.43,-0.4281,-0.4294,0.0,0.0,0.0,0.0,0.0,0.0,0.0,0.0,0.0,0.0,-0.8557,-0.84,-0.8267,0.0,-0.7934,-0.7872,-0.7872,-0.7872,-0.7872,-0.7872,-0.7872,-0.7872,-0.7872,-0.7872,-0.7872,-0.7872,-0.7872,-0.7877,-0.7891,-0.7905,-0.493,0.0,0.0,0.0,0.0,0.0,0.0,0.0,0.0,0.0,0.0,0.0,0.0,0.0,0.0,0.0,0.0,0.0,0.0,0.0,0.0,0.0,0.0,0.0,0.0,0.0,0.0,0.0,-0.0135,-0.0673,-0.0808,-0.1077,-0.202,-0.2155,-0.2155,-0.2155,-0.2155,-0.2155,-0.2155,-0.2155,-0.2155,-0.2155,-0.2155,-0.2155,-0.2155,-0.2155,-0.2155,-0.2155,-0.2155,-0.2154,-0.2153,-0.2152,-0.215,-0.2144,-0.4014,-0.6825,-1.0618,-1.0731,-1.0721,-1.0721,-1.0721,-1.0721,-1.0721,-1.07,-1.1724,0.2153,0.0135,0.0,-0.2017,-0.3094,0.0,-0.4308,0.0,0.0,0.0,0.0,0.0,0.0,0.0,-0.4308,-0.4308,-0.4308,-0.4308,0.0,0.0,0.0,0.0,0.0,0.0,0.0,0.0,-0.8565,-0.8618,-0.8632,-0.8378,0.0,0.0,-0.7915,-0.7872,-0.7872,-0.7872,-0.7872,-0.7872,-0.7872,-0.7872,-0.7872,-0.7872,-0.7872,-0.7872,-0.788,-0.7774,-0.5914,-0.3201,0.0,0.0,0.0,0.0,0.0,0.0,0.0,0.0,0.0,0.0,0.0,0.0,0.0,0.0,0.0,0.0,0.0,0.0,0.0,0.0,0.0,0.0,0.0,0.0,0.0,0.0,0.0,0.0,0.0,0.0,-0.0269,-0.1212,-0.1885,-0.2155,-0.2155,-0.2155,-0.2155,-0.2155,-0.2155,-0.2155,-0.2155,-0.2155,-0.2155,-0.2155,-0.2155,-0.2155,-0.2155,-0.2155,-0.2155,-0.2155,-0.2155,-0.2153,-0.215,-0.2142,-0.4813,-1.0628,-1.0734,-1.0721,-1.0721,-1.0721,-1.0721,-1.0721,-1.0721,-1.0687]}]]